[[{"header":{"parameterUnit":"m.s-1","parameterCategory":1,"la1":31.0,"la2":29.5877,"lo1":-88.7671,"lo2":-86.6584,"dy":0.0162,"dx":0.0185,"nx":115,"ny":88,"refTime":"2023-03-14T18:00:00:Z","depth":0,"parameterNumber":2,"parameterNumberName":"U-component_of_WINDS"},"data":[0.0,0.0,0.0,0.0,0.0,0.0,0.0,0.0,0.0,0.0,0.0,0.0,0.0,0.0,0.0,0.0,0.0,0.0,0.0,0.0,0.0,0.0,0.0,0.0,0.0,0.0,0.0,0.0,0.0,0.0,0.0,0.0,0.0,0.0,0.0,0.0,0.0,0.0,0.0,0.0,0.0,0.0,0.0,0.0,0.0,0.0,0.0,0.0,0.0,0.0,0.0,0.0,0.0,0.0,0.0,0.0,0.0,0.0,0.0,0.0,0.0,0.0,0.0,0.0,0.0,0.0,0.0,0.0,0.0,0.0,0.0,0.0,0.0,0.0,0.0,0.0,0.0,0.0,0.0,0.0,0.0,0.0,0.0,0.0,0.0,0.0,0.0,0.0,0.0,0.0,0.0,0.0,0.0,0.0,0.0,0.0,0.0,0.0,0.0,0.0,0.0,0.0,0.0,0.0,0.0,0.0,0.0,0.0,0.0,0.0,0.0,0.0,0.0,0.0,0.0,0.0,0.0,0.0,0.0,0.0,0.0,0.0,0.0,0.0,0.0,0.0,0.0,0.0,0.0,0.0,0.0,0.0,0.0,0.0,0.0,0.0,0.0,0.0,0.0,0.0,0.0,0.0,0.0,0.0,0.0,0.0,0.0,0.0,0.0,0.0,0.0,0.0,0.0,0.0,0.0,0.0,0.0,0.0,0.0,0.0,0.0,0.0,0.0,0.0,0.0,0.0,0.0,0.0,0.0,0.0,0.0,0.0,0.0,0.0,0.0,0.0,0.0,0.0,0.0,0.0,0.0,0.0,0.0,0.0,0.0,0.0,0.0,0.0,0.0,0.0,0.0,0.0,0.0,0.0,0.0,0.0,0.0,0.0,0.0,0.0,0.0,0.0,0.0,0.0,0.0,0.0,0.0,0.0,0.0,0.0,0.0,0.0,0.0,0.0,0.0,0.0,0.0,0.0,0.0,0.0,0.0,0.0,0.0,0.0,0.0,0.0,0.0,0.0,0.0,0.0,0.0,0.0,0.0,0.0,0.0,0.0,0.0,0.0,0.0,0.0,0.0,0.0,0.0,0.0,0.0,0.0,0.0,0.0,0.0,0.0,0.0,0.0,0.0,0.0,0.0,0.0,0.0,0.0,0.0,0.0,0.0,0.0,0.0,0.0,0.0,0.0,0.0,0.0,0.0,0.0,0.0,0.0,0.0,0.0,0.0,0.0,0.0,0.0,0.0,0.0,0.0,0.0,0.0,0.0,0.0,0.0,0.0,0.0,0.0,0.0,0.0,0.0,0.0,0.0,0.0,0.0,0.0,0.0,0.0,0.0,0.0,0.0,0.0,0.0,0.0,0.0,0.0,0.0,0.0,0.0,0.0,0.0,0.0,0.0,0.0,0.0,0.0,0.0,0.0,0.0,0.0,0.0,0.0,0.0,0.0,0.0,0.0,0.0,0.0,0.0,0.0,0.0,0.0,0.0,0.0,0.0,0.0,0.0,0.0,0.0,0.0,0.0,0.0,0.0,0.0,0.0,0.0,0.0,0.0,0.0,0.0,0.0,0.0,0.0,0.0,0.0,0.0,0.0,0.0,0.0,0.0,0.0,0.0,0.0,0.0,0.0,0.0,0.0,0.0,0.0,0.0,0.0,0.0,0.0,0.0,0.0,0.0,0.0,0.0,0.0,0.0,0.0,0.0,0.0,0.0,0.0,0.0,0.0,0.0,0.0,0.0,0.0,0.0,0.0,0.0,0.0,0.0,0.0,0.0,0.0,0.0,0.0,0.0,0.0,0.0,0.0,0.0,0.0,0.0,0.0,0.0,0.0,0.0,0.0,0.0,0.0,0.0,0.0,0.0,0.0,0.0,0.0,0.0,0.0,0.0,0.0,0.0,0.0,0.0,0.0,0.0,0.0,0.0,0.0,0.0,0.0,0.0,0.0,0.0,0.0,0.0,0.0,0.0,0.0,0.0,0.0,0.0,0.0,0.0,0.0,0.0,0.0,0.0,0.0,0.0,0.0,0.0,0.0,0.0,0.0,0.0,0.0,0.0,0.0,0.0,0.0,0.0,0.0,0.0,0.0,0.0,0.0,0.0,0.0,0.0,0.0,0.0,0.0,0.0,0.0,0.0,0.0,0.0,0.0,0.0,0.0,0.0,0.0,0.0,0.0,0.0,0.0,0.0,0.0,0.0,0.0,0.0,0.0,0.0,0.0,0.0,0.0,0.0,0.0,0.0,0.0,0.0,0.0,0.0,0.0,0.0,0.0,0.0,0.0,0.0,0.0,0.0,0.0,0.0,0.0,0.0,0.0,0.0,0.0,0.0,0.0,0.0,0.0,0.0,0.0,0.0,0.0,0.0,0.0,0.0,0.0,0.0,0.0,0.0,0.0,0.0,0.0,0.0,0.0,0.0,0.0,0.0,0.0,0.0,0.0,0.0,0.0,0.0,0.0,0.0,0.0,0.0,0.0,0.0,0.0,0.0,0.0,0.0,0.0,0.0,0.0,0.0,0.0,0.0,0.0,0.0,0.0,0.0,0.0,0.0,0.0,0.0,0.0,0.0,0.0,0.0,0.0,0.0,0.0,0.0,0.0,0.0,0.0,0.0,0.0,0.0,0.0,0.0,0.0,0.0,0.0,0.0,0.0,0.0,0.0,0.0,0.0,0.0,0.0,0.0,0.0,0.0,0.0,0.0,0.0,0.0,0.0,0.0,0.0,0.0,0.0,0.0,0.0,0.0,0.0,0.0,0.0,0.0,0.0,0.0,0.0,0.0,0.0,0.0,0.0,0.0,0.0,0.0,0.0,0.0,0.0,0.0,0.0,0.0,0.0,0.0,0.0,0.0,0.0,0.0,0.0,0.0,0.0,0.0,0.0,0.0,0.0,0.0,0.0,0.0,0.0,0.0,0.0,0.0,0.0,0.0,0.0,0.0,0.0,0.0,0.0,0.0,0.0,0.0,0.0,0.0,0.0,0.0,0.0,0.0,0.0,0.0,0.0,0.0,0.0,0.0,0.0,0.0,0.0,0.0,0.0,0.0,0.0,0.0,0.0,0.0,0.0,0.0,0.0,0.0,0.0,0.0,0.0,0.0,0.0,0.0,0.0,0.0,0.0,0.0,0.0,0.0,0.0,0.0,0.0,0.0,0.0,0.0,0.0,0.0,0.0,0.0,0.0,0.0,0.0,0.0,0.0,0.0,0.0,0.0,0.0,0.0,0.0,0.0,0.0,0.0,0.0,0.0,0.0,0.0,0.0,0.0,0.0,0.0,0.0,0.0,0.0,0.0,0.0,0.0,0.0,0.0,0.0,0.0,0.0,0.0,0.0,0.0,0.0,0.0,0.0,0.0,0.0,0.0,0.0,0.0,0.0,0.0,0.0,0.0,0.0,0.0,0.0,0.0,0.0,0.0,0.0,0.0,0.0,0.0,0.0,0.0,0.0,0.0,0.0,0.0,0.0,0.0,0.0,0.0,0.0,0.0,0.0,0.0,0.0,0.0,0.0,0.0,0.0,0.0,0.0,0.0,0.0,0.0,0.0,0.0,0.0,0.0,0.0,0.0,0.0,0.0,0.0,0.0,0.0,0.0,0.0,0.0,0.0,0.0,0.0,0.0,0.0,0.0,0.0,0.0,0.0,0.0,0.0,0.0,0.0,0.0,0.0,0.0,0.0,0.0,0.0,0.0,0.0,0.0,0.0,0.0,0.0,0.0,0.0,0.0,0.0,0.0,0.0,0.0,0.0,0.0,0.0,0.0,0.0,0.0,0.0,0.0,0.0,0.0,0.0,0.0,0.0,0.0,0.0,0.0,0.0,0.0,0.0,0.0,0.0,0.0,0.0,0.0,0.0,0.0,0.0,0.0,0.0,0.0,0.0,0.0,0.0,0.0,0.0,0.0,0.0,0.0,0.0,0.0,0.0,0.0,0.0,0.0,0.0,0.0,0.0,0.0,0.0,0.0,0.0,0.0,0.0,0.0,0.0,0.0,0.0,0.0,0.0,0.0,0.0,0.0,0.0,0.0,0.0,0.0,0.0,0.0,0.0,0.0,0.0,0.0,0.0,0.0,0.0,0.0,0.0,0.0,0.0,0.0,0.0,0.0,0.0,0.0,0.0,0.0,0.0,0.0,0.0,0.0,0.0,0.0,0.0,0.0,0.0,0.0,0.0,0.0,0.0,0.0,0.0,0.0,0.0,0.0,0.0,0.0,0.0,0.0,0.0,0.0,0.0,0.0,0.0,0.0,0.0,0.0,0.0,0.0,0.0,0.0,0.0,2.3556,0.0,0.0,0.0,0.0,0.0,0.0,0.0,0.0,0.0,0.0,0.0,0.0,0.0,0.0,0.0,0.0,0.0,0.0,0.0,0.0,0.0,0.0,0.0,0.0,0.0,0.0,0.0,0.0,0.0,0.0,0.0,0.0,0.0,0.0,0.0,0.0,0.0,0.0,0.0,0.0,0.0,0.0,0.0,0.0,0.0,0.0,0.0,0.0,0.0,0.0,0.0,0.0,0.0,0.0,0.0,0.0,0.0,0.0,0.0,0.0,0.0,0.0,0.0,0.0,0.0,0.0,0.0,0.0,0.0,0.0,0.0,0.0,0.0,0.0,0.0,0.0,0.0,0.0,0.0,0.0,0.0,0.0,0.0,0.0,0.0,0.0,0.0,0.0,0.0,0.0,0.0,0.0,0.0,0.0,0.0,0.0,0.0,0.0,0.0,0.0,0.0,0.0,0.0,0.0,0.0,0.0,0.0,0.0,0.0,0.0,2.5322,2.5732,2.3278,2.2464,2.3574,0.0,0.0,0.0,0.0,0.0,0.0,0.0,0.0,0.0,0.0,0.0,0.0,0.0,0.0,0.0,0.0,0.0,0.0,0.0,0.0,0.0,0.0,0.0,0.0,0.0,0.0,0.0,0.0,0.0,0.0,0.0,0.0,0.0,0.0,0.0,0.0,0.0,0.0,0.0,0.0,0.0,0.0,0.0,0.0,0.0,0.0,0.0,0.0,0.0,0.0,0.0,0.0,0.0,0.0,0.0,0.0,0.0,0.0,0.0,0.0,0.0,0.0,0.0,0.0,0.0,0.0,0.0,0.0,0.0,0.0,0.0,0.0,0.0,0.0,0.0,0.0,0.0,0.0,0.0,0.0,0.0,0.0,0.0,0.0,0.0,0.0,0.0,0.0,0.0,0.0,0.0,0.0,0.0,0.0,0.0,0.0,0.0,0.0,0.0,0.0,0.0,0.0,0.0,0.0,0.0,0.0,0.0,0.0,0.0,0.0,0.0,0.0,2.3337,2.2556,2.3981,0.0,0.0,0.0,0.0,0.0,0.0,0.0,0.0,0.0,0.0,0.0,0.0,0.0,0.0,0.0,0.0,0.0,0.0,0.0,0.0,0.0,0.0,0.0,0.0,0.0,0.0,0.0,0.0,0.0,0.0,0.0,0.0,0.0,0.0,0.0,0.0,0.0,0.0,0.0,0.0,0.0,0.0,0.0,0.0,0.0,0.0,0.0,0.0,0.0,0.0,0.0,0.0,0.0,0.0,0.0,0.0,0.0,0.0,0.0,0.0,0.0,0.0,0.0,0.0,0.0,0.0,0.0,0.0,0.0,0.0,0.0,0.0,0.0,0.0,0.0,0.0,0.0,0.0,0.0,0.0,0.0,0.0,0.0,0.0,0.0,0.0,0.0,0.0,0.0,0.0,0.0,0.0,0.0,0.0,0.0,0.0,0.0,0.0,0.0,0.0,0.0,0.0,0.0,0.0,0.0,0.0,0.0,0.0,0.0,0.0,2.6634,2.7893,2.7111,0.0,2.5991,0.0,0.0,0.0,0.0,0.0,0.0,0.0,0.0,0.0,0.0,0.0,0.0,0.0,0.0,0.0,0.0,0.0,0.0,0.0,0.0,0.0,0.0,0.0,0.0,0.0,0.0,0.0,0.0,0.0,0.0,0.0,0.0,0.0,0.0,0.0,0.0,0.0,0.0,0.0,0.0,0.0,0.0,0.0,0.0,0.0,0.0,0.0,0.0,0.0,0.0,0.0,0.0,0.0,0.0,0.0,0.0,0.0,0.0,0.0,0.0,0.0,0.0,0.0,0.0,0.0,0.0,0.0,0.0,0.0,0.0,0.0,0.0,0.0,0.0,0.0,0.0,0.0,0.0,0.0,0.0,0.0,0.0,0.0,0.0,0.0,0.0,0.0,0.0,0.0,0.0,0.0,0.0,0.0,0.0,0.0,0.0,0.0,0.0,0.0,0.0,0.0,0.0,0.0,0.0,0.0,0.0,0.0,0.0,0.0,0.0,2.5428,2.7018,2.6907,2.6407,0.0,0.0,0.0,0.0,0.0,0.0,0.0,0.0,0.0,0.0,0.0,0.0,0.0,0.0,0.0,0.0,0.0,0.0,0.0,0.0,0.0,0.0,0.0,0.0,0.0,0.0,0.0,0.0,0.0,0.0,0.0,0.0,0.0,0.0,0.0,0.0,0.0,0.0,0.0,0.0,0.0,0.0,0.0,0.0,0.0,0.0,0.0,0.0,0.0,0.0,0.0,0.0,0.0,0.0,0.0,0.0,0.0,0.0,0.0,0.0,0.0,0.0,0.0,0.0,0.0,0.0,0.0,0.0,0.0,0.0,0.0,0.0,0.0,0.0,0.0,0.0,0.0,0.0,0.0,0.0,0.0,0.0,0.0,0.0,0.0,0.0,0.0,0.0,0.0,0.0,0.0,0.0,0.0,0.0,0.0,0.0,0.0,0.0,0.0,0.0,0.0,0.0,0.0,0.0,0.0,0.0,0.0,0.0,0.0,0.0,2.5337,2.5156,2.6564,2.6237,2.5842,2.556,0.0,0.0,0.0,0.0,0.0,0.0,0.0,0.0,0.0,0.0,0.0,0.0,0.0,0.0,0.0,0.0,0.0,0.0,0.0,0.0,0.0,0.0,0.0,0.0,0.0,0.0,0.0,0.0,0.0,0.0,0.0,0.0,0.0,0.0,0.0,0.0,0.0,0.0,0.0,0.0,0.0,0.0,0.0,0.0,0.0,0.0,0.0,0.0,0.0,0.0,0.0,0.0,0.0,0.0,0.0,0.0,0.0,0.0,0.0,0.0,0.0,0.0,0.0,0.0,0.0,0.0,0.0,0.0,0.0,0.0,0.0,0.0,0.0,0.0,0.0,0.0,0.0,0.0,0.0,0.0,0.0,0.0,0.0,0.0,0.0,0.0,0.0,0.0,0.0,0.0,0.0,0.0,0.0,0.0,0.0,0.0,0.0,0.0,0.0,0.0,0.0,0.0,0.0,0.0,0.0,0.0,0.0,0.0,3.0233,2.7824,2.6848,2.7596,2.593,2.5563,0.0,0.0,0.0,0.0,0.0,0.0,0.0,0.0,0.0,0.0,0.0,0.0,0.0,0.0,0.0,0.0,0.0,0.0,0.0,0.0,0.0,0.0,0.0,0.0,0.0,0.0,0.0,0.0,0.0,0.0,0.0,0.0,0.0,0.0,0.0,0.0,0.0,0.0,0.0,0.0,0.0,0.0,0.0,0.0,0.0,0.0,0.0,0.0,0.0,0.0,0.0,0.0,0.0,0.0,0.0,0.0,0.0,0.0,0.0,0.0,0.0,0.0,0.0,0.0,0.0,0.0,0.0,0.0,0.0,0.0,0.0,0.0,0.0,0.0,0.0,0.0,0.0,0.0,0.0,0.0,0.0,0.0,0.0,0.0,0.0,0.0,0.0,0.0,0.0,0.0,0.0,0.0,0.0,0.0,0.0,0.0,0.0,0.0,0.0,0.0,0.0,0.0,0.0,0.0,0.0,0.0,0.0,0.0,0.0,2.7774,2.7548,2.6996,2.6292,2.6812,2.6714,0.0,0.0,0.0,0.0,0.0,0.0,0.0,0.0,0.0,0.0,0.0,0.0,0.0,0.0,0.0,0.0,0.0,0.0,0.0,0.0,0.0,0.0,0.0,0.0,0.0,0.0,0.0,0.0,0.0,0.0,0.0,0.0,0.0,0.0,0.0,0.0,0.0,0.0,0.0,0.0,0.0,0.0,0.0,0.0,0.0,0.0,0.0,0.0,0.0,0.0,0.0,0.0,0.0,0.0,0.0,0.0,0.0,0.0,0.0,0.0,0.0,0.0,0.0,0.0,0.0,0.0,0.0,0.0,0.0,0.0,0.0,0.0,0.0,0.0,0.0,0.0,0.0,0.0,0.0,0.0,0.0,0.0,0.0,0.0,0.0,0.0,0.0,0.0,0.0,0.0,0.0,0.0,0.0,0.0,0.0,0.0,0.0,0.0,0.0,0.0,0.0,0.0,0.0,0.0,0.0,0.0,0.0,0.0,0.0,2.6938,0.0,2.7,2.5978,2.6887,2.666,0.0,0.0,0.0,0.0,0.0,0.0,0.0,0.0,0.0,0.0,0.0,0.0,0.0,0.0,0.0,0.0,0.0,0.0,0.0,0.0,0.0,0.0,0.0,0.0,0.0,0.0,0.0,0.0,0.0,0.0,0.0,0.0,0.0,0.0,0.0,0.0,0.0,0.0,0.0,0.0,0.0,0.0,0.0,0.0,0.0,0.0,0.0,0.0,0.0,0.0,0.0,0.0,0.0,0.0,0.0,0.0,0.0,0.0,0.0,0.0,0.0,0.0,0.0,0.0,0.0,0.0,0.0,0.0,0.0,0.0,0.0,0.0,0.0,0.0,0.0,0.0,0.0,0.0,0.0,0.0,0.0,0.0,0.0,0.0,0.0,0.0,0.0,0.0,0.0,0.0,0.0,0.0,0.0,0.0,0.0,0.0,0.0,0.0,0.0,0.0,0.0,0.0,0.0,0.0,0.0,0.0,0.0,0.0,2.7359,2.8227,2.7384,2.6913,2.6897,2.6079,2.5271,0.0,0.0,0.0,0.0,0.0,0.0,0.0,0.0,0.0,0.0,0.0,0.0,0.0,0.0,0.0,0.0,0.0,0.0,0.0,0.0,0.0,0.0,0.0,0.0,0.0,0.0,0.0,0.0,0.0,0.0,0.0,0.0,0.0,0.0,0.0,0.0,0.0,0.0,0.0,0.0,0.0,0.0,0.0,0.0,0.0,0.0,0.0,0.0,0.0,0.0,0.0,0.0,0.0,0.0,0.0,0.0,0.0,0.0,0.0,0.0,0.0,0.0,0.0,0.0,0.0,0.0,0.0,0.0,0.0,0.0,0.0,0.0,0.0,0.0,0.0,0.0,0.0,0.0,0.0,0.0,0.0,0.0,0.0,0.0,0.0,0.0,0.0,0.0,0.0,0.0,0.0,0.0,0.0,0.0,0.0,0.0,0.0,0.0,0.0,0.0,0.0,0.0,0.0,0.0,0.0,0.0,0.0,0.0,0.0,2.8999,2.7265,2.7202,2.8814,2.6562,2.5861,0.0,0.0,0.0,0.0,0.0,0.0,0.0,0.0,0.0,0.0,0.0,0.0,0.0,0.0,0.0,0.0,0.0,0.0,0.0,0.0,0.0,0.0,0.0,0.0,0.0,0.0,0.0,0.0,0.0,0.0,0.0,0.0,0.0,0.0,0.0,0.0,0.0,0.0,0.0,0.0,0.0,0.0,0.0,0.0,0.0,0.0,0.0,0.0,0.0,0.0,0.0,0.0,0.0,0.0,0.0,0.0,0.0,0.0,0.0,0.0,0.0,0.0,0.0,0.0,0.0,0.0,0.0,0.0,0.0,0.0,0.0,0.0,0.0,0.0,0.0,0.0,0.0,0.0,0.0,0.0,0.0,0.0,0.0,0.0,0.0,0.0,0.0,0.0,0.0,0.0,0.0,0.0,0.0,0.0,0.0,0.0,0.0,0.0,0.0,0.0,0.0,0.0,0.0,0.0,0.0,0.0,0.0,0.0,0.0,3.1903,2.9143,2.8272,2.9669,2.7899,2.682,2.6685,0.0,0.0,0.0,0.0,0.0,0.0,0.0,0.0,0.0,0.0,0.0,0.0,0.0,0.0,0.0,0.0,0.0,0.0,0.0,0.0,0.0,0.0,0.0,0.0,0.0,0.0,0.0,0.0,0.0,0.0,0.0,0.0,0.0,0.0,0.0,0.0,0.0,0.0,0.0,0.0,0.0,0.0,0.0,0.0,0.0,0.0,0.0,0.0,0.0,0.0,0.0,0.0,0.0,0.0,0.0,0.0,0.0,0.0,0.0,0.0,0.0,0.0,0.0,0.0,0.0,0.0,0.0,0.0,0.0,0.0,0.0,0.0,0.0,0.0,0.0,0.0,0.0,0.0,0.0,0.0,0.0,0.0,0.0,0.0,0.0,0.0,0.0,0.0,0.0,0.0,0.0,0.0,0.0,0.0,0.0,0.0,0.0,0.0,0.0,0.0,0.0,0.0,0.0,0.0,0.0,0.0,0.0,0.0,3.6835,3.2928,3.0704,3.016,3.0003,2.8248,0.0,0.0,0.0,0.0,0.0,0.0,0.0,0.0,0.0,0.0,0.0,0.0,0.0,0.0,0.0,0.0,0.0,0.0,0.0,0.0,0.0,0.0,0.0,0.0,0.0,0.0,0.0,0.0,0.0,0.0,0.0,0.0,0.0,0.0,0.0,0.0,0.0,0.0,0.0,0.0,0.0,0.0,0.0,0.0,0.0,0.0,0.0,0.0,0.0,0.0,0.0,0.0,0.0,0.0,0.0,0.0,0.0,0.0,0.0,0.0,0.0,0.0,0.0,0.0,0.0,0.0,0.0,0.0,0.0,0.0,0.0,0.0,0.0,0.0,0.0,0.0,0.0,0.0,0.0,0.0,0.0,0.0,0.0,0.0,0.0,0.0,0.0,0.0,0.0,0.0,0.0,0.0,0.0,0.0,0.0,0.0,0.0,0.0,0.0,0.0,0.0,0.0,0.0,0.0,0.0,0.0,0.0,0.0,0.0,4.088,4.0552,3.9471,3.7509,3.3721,3.1164,0.0,0.0,0.0,0.0,0.0,0.0,0.0,0.0,0.0,0.0,0.0,0.0,0.0,0.0,0.0,0.0,0.0,0.0,0.0,0.0,0.0,0.0,0.0,0.0,0.0,0.0,0.0,0.0,0.0,0.0,0.0,0.0,0.0,0.0,0.0,0.0,0.0,0.0,0.0,0.0,0.0,0.0,0.0,0.0,0.0,0.0,0.0,0.0,0.0,0.0,0.0,0.0,0.0,0.0,0.0,0.0,0.0,0.0,0.0,0.0,0.0,0.0,0.0,0.0,0.0,0.0,0.0,0.0,0.0,0.0,0.0,0.0,0.0,0.0,0.0,0.0,0.0,0.0,0.0,0.0,0.0,0.0,0.0,0.0,0.0,0.0,0.0,0.0,0.0,0.0,0.0,0.0,0.0,0.0,0.0,0.0,0.0,0.0,0.0,0.0,0.0,0.0,0.0,0.0,0.0,0.0,0.0,0.0,4.0773,4.2713,4.473,4.5076,4.3668,3.82,3.3791,0.0,0.0,0.0,0.0,0.0,0.0,0.0,0.0,0.0,0.0,0.0,0.0,0.0,0.0,0.0,0.0,0.0,0.0,0.0,0.0,0.0,0.0,0.0,0.0,0.0,0.0,0.0,0.0,0.0,0.0,0.0,0.0,0.0,0.0,0.0,0.0,0.0,0.0,0.0,0.0,0.0,0.0,0.0,0.0,0.0,0.0,0.0,0.0,0.0,0.0,0.0,0.0,0.0,0.0,0.0,0.0,0.0,0.0,0.0,0.0,0.0,0.0,0.0,0.0,0.0,0.0,0.0,0.0,0.0,0.0,0.0,0.0,0.0,0.0,0.0,0.0,0.0,0.0,0.0,0.0,0.0,0.0,0.0,0.0,0.0,0.0,0.0,0.0,0.0,0.0,0.0,0.0,0.0,0.0,0.0,0.0,0.0,0.0,0.0,0.0,0.0,0.0,0.0,0.0,0.0,0.0,0.0,0.0,4.2297,4.3391,4.6743,4.8353,4.7894,4.238,3.6156,0.0,0.0,0.0,0.0,0.0,0.0,0.0,0.0,0.0,0.0,0.0,0.0,0.0,0.0,0.0,0.0,0.0,0.0,0.0,0.0,0.0,0.0,0.0,0.0,0.0,0.0,0.0,0.0,0.0,0.0,0.0,0.0,0.0,0.0,0.0,0.0,0.0,0.0,0.0,0.0,0.0,0.0,0.0,0.0,0.0,0.0,0.0,0.0,0.0,0.0,0.0,0.0,0.0,0.0,0.0,0.0,0.0,0.0,0.0,0.0,0.0,0.0,0.0,0.0,0.0,0.0,0.0,0.0,0.0,0.0,0.0,0.0,0.0,0.0,0.0,0.0,0.0,0.0,0.0,0.0,0.0,0.0,0.0,0.0,0.0,0.0,0.0,0.0,0.0,0.0,0.0,0.0,0.0,0.0,0.0,0.0,0.0,0.0,0.0,0.0,0.0,0.0,0.0,0.0,0.0,0.0,0.0,0.0,4.4893,4.6523,4.9175,4.9611,4.7582,4.2241,3.749,0.0,0.0,0.0,0.0,0.0,0.0,0.0,0.0,0.0,0.0,0.0,0.0,0.0,0.0,0.0,0.0,0.0,0.0,0.0,0.0,0.0,0.0,0.0,0.0,0.0,0.0,0.0,0.0,0.0,0.0,0.0,0.0,0.0,0.0,0.0,0.0,0.0,0.0,0.0,0.0,0.0,0.0,0.0,0.0,0.0,0.0,0.0,0.0,3.208,0.0,0.0,0.0,0.0,0.0,0.0,0.0,0.0,0.0,0.0,0.0,0.0,0.0,0.0,0.0,0.0,0.0,0.0,0.0,0.0,0.0,0.0,0.0,0.0,0.0,0.0,0.0,0.0,0.0,0.0,0.0,0.0,0.0,0.0,0.0,0.0,0.0,0.0,0.0,0.0,0.0,0.0,0.0,0.0,0.0,0.0,0.0,0.0,0.0,0.0,0.0,0.0,0.0,0.0,0.0,0.0,0.0,0.0,0.0,4.4105,4.6299,4.8572,4.914,4.7652,4.2631,3.8282,0.0,0.0,0.0,0.0,0.0,0.0,0.0,0.0,0.0,0.0,0.0,0.0,0.0,0.0,0.0,0.0,0.0,0.0,0.0,0.0,0.0,0.0,0.0,0.0,0.0,0.0,0.0,0.0,0.0,0.0,0.0,0.0,0.0,0.0,0.0,0.0,0.0,0.0,0.0,0.0,0.0,0.0,0.0,0.0,0.0,0.0,0.0,0.0,0.0,0.0,0.0,0.0,0.0,0.0,0.0,0.0,0.0,0.0,0.0,0.0,0.0,0.0,0.0,0.0,0.0,0.0,0.0,0.0,0.0,0.0,0.0,0.0,0.0,0.0,0.0,0.0,0.0,0.0,0.0,0.0,0.0,0.0,0.0,0.0,0.0,0.0,0.0,0.0,0.0,0.0,0.0,0.0,0.0,0.0,0.0,0.0,0.0,0.0,0.0,0.0,0.0,0.0,0.0,0.0,0.0,0.0,0.0,4.0195,4.2826,4.5805,4.7661,4.8474,4.8134,4.3232,3.8938,0.0,0.0,0.0,0.0,0.0,0.0,0.0,0.0,0.0,0.0,0.0,0.0,0.0,0.0,0.0,0.0,0.0,0.0,0.0,0.0,0.0,0.0,0.0,0.0,0.0,0.0,0.0,0.0,0.0,0.0,0.0,0.0,0.0,0.0,0.0,0.0,0.0,0.0,0.0,3.095,3.1939,0.0,0.0,0.0,0.0,0.0,0.0,0.0,0.0,3.2326,0.0,0.0,0.0,0.0,0.0,0.0,0.0,0.0,0.0,0.0,0.0,0.0,0.0,0.0,0.0,0.0,0.0,0.0,0.0,0.0,0.0,0.0,0.0,0.0,0.0,0.0,0.0,0.0,0.0,0.0,0.0,0.0,0.0,0.0,0.0,0.0,0.0,0.0,0.0,0.0,0.0,0.0,0.0,0.0,0.0,0.0,0.0,0.0,0.0,0.0,0.0,0.0,0.0,0.0,0.0,0.0,4.2246,4.2381,4.4785,4.9693,5.0181,4.9662,4.8161,4.3624,3.9754,3.67,0.0,0.0,0.0,0.0,0.0,0.0,0.0,0.0,0.0,0.0,0.0,0.0,0.0,0.0,0.0,0.0,0.0,0.0,0.0,0.0,0.0,0.0,0.0,0.0,0.0,0.0,0.0,0.0,0.0,0.0,0.0,0.0,0.0,0.0,0.0,0.0,0.0,0.0,0.0,3.2715,3.3183,0.0,0.0,0.0,0.0,0.0,0.0,0.0,0.0,3.2672,0.0,0.0,0.0,0.0,0.0,0.0,0.0,0.0,0.0,0.0,0.0,0.0,0.0,0.0,0.0,0.0,0.0,0.0,0.0,0.0,0.0,0.0,0.0,0.0,0.0,0.0,0.0,0.0,0.0,0.0,0.0,0.0,0.0,0.0,0.0,0.0,0.0,0.0,0.0,0.0,0.0,0.0,0.0,0.0,0.0,0.0,0.0,0.0,0.0,0.0,0.0,0.0,0.0,0.0,0.0,4.1991,4.3263,4.5626,4.9309,5.003,4.9808,4.8605,4.331,3.9482,0.0,0.0,0.0,0.0,0.0,0.0,0.0,0.0,0.0,0.0,0.0,0.0,0.0,0.0,0.0,0.0,0.0,0.0,0.0,0.0,0.0,0.0,0.0,0.0,0.0,0.0,0.0,0.0,0.0,0.0,0.0,0.0,0.0,0.0,0.0,0.0,0.0,0.0,0.0,0.0,3.4284,3.4808,3.3467,0.0,0.0,0.0,0.0,0.0,0.0,3.4441,3.408,0.0,0.0,0.0,0.0,0.0,0.0,0.0,0.0,0.0,0.0,0.0,0.0,0.0,0.0,0.0,0.0,0.0,0.0,0.0,0.0,0.0,0.0,0.0,0.0,0.0,0.0,0.0,0.0,0.0,0.0,0.0,0.0,0.0,0.0,0.0,0.0,0.0,0.0,0.0,0.0,0.0,0.0,0.0,0.0,0.0,0.0,0.0,0.0,0.0,0.0,0.0,0.0,0.0,0.0,0.0,4.1213,4.3798,4.6285,4.8623,4.961,4.9834,4.9154,4.2866,3.8934,0.0,0.0,0.0,0.0,0.0,0.0,0.0,0.0,0.0,0.0,0.0,0.0,0.0,0.0,0.0,0.0,0.0,0.0,0.0,0.0,0.0,0.0,0.0,0.0,0.0,0.0,0.0,0.0,0.0,0.0,0.0,0.0,0.0,0.0,0.0,0.0,0.0,0.0,0.0,0.0,0.0,3.6328,3.478,3.543,0.0,0.0,0.0,0.0,3.5215,3.6383,0.0,0.0,0.0,0.0,0.0,0.0,0.0,0.0,0.0,0.0,0.0,0.0,0.0,0.0,0.0,0.0,0.0,0.0,0.0,0.0,0.0,0.0,0.0,0.0,0.0,0.0,0.0,0.0,0.0,0.0,0.0,0.0,0.0,0.0,0.0,0.0,0.0,0.0,0.0,0.0,0.0,0.0,0.0,0.0,0.0,0.0,0.0,0.0,0.0,0.0,0.0,0.0,0.0,0.0,0.0,0.0,4.1571,4.4372,4.731,5.0324,5.0618,5.0409,4.9714,4.2657,3.8516,0.0,0.0,0.0,0.0,0.0,0.0,0.0,0.0,0.0,0.0,0.0,0.0,0.0,0.0,0.0,0.0,0.0,0.0,0.0,0.0,0.0,0.0,0.0,0.0,0.0,0.0,0.0,0.0,0.0,0.0,0.0,0.0,0.0,0.0,0.0,0.0,0.0,0.0,0.0,0.0,0.0,3.6999,3.6096,3.6571,3.6969,0.0,0.0,0.0,3.8527,4.0907,0.0,0.0,0.0,0.0,0.0,0.0,0.0,0.0,0.0,0.0,0.0,0.0,0.0,0.0,0.0,0.0,0.0,0.0,0.0,0.0,0.0,0.0,0.0,0.0,0.0,0.0,0.0,0.0,0.0,0.0,0.0,0.0,0.0,0.0,0.0,0.0,0.0,0.0,0.0,0.0,0.0,0.0,0.0,0.0,0.0,0.0,0.0,0.0,0.0,0.0,0.0,0.0,0.0,0.0,0.0,3.9401,4.2288,4.5874,4.8694,5.0712,5.0461,5.0174,4.9871,4.2004,3.7795,0.0,0.0,0.0,0.0,0.0,0.0,0.0,0.0,0.0,0.0,0.0,0.0,0.0,0.0,0.0,0.0,0.0,0.0,0.0,0.0,0.0,0.0,0.0,0.0,0.0,0.0,0.0,0.0,0.0,0.0,0.0,0.0,0.0,0.0,0.0,0.0,0.0,0.0,0.0,0.0,0.0,0.0,3.6613,3.8154,0.0,0.0,0.0,4.007,4.0333,0.0,0.0,0.0,0.0,0.0,0.0,0.0,0.0,0.0,0.0,0.0,0.0,0.0,0.0,0.0,0.0,0.0,0.0,0.0,0.0,0.0,0.0,0.0,0.0,0.0,0.0,0.0,0.0,0.0,0.0,0.0,0.0,0.0,0.0,0.0,0.0,0.0,0.0,0.0,0.0,0.0,0.0,0.0,0.0,0.0,0.0,0.0,0.0,0.0,0.0,0.0,0.0,0.0,0.0,0.0,0.0,0.0,4.2703,4.6925,4.9703,5.0932,5.0278,4.9912,4.9755,4.2082,0.0,0.0,0.0,0.0,0.0,0.0,0.0,0.0,0.0,0.0,0.0,0.0,0.0,0.0,0.0,0.0,0.0,0.0,0.0,0.0,0.0,0.0,0.0,0.0,0.0,0.0,0.0,0.0,0.0,0.0,0.0,0.0,0.0,0.0,0.0,0.0,0.0,0.0,0.0,0.0,0.0,0.0,4.0038,3.7794,4.0411,4.2339,0.0,0.0,4.2791,4.2619,4.436,4.4041,0.0,0.0,0.0,0.0,0.0,0.0,0.0,0.0,0.0,0.0,0.0,0.0,0.0,0.0,0.0,0.0,0.0,0.0,0.0,0.0,0.0,0.0,0.0,0.0,0.0,0.0,0.0,0.0,0.0,0.0,0.0,0.0,0.0,0.0,0.0,0.0,0.0,0.0,0.0,0.0,0.0,0.0,0.0,0.0,0.0,0.0,0.0,0.0,0.0,0.0,0.0,0.0,0.0,0.0,0.0,4.2676,4.6898,4.9912,5.1439,5.0461,4.9912,4.9782,4.3559,3.943,0.0,0.0,0.0,0.0,0.0,0.0,0.0,0.0,0.0,0.0,0.0,0.0,0.0,0.0,0.0,0.0,0.0,0.0,0.0,0.0,0.0,0.0,0.0,0.0,0.0,0.0,0.0,0.0,0.0,0.0,0.0,0.0,0.0,0.0,0.0,0.0,0.0,0.0,0.0,0.0,0.0,4.1899,4.043,4.3667,4.6385,0.0,0.0,4.6963,4.6228,4.9419,4.8984,3.9944,0.0,0.0,0.0,0.0,0.0,0.0,0.0,0.0,0.0,0.0,0.0,0.0,0.0,0.0,0.0,0.0,0.0,0.0,0.0,0.0,0.0,0.0,0.0,0.0,0.0,0.0,0.0,0.0,0.0,0.0,0.0,0.0,0.0,0.0,0.0,0.0,0.0,0.0,0.0,0.0,0.0,0.0,0.0,0.0,0.0,0.0,0.0,0.0,0.0,0.0,0.0,0.0,0.0,4.0819,4.249,4.7178,5.0237,5.1492,5.0472,4.9912,4.9912,4.3729,3.9613,0.0,0.0,0.0,0.0,0.0,0.0,0.0,0.0,0.0,0.0,0.0,0.0,0.0,0.0,0.0,0.0,0.0,0.0,0.0,0.0,0.0,0.0,0.0,0.0,0.0,0.0,0.0,0.0,3.1884,3.2133,3.2744,0.0,0.0,0.0,0.0,0.0,0.0,0.0,0.0,0.0,0.0,4.3482,4.4162,4.6316,0.0,0.0,4.8203,4.7978,4.728,4.7822,4.6378,4.0645,3.9336,0.0,0.0,0.0,0.0,0.0,0.0,0.0,0.0,0.0,0.0,0.0,0.0,0.0,0.0,0.0,0.0,0.0,0.0,0.0,0.0,0.0,0.0,0.0,0.0,0.0,0.0,0.0,0.0,0.0,0.0,0.0,0.0,0.0,0.0,0.0,0.0,0.0,0.0,0.0,0.0,0.0,0.0,0.0,0.0,0.0,0.0,0.0,0.0,0.0,0.0,0.0,0.0,4.0779,4.2404,4.7354,5.0461,5.157,5.0472,4.9912,4.9755,4.4552,4.0658,0.0,0.0,0.0,0.0,0.0,0.0,0.0,0.0,0.0,0.0,0.0,0.0,0.0,0.0,0.0,0.0,0.0,0.0,0.0,0.0,0.0,0.0,0.0,0.0,0.0,0.0,0.0,0.0,3.3391,3.3309,3.3728,0.0,0.0,0.0,0.0,0.0,0.0,0.0,0.0,0.0,0.0,4.5176,4.6151,4.7619,4.8532,4.8317,4.7794,4.7219,4.6798,4.5761,4.3852,4.0461,0.0,0.0,0.0,0.0,0.0,0.0,0.0,0.0,0.0,0.0,0.0,0.0,0.0,0.0,0.0,0.0,0.0,0.0,0.0,0.0,0.0,0.0,0.0,0.0,0.0,0.0,0.0,0.0,0.0,0.0,0.0,0.0,0.0,0.0,0.0,0.0,0.0,0.0,0.0,0.0,0.0,0.0,0.0,0.0,0.0,0.0,0.0,0.0,0.0,0.0,0.0,0.0,0.0,0.0,4.2431,4.734,5.0461,5.1533,5.0472,4.9912,4.9808,4.6433,4.2997,3.9599,0.0,0.0,0.0,0.0,0.0,0.0,0.0,0.0,0.0,0.0,0.0,0.0,0.0,0.0,0.0,0.0,0.0,0.0,0.0,0.0,0.0,0.0,0.0,0.0,0.0,0.0,3.3699,3.3815,3.3909,0.0,0.0,0.0,0.0,0.0,0.0,0.0,0.0,0.0,0.0,4.4141,4.7024,4.5844,4.7342,4.8378,4.7804,4.6028,4.4714,4.4745,4.4107,4.2475,0.0,0.0,0.0,0.0,0.0,0.0,0.0,0.0,0.0,0.0,0.0,0.0,0.0,0.0,0.0,0.0,0.0,0.0,0.0,0.0,0.0,0.0,0.0,0.0,0.0,0.0,0.0,0.0,0.0,0.0,0.0,0.0,0.0,0.0,0.0,0.0,0.0,0.0,0.0,0.0,3.8378,3.8618,0.0,0.0,0.0,0.0,0.0,0.0,0.0,0.0,0.0,0.0,0.0,0.0,4.1181,4.2444,4.731,5.0461,5.1518,5.0472,4.9912,4.9886,4.6511,4.2553,3.8042,0.0,0.0,0.0,0.0,0.0,0.0,0.0,0.0,0.0,0.0,0.0,0.0,0.0,0.0,0.0,0.0,0.0,0.0,0.0,0.0,0.0,0.0,0.0,0.0,0.0,3.3866,0.0,0.0,0.0,0.0,0.0,0.0,0.0,0.0,0.0,0.0,0.0,3.9748,4.2483,4.4421,4.5905,4.6819,4.7496,4.8348,0.0,0.0,0.0,0.0,0.0,0.0,0.0,0.0,0.0,0.0,0.0,0.0,0.0,0.0,4.1305,3.7655,3.7229,3.7472,3.7781,0.0,0.0,0.0,0.0,0.0,0.0,0.0,0.0,0.0,0.0,0.0,0.0,0.0,0.0,0.0,0.0,3.5661,0.0,0.0,0.0,0.0,0.0,0.0,0.0,0.0,3.9546,4.1049,4.1922,4.2527,4.3073,0.0,4.2014,3.9723,0.0,0.0,0.0,0.0,0.0,0.0,0.0,0.0,4.0924,4.2066,4.7181,5.0446,5.1507,5.0487,4.9912,4.9834,4.6145,4.254,3.9195,3.6984,3.4915,0.0,0.0,0.0,0.0,0.0,0.0,0.0,0.0,0.0,0.0,0.0,0.0,0.0,0.0,0.0,0.0,0.0,0.0,0.0,0.0,0.0,0.0,0.0,3.4816,0.0,0.0,0.0,0.0,0.0,0.0,0.0,0.0,0.0,3.9747,3.9874,4.1208,4.4754,4.5475,4.5884,4.648,0.0,0.0,0.0,0.0,0.0,0.0,0.0,4.094,4.0909,4.1681,4.2854,4.4635,4.5771,4.647,4.647,0.0,0.0,4.0382,3.9996,4.0363,4.0386,4.1531,4.2669,4.3113,4.4444,4.573,0.0,0.0,0.0,0.0,0.0,0.0,0.0,0.0,3.88,3.865,0.0,0.0,0.0,0.0,0.0,0.0,0.0,0.0,0.0,0.0,4.3734,4.5525,4.4849,4.629,4.6831,4.6285,4.4747,4.3358,4.2135,3.9739,0.0,0.0,0.0,0.0,0.0,0.0,3.9813,4.165,4.7115,5.0472,5.1533,5.0472,4.986,4.9703,4.5492,4.3101,4.2853,3.9539,3.7571,3.7339,3.519,0.0,0.0,0.0,0.0,0.0,0.0,0.0,0.0,0.0,0.0,0.0,0.0,0.0,0.0,0.0,0.0,0.0,0.0,0.0,0.0,3.6369,0.0,0.0,0.0,0.0,0.0,0.0,0.0,0.0,0.0,0.0,3.9676,4.1249,4.3483,4.6116,0.0,0.0,0.0,0.0,4.6172,4.2571,4.1863,4.1669,4.1098,4.2509,4.3716,4.3778,0.0,0.0,4.7804,4.7291,4.6992,4.687,4.7012,4.6315,4.4817,4.4339,4.4235,4.4343,4.5434,4.6429,4.6689,4.8206,4.9483,4.1585,0.0,0.0,0.0,0.0,4.0804,4.1879,4.2478,4.3542,4.3009,4.1331,4.0615,0.0,0.0,0.0,0.0,0.0,0.0,4.31,4.4082,4.6541,4.7544,4.7365,4.8702,4.9393,4.9443,4.8185,4.6964,4.5782,4.4107,4.0583,3.544,0.0,0.0,0.0,0.0,4.232,4.5065,4.8657,5.0864,5.1586,5.0472,4.9296,4.8065,4.6395,4.4708,4.3049,4.1611,3.9756,3.7438,3.7005,0.0,0.0,0.0,0.0,0.0,0.0,0.0,0.0,0.0,0.0,0.0,0.0,0.0,0.0,0.0,0.0,0.0,0.0,0.0,3.5639,3.6203,3.6087,0.0,0.0,0.0,0.0,0.0,0.0,0.0,0.0,0.0,4.3507,4.3058,4.3035,0.0,0.0,4.3824,4.3248,4.488,4.6275,4.6573,0.0,0.0,0.0,4.6644,4.6059,4.6993,4.9435,5.1394,5.1876,5.1783,5.1671,5.1641,5.1271,5.0641,4.9709,4.7914,4.6751,4.6792,4.8535,5.0092,5.0289,5.2156,5.3972,4.75,4.4258,4.2531,4.2221,4.2972,4.4548,4.5521,4.6123,4.7308,4.6979,4.5542,4.4852,4.3308,4.1194,4.0943,0.0,0.0,0.0,4.5753,4.6767,4.8415,4.9477,5.0042,5.115,5.1871,5.2094,5.0391,4.9399,4.9022,4.6493,4.3472,3.9898,0.0,0.0,3.8048,4.1301,4.4148,4.6489,4.9322,5.1047,5.157,5.0487,4.9311,4.8053,4.7036,4.5834,4.4434,4.318,4.1596,3.9635,3.8584,3.7187,0.0,0.0,0.0,0.0,0.0,0.0,0.0,0.0,0.0,0.0,0.0,3.3141,0.0,0.0,0.0,0.0,3.6546,3.6639,3.622,3.6188,0.0,0.0,0.0,0.0,0.0,0.0,0.0,3.8233,4.1467,4.4347,4.579,4.5649,4.5865,4.7044,4.6644,4.6018,4.5486,0.0,4.8573,4.9015,4.8912,4.9251,5.0482,4.9989,4.9866,5.1179,5.2502,5.3568,5.3999,5.4091,5.4091,5.4029,5.3568,5.3056,5.2922,5.1487,5.0183,4.9794,5.1836,5.3541,5.3345,5.5438,5.7389,5.2912,5.2428,4.8189,4.6726,4.7359,4.8703,4.9146,4.9001,5.0302,5.0493,4.9824,4.9131,4.8457,4.7815,4.7283,0.0,0.0,4.6923,4.8048,4.8067,4.9859,5.1265,5.2365,5.3332,5.3937,5.419,5.1793,5.1056,5.1609,4.7806,4.5954,4.6115,4.3393,4.143,4.0538,4.331,4.5415,4.6722,4.9363,5.0958,5.1439,5.042,4.9625,4.9038,4.7376,4.6475,4.6356,4.4251,4.2997,4.2775,4.0005,3.8538,3.8642,0.0,0.0,0.0,0.0,0.0,0.0,0.0,0.0,0.0,0.0,0.0,0.0,0.0,0.0,0.0,3.7131,0.0,3.7531,3.653,0.0,0.0,0.0,3.7413,3.9151,4.0698,4.1639,4.1639,0.0,0.0,0.0,0.0,5.0726,5.2636,5.2119,5.1076,4.9801,5.1267,5.2102,5.0369,5.0739,5.1201,5.1632,5.276,5.4072,5.5161,5.5199,5.4768,5.4737,5.4572,5.4614,5.4553,5.406,5.3783,5.4479,5.4368,5.4337,5.3056,5.5018,5.6662,5.6065,5.7851,5.9514,5.704,5.685,5.4908,5.2914,5.1155,5.2803,5.3023,5.2306,5.2961,5.3164,5.2908,5.1299,4.9725,4.8267,4.8629,4.8782,4.8913,5.0486,5.1265,5.1422,5.2686,5.2767,5.1869,5.3162,5.3766,5.3699,5.3787,5.3604,5.3097,5.1408,4.96,4.7799,4.6768,4.5488,4.3967,4.4424,4.5963,4.8448,4.9572,5.0174,5.0289,5.0043,4.9442,4.8422,4.7167,4.6278,4.5806,4.446,4.3088,4.1782,4.14,4.0158,3.7801,3.702,0.0,0.0,0.0,0.0,0.0,0.0,0.0,0.0,0.0,3.5577,3.4205,0.0,3.7094,0.0,3.824,3.9241,3.8346,3.8528,0.0,0.0,3.9566,4.0682,4.1402,4.3235,4.4503,4.4495,4.6324,4.8317,5.0236,5.1794,5.3189,5.4304,5.2029,4.9925,4.9353,5.1651,5.3322,5.2964,5.4137,5.535,5.5215,5.5719,5.6077,5.649,5.5899,5.5468,5.5468,5.4595,5.3937,5.3906,5.3395,5.3241,5.3845,5.4326,5.4799,5.5037,5.6804,5.814,5.7494,5.9052,6.0486,5.8889,5.881,5.793,5.6589,5.5123,5.5591,5.5485,5.5013,5.6171,5.651,5.616,5.4862,5.3521,5.2268,5.2034,5.1856,5.18,5.2721,5.2926,5.2554,5.343,5.3186,5.2056,5.3265,5.3731,5.3532,5.4159,5.4398,5.4132,5.3217,5.2067,5.0766,5.0436,4.952,4.7994,4.6568,4.6799,4.8657,4.9494,5.0148,5.0644,5.0174,4.9218,4.7818,4.6559,4.5107,4.3481,4.2838,4.1828,4.0374,4.0523,3.9879,3.8135,3.7276,3.6441,0.0,0.0,0.0,0.0,0.0,0.0,0.0,0.0,0.0,0.0,0.0,3.8803,0.0,0.0,0.0,3.9507,4.0115,4.0569,4.0645,4.1761,4.2833,4.3607,4.5875,4.7372,4.7382,4.9635,5.1652,5.2891,5.3788,5.451,5.5028,5.3374,5.2022,5.1951,5.3705,5.508,5.513,5.6046,5.6674,5.6385,5.6336,5.6096,5.5542,5.5099,5.4718,5.4422,5.3764,5.326,5.3229,5.2964,5.2933,5.3568,5.4245,5.4983,5.6127,5.7586,5.8541,5.8356,5.9606,6.0794,5.9578,5.9447,5.8862,5.8583,5.8427,5.7434,5.7033,5.7153,5.8866,5.9229,5.8625,5.8337,5.77,5.6795,5.5708,5.4566,5.3489,5.4113,5.384,5.2909,5.353,5.3556,5.3102,5.3876,5.4187,5.408,5.4219,5.4607,5.5176,5.418,5.363,5.3593,5.3299,5.2537,5.123,4.8878,4.787,4.8317,4.9442,5.0409,5.1115,5.0043,4.859,4.6799,4.5291,4.323,4.0587,4.0281,3.9702,3.8678,3.8463,3.8609,3.9063,3.7287,3.6927,0.0,3.7544,0.0,0.0,0.0,0.0,0.0,0.0,0.0,0.0,4.0235,4.0897,4.0487,4.1467,4.1854,4.1221,4.1814,4.2672,4.3707,4.4006,4.4622,4.6028,4.8399,4.9988,4.9972,5.3151,5.5078,5.4365,5.4675,5.4857,5.4586,5.4741,5.4658,5.4881,5.5791,5.6644,5.6785,5.6785,5.6613,5.6096,5.5819,5.5407,5.441,5.4133,5.3629,5.3241,5.2983,5.2872,5.2872,5.2902,5.3118,5.3826,5.446,5.5272,5.6496,5.774,5.8664,5.8959,5.987,6.0732,6.0509,6.0013,5.9455,5.8959,5.8479,5.827,5.8183,5.8174,5.8146,5.7809,5.7375,5.8299,5.756,5.5624,5.5823,5.4997,5.3507,5.4922,5.5236,5.4654,5.5674,5.6118,5.5978,5.6008,5.6385,5.6967,5.6154,5.6147,5.6961,5.5282,5.3794,5.2516,5.2135,5.1126,0.0,0.0,0.0,0.0,5.0069,5.0054,4.8866,4.7742,4.6095,4.3885,4.216,0.0,3.9123,3.7748,3.6895,3.6675,3.6604,0.0,0.0,0.0,0.0,0.0,0.0,0.0,0.0,0.0,0.0,0.0,4.3341,4.243,3.9826,4.0341,4.1673,4.3651,4.446,4.4797,4.4674,4.5249,4.5536,4.5299,4.6213,4.7373,4.8789,5.0348,5.1372,5.1593,5.2713,5.3358,5.3044,5.3337,5.3384,5.2844,5.3974,5.4629,5.3935,5.5565,5.6749,5.6785,5.6785,5.6736,5.6613,5.6077,5.5881,5.5923,5.518,5.4522,5.4245,5.3783,5.3476,5.3445,5.3506,5.3887,5.5037,5.5438,5.5684,5.6644,5.7444,5.8325,5.939,6.0252,6.0794,6.1189,0.0,6.0039,5.962,0.0,5.9072,5.8959,5.8942,5.9068,5.9214,5.9289,5.8666,5.7693,5.6519,5.6163,5.5508,5.468,5.5814,5.6196,5.5987,5.6536,5.6641,5.6353,5.6624,5.7003,5.7427,5.7017,5.7126,5.7618,5.6541,5.5478,5.4472,5.4266,5.3583,5.2485,5.2459,5.1753,5.0342,5.0644,5.0644,5.0289,4.8919,4.7062,4.4814,0.0,0.0,0.0,0.0,0.0,0.0,0.0,0.0,0.0,0.0,0.0,4.2714,4.3988,4.4919,4.5422,4.5867,4.6273,4.6661,4.7051,4.6123,4.3447,4.3806,4.4716,4.6053,4.6715,4.7229,4.7598,4.8214,4.8635,4.8635,4.922,4.9838,5.0388,5.1531,5.2153,5.1873,5.259,5.311,5.293,5.2629,5.2897,5.3279,5.3844,5.4501,5.5077,5.6029,5.6773,5.6785,5.6785,5.6674,5.6354,5.6354,5.6004,5.5819,5.5438,5.4964,5.4306,5.3937,5.3599,5.3302,5.321,5.3629,5.4841,5.4933,5.5234,5.6798,5.729,5.7783,5.9021,5.9821,6.0301,6.1633,6.1066,6.0569,6.0308,6.0151,5.9657,5.9343,5.9284,0.0,0.0,0.0,5.882,5.7786,5.7639,5.6652,5.617,5.6101,5.6798,5.7042,5.6954,5.7042,5.6833,5.6413,5.6994,5.7323,5.737,5.7484,5.7682,5.7921,5.745,5.7072,5.6815,5.6806,5.6562,5.6049,5.5517,5.4288,5.2433,5.1518,5.1413,5.1988,5.042,4.8433,4.6095,4.4281,4.2046,3.935,3.8257,3.7663,3.7547,3.7389,3.776,3.8756,4.0509,4.2095,4.3464,4.5755,4.7742,4.9233,4.9792,5.0154,5.04,5.0523,4.9714,4.7729,4.7916,4.8255,4.8471,4.8994,4.9609,5.0328,5.0882,5.1405,5.1836,5.1898,5.1711,5.1473,5.2187,5.2459,5.174,5.219,5.2759,5.264,5.2035,5.2236,5.3918,5.4025,5.4399,5.6256,5.6725,5.6785,5.6785,5.6631,5.6385,5.6139,5.6034,5.6034,5.5438,5.553,5.5253,5.4379,5.3949,5.3672,5.3333,5.2995,5.3445,5.4399,5.4368,5.4687,5.6835,5.6939,5.697,5.814,5.8959,5.9421,6.1633,6.1092,6.1013,6.0674,6.0151,5.9612,5.9089,5.8627,5.8761,5.8596,5.826,5.7911,5.7448,5.6967,5.7293,5.7155,5.6771,5.7773,5.8,0.0,5.8052,5.8217,5.8148,5.8354,5.858,5.8761,5.816,5.7957,5.8048,5.7318,5.6832,5.6824,5.6806,5.6754,5.6641,5.6075,5.5621,5.5282,5.3295,5.1612,5.0304,4.9076,4.7089,4.4409,4.3546,4.216,4.0277,3.9623,3.9033,3.8536,3.8475,3.9339,4.1268,4.2738,4.4952,4.8103,4.9235,5.0704,5.2742,5.1999,5.1917,5.3045,5.366,5.2902,5.0432,5.0215,5.0759,5.1794,5.1948,5.2399,5.3045,5.3148,5.2983,5.2592,5.2553,5.2585,5.2522,5.2354,5.2077,5.1566,5.0859,5.0501,5.0671,5.0861,5.1358,5.2316,5.3893,5.5341,5.6403,5.6785,5.6785,5.6705,5.6262,5.6139,5.6139,5.5592,5.5499,5.6385,5.6004,5.5696,5.5315,5.4829,5.4429,5.4356,5.3783,5.3814,5.4522,5.4645,5.4706,5.5334,5.5592,5.6158,5.6939,5.7586,5.8202,6.2104,6.1626,6.1581,6.1424,6.1136,6.0561,5.9822,5.9011,5.8985,5.8671,5.8104,5.7852,5.7538,5.7312,5.759,5.7564,5.7338,5.8157,5.8392,5.8174,5.8392,5.8629,5.8788,5.8568,5.8768,5.9271,5.8476,5.8284,5.8595,5.8018,5.7721,5.7695,5.7425,5.7285,5.7233,5.6693,5.6362,5.6336,5.4429,5.3034,5.225,5.11,4.9599,4.7704,4.6787,4.5506,4.3755,4.2866,4.2252,4.1965,4.2264,4.3034,4.4357,4.6682,4.8799,5.0431,5.1913,5.3158,5.4172,5.366,5.3753,5.4699,5.5057,5.4749,5.3529,5.2718,5.2606,5.3179,5.2922,5.2995,5.3641,5.3702,5.3342,5.2518,5.2744,5.2516,5.1495,5.1123,5.0789,5.0323,4.9802,4.9611,4.9958,5.074,5.1647,5.2602,5.4578,5.6189,5.6663,5.6127,5.5684,5.5622,5.5364,5.5161,5.5172,5.4964,5.5149,5.6065,5.6262,5.6108,5.5788,5.5137,5.4602,5.4214,5.3629,5.3476,5.4029,5.3845,5.3937,5.4676,5.4891,5.5334,5.5641,5.593,5.6589,6.2555,6.2175,6.2044,6.1932,6.1756,6.1319,6.0457,5.9421,5.9395,5.9063,5.8497,5.807,5.7878,5.7878,5.7878,5.7878,5.793,5.8314,5.8505,5.8505,5.8505,5.8682,5.892,5.856,5.8744,5.9227,5.87,5.8604,5.8877,5.8647,5.8505,5.8453,5.807,5.7878,5.7861,5.7294,5.7007,5.6902,5.5395,5.4524,5.4393,5.353,5.2433,5.1037,5.0106,4.8919,4.7324,4.6423,4.5886,4.573,4.6263,4.6749,4.7261,4.9868,5.1555,5.1873,5.3326,5.4387,5.4706,5.5014,5.5395,5.5892,5.5942,5.5881,5.5665,5.4945,5.4226,5.3906,5.3333,5.321,5.378,5.3695,5.3261,5.254,5.2616,5.2016,5.0292,4.9788,4.9482,4.8995,4.8694,4.8775,4.9717,5.0671,5.1888,5.3623,5.5407,5.6467,5.6416,5.5364,5.4491,5.4091,5.4029,5.3999,5.366,5.3783,5.4226,5.4914,5.5542,5.5634,5.5376,5.4995,5.4706,5.4276,5.3702,5.3445,5.3599,5.3353,5.3383,5.4018,5.4276,5.4553,5.4799,5.4829,5.5272,6.2745,6.266,6.2201,6.1659,6.1222,6.1144,6.0483,5.95,5.9395,5.9063,5.8523,5.8427,5.84,5.8427,5.84,5.84,5.84,5.8479,5.8505,5.8505,5.8505,5.8523,5.8629,5.8877,5.8877,5.8717,5.885,5.8789,5.8611,5.854,5.8505,5.8505,5.8453,5.8418,5.8366,5.7887,5.7617,5.759,5.6379,5.55,5.5046,5.4916,5.3792,5.157,5.1439,5.0812,4.9572,4.9479,4.918,4.8798,4.9171,4.9417,4.9418,5.0602,5.1738,5.2601,5.2868,5.3395,5.4598,5.5911,5.6534,5.6674,5.665,5.6385,5.5819,5.617,5.5911,5.4733,5.3933,5.3906,5.4421,5.3769,5.3104,5.2639,5.2166,5.124,5.0025,4.9394,4.8882,4.8355,4.7595,4.7364,4.9008,4.9784,5.1348,5.3993,5.4849,5.5447,5.548,5.4441,5.3291,5.2379,5.201,5.2471,5.3076,5.2614,5.2595,5.3025,5.3579,5.4195,5.4553,5.4768,5.4768,5.4503,5.481,5.4233,5.3722,5.361,5.3476,5.3476,5.3722,5.3999,5.4491,5.4583,5.4995,6.2313,6.2313,6.2096,6.1861,6.1652,6.1607,6.0953,5.9908,5.9874,5.9359,5.8557,5.8505,5.8505,5.8505,5.8505,5.8505,5.8505,5.8505,5.8505,5.8505,5.8505,5.8629,5.8841,5.877,5.877,5.8823,5.8788,5.8664,5.854,5.8505,5.8505,5.8505,5.8505,5.8505,5.8479,5.8287,5.8174,5.8148,5.7364,5.6841,5.6544,5.5638,5.4497,5.3321,5.3138,5.2433,5.11,5.089,5.0487,4.976,5.0913,5.1836,5.2169,5.3526,5.4672,5.5357,5.4588,5.4073,5.3977,5.512,5.5794,5.5794,5.6427,5.6477,5.5757,5.5622,5.4906,5.3609,5.3846,5.422,5.3806,5.3357,5.2472,5.112,5.0908,5.0416,4.8598,4.8508,4.842,4.8178,4.7812,4.7839,4.8845,4.9258,5.0367,5.2372,5.3053,5.3422,5.3741,5.2779,5.199,5.159,5.0728,5.0502,5.1579,5.1559,5.1579,5.2379,5.2891,5.3322,5.3845,5.4091,5.4122,5.4041,5.4337,5.4141,5.3199,5.3876,5.4183,5.3845,5.3537,5.3814,5.406,5.3783,5.3856,6.2358,6.2227,6.207,6.201,6.201,6.201,6.1312,6.0282,6.0203,5.955,5.8557,5.8505,5.8505,5.8505,5.8505,5.8505,5.8505,5.8505,5.8505,5.8505,5.8505,5.8664,5.8903,5.8647,5.8664,5.8841,5.8647,5.8505,5.8505,5.8505,5.8505,5.8505,5.8505,5.8505,5.8505,5.8505,5.8505,5.847,5.7965,5.7712,5.7486,5.6318,5.5203,5.4524,5.4288,5.353,5.2171,5.1936,5.1512,5.0828,5.2462,5.3737,5.4469,5.5556,5.6145,5.5925,5.5155,5.4182,5.322,5.4361,5.5102,5.519,5.617,5.6277,5.524,5.4728,5.3686,5.2109,5.2875,5.3098,5.2371,5.1879,5.0689,4.8962,4.9358,4.8873,4.7442,4.7513,4.7717,4.7731,4.7581,4.788,4.8355,4.8967,5.0013,5.0749,5.1273,5.1588,5.2047,5.1374,5.0647,5.1005,4.9671,4.9302,5.0143,5.0174,5.0717,5.1179,5.1548,5.199,5.279,5.2922,5.3506,5.3579,5.3937,5.3864,5.3106,5.3629,5.4276,5.4306,5.406,5.3702,5.3795,5.3168,5.3106,6.328,6.2686,6.2201,6.201,6.201,6.201,6.1338,6.0256,6.0203,5.9576,5.8609,5.8505,5.8505,5.8505,5.8505,5.8505,5.8505,5.8505,5.8505,5.8505,5.8505,5.8505,5.8523,5.8505,5.8523,5.8576,5.854,5.8505,5.8505,5.8505,5.8505,5.8505,5.8505,5.8505,5.8505,5.8505,5.8505,5.847,5.7965,5.7721,5.7643,5.7033,5.6144,5.5203,5.4524,5.3975,5.3321,5.2746,5.2549,5.2844,5.3954,5.4941,5.5531,5.5643,5.4849,5.3076,5.3152,5.3129,5.2765,5.4009,5.4955,5.5114,5.5869,5.5755,5.3675,5.3758,5.2963,5.0874,5.0758,5.057,4.9852,4.9345,4.8622,4.8106,4.7338,4.6979,4.663,4.6889,4.6617,4.6672,4.6768,4.6795,4.6806,4.8898,4.9581,4.9895,5.0707,5.15,5.1309,5.0482,4.9908,4.9682,4.9251,4.8871,4.9507,4.9435,4.9025,4.9455,5.0266,5.0226,5.0759,5.1394,5.2318,5.2995,5.3087,5.3025,5.281,5.2902,5.3291,5.3537,5.3783,5.3702,5.3487,5.3076,5.2983,6.2488,6.2279,6.207,6.201,6.201,6.201,6.1547,6.0734,6.036,5.9777,5.9089,5.8679,5.8505,5.8505,5.8505,5.8505,5.8505,5.8505,5.8505,5.8505,5.8505,5.8505,5.8505,5.8505,5.8505,5.8505,5.8505,5.8505,5.8505,5.8505,5.8505,5.8505,5.8505,5.8505,5.8505,5.8505,5.8505,5.847,5.7965,5.7861,5.8096,5.7294,5.6745,5.6727,5.5804,5.4863,5.3949,5.3713,5.3587,5.3588,5.4172,5.4879,5.5644,5.5912,5.5103,5.3361,5.3309,5.2865,5.1807,5.2712,5.3315,5.3031,5.3987,5.4006,5.2553,5.2251,5.1487,4.954,4.8937,4.8557,4.7999,4.8129,4.8226,4.7515,4.7797,4.765,4.7204,4.7528,4.7839,4.7028,4.6745,4.6555,4.6241,4.6969,4.7661,4.7816,4.8406,4.9148,4.9544,4.924,4.9035,4.8974,4.8809,4.8676,4.8902,4.885,4.8717,4.9035,4.9435,4.96,4.9959,5.0543,5.1394,5.1436,5.1682,5.2021,5.1836,5.2595,5.2902,5.3148,5.3395,5.3549,5.3148,5.2953,5.2933,6.201,6.201,6.201,6.201,6.201,6.201,6.1652,6.1066,6.0465,5.9908,5.9351,5.8758,5.8505,5.8505,5.8505,5.8505,5.8505,5.8505,5.8505,5.8505,5.8505,5.8505,5.8505,5.8505,5.8505,5.8505,5.8505,5.8505,5.8505,5.8505,5.8505,5.8505,5.8505,5.8505,5.8505,5.8505,5.8505,5.8427,5.8131,5.8174,5.8348,5.7747,5.7425,5.7538,5.6893,5.6003,5.4993,5.4574,5.4445,5.4522,5.469,5.508,5.5624,5.5836,5.514,5.3522,5.2943,5.2322,5.1321,5.1749,5.2085,5.1929,5.2743,5.2758,5.1254,5.0976,4.9838,4.817,4.7502,4.7183,4.6902,4.7489,4.7696,4.6947,4.7676,4.7946,4.7001,4.7634,4.7553,4.6706,4.6411,4.602,4.5467,4.6011,4.6398,4.646,4.7076,4.7955,4.8438,4.8583,4.8583,4.8583,4.8625,4.8583,4.8686,4.8655,4.8594,4.8871,4.8994,4.9097,4.922,4.9794,5.0112,5.002,5.0215,5.0647,5.1282,5.2144,5.2606,5.2872,5.3364,5.366,5.3333,5.3025,5.2902,6.1984,6.1939,6.1965,6.1958,6.1932,6.1984,6.1659,6.1066,6.0446,5.9908,5.9351,5.8758,5.8505,5.8505,5.8505,5.8505,5.8505,5.8505,5.8505,5.8505,5.8505,5.8505,5.8505,5.8505,5.8505,5.8505,5.8505,5.8505,5.8505,5.8505,5.8505,5.8505,5.8505,5.8505,5.8505,5.8505,5.8505,5.8479,5.8427,5.8453,5.8505,5.8374,5.8157,5.78,5.7651,5.7248,5.6518,5.5403,5.5099,5.5655,5.57,5.5628,5.54,5.5296,5.4561,5.302,5.2001,5.1512,5.1341,5.1381,5.1683,5.185,5.2774,5.2149,5.0413,4.996,4.909,4.7268,4.6733,4.6575,4.6561,4.6641,4.6563,4.6154,4.6786,4.7054,4.6582,4.6474,4.6301,4.5822,4.5715,4.5261,4.4931,4.5733,4.6486,4.6378,4.7122,4.8145,4.8302,4.8355,4.85,4.8583,4.8583,4.8583,4.8583,4.8583,4.8583,4.8614,4.8686,4.8717,4.8778,4.9148,4.9394,4.9374,4.9251,4.9651,5.0082,5.0974,5.2175,5.2595,5.3179,5.3599,5.3383,5.3045,5.2748,6.1398,6.1398,6.1398,6.1372,6.145,6.1809,6.1678,6.1066,6.0465,5.9908,5.9351,5.8758,5.8505,5.8505,5.8505,5.8505,5.8505,5.8505,5.8505,5.8505,5.8505,5.8505,5.8505,5.8505,5.8505,5.8505,5.8505,5.8505,5.8505,5.8505,5.8505,5.8505,5.8505,5.8505,5.8505,5.8505,5.8505,5.8505,5.8505,5.8505,5.8505,5.8505,5.8418,5.8253,5.8114,5.7996,5.7935,5.6679,5.6143,5.6413,5.6015,5.5512,5.4828,5.416,5.3544,5.303,5.2524,5.1994,5.162,5.1531,5.1334,5.1115,5.1244,5.0711,4.9584,4.9392,4.8735,4.7323,4.7119,4.6997,4.663,4.6509,4.6258,4.5782,4.6746,4.6905,4.5912,4.5658,4.562,4.5595,4.5448,4.5329,4.5427,4.612,4.6135,4.6016,4.6546,4.7032,4.7521,4.7808,4.7967,4.8386,4.849,4.8583,4.8583,4.8583,4.8583,4.8583,4.8583,4.8583,4.8583,4.8614,4.8809,4.884,4.8686,4.8809,4.9209,5.0112,5.1405,5.2194,5.2625,5.2933,5.3168,5.3014,5.2687,6.1222,6.1424,6.1196,6.1249,6.145,6.1861,6.1678,6.1066,6.0465,5.9882,5.9351,5.8758,5.8505,5.8505,5.8505,5.8505,5.8505,5.8505,5.8505,5.8505,5.8505,5.8505,5.8505,5.8505,5.8505,5.8505,5.8505,5.8505,5.8505,5.8505,5.8505,5.8505,5.8505,5.8505,5.8505,5.8505,5.8505,5.8505,5.8505,5.8505,5.8505,5.8505,5.8505,5.8506,5.8526,5.8584,5.862,5.7505,5.7,5.7022,5.6461,5.5483,5.441,5.3782,5.3286,5.2876,5.2417,5.1994,5.1831,5.1546,5.1316,5.0948,5.0886,5.0471,4.9709,4.9412,4.887,4.7676,4.7377,4.7133,4.6631,4.6363,4.61,4.5675,4.657,4.6674,4.5615,4.5334,4.5257,4.5272,4.5126,4.5222,4.5379,4.5868,4.5764,4.5834,4.6293,4.6609,4.7222,4.7533,4.802,4.8407,4.8532,4.8583,4.8583,4.8583,4.8583,4.8583,4.8583,4.8583,4.8583,4.8583,4.8686,4.8717,4.8625,4.8625,4.8994,4.9989,5.1128,5.159,5.2133,5.2625,5.2953,5.2902,5.2595,6.1372,6.1809,6.1275,6.1327,6.1835,6.1939,6.1607,6.0987,6.0439,5.9856,5.9272,5.8732,5.8505,5.8505,5.8505,5.8505,5.8505,5.8505,5.8505,5.8505,5.8505,5.8505,5.8505,5.8505,5.8557,5.8627,5.8531,5.8557,5.8653,5.8531,5.8505,5.8505,5.8505,5.8505,5.8505,5.8505,5.8505,5.8505,5.8505,5.8505,5.8505,5.8505,5.854,5.8576,5.8894,5.9024,5.883,5.812,5.7701,5.7792,5.6762,5.5643,5.4463,5.4031,5.3496,5.2722,5.183,5.1714,5.1782,5.1459,5.1223,5.1526,5.157,5.135,5.0374,5.0077,4.9467,4.8056,4.7744,4.7336,4.6754,4.6392,4.6061,4.5755,4.6047,4.6014,4.5693,4.5532,4.5247,4.4893,4.4735,4.474,4.4864,4.5548,4.5556,4.5603,4.6378,4.6632,4.7183,4.7404,4.8219,4.8511,4.8583,4.8583,4.8583,4.8583,4.8645,4.8994,4.8932,4.8809,4.8655,4.8583,4.8583,4.8583,4.8583,4.8583,4.8902,4.9805,5.0647,5.1282,5.1836,5.2399,5.2502,5.2348,5.2298,6.0517,6.064,6.0491,6.0778,6.1372,6.1809,6.1398,6.0491,6.0308,5.9655,5.8862,5.8583,5.8505,5.8505,5.8505,5.8505,5.8505,5.8505,5.8505,5.8505,5.8505,5.8505,5.8505,5.8505,5.8732,5.9011,5.8732,5.8732,5.9089,5.8732,5.8531,5.8505,5.8505,5.8505,5.8505,5.8505,5.8505,5.8505,5.8505,5.8505,5.8505,5.8523,5.8647,5.8947,5.9281,5.9559,5.9673,5.9018,5.7938,5.6832,5.6522,5.6054,5.5245,5.4295,5.3478,5.29,5.2086,5.1553,5.1647,5.153,5.1514,5.166,5.1745,5.1609,5.139,5.0891,5.0254,4.9386,4.8952,4.8205,4.7391,4.7013,4.6557,4.5742,4.5432,4.5371,4.5455,4.5191,4.4878,4.4747,4.4721,4.4819,4.497,4.4956,4.4974,4.491,4.5179,4.5572,4.6544,4.7173,4.7959,4.8457,4.8614,4.8583,4.8583,4.8583,4.8809,4.9343,4.9374,4.9189,4.8932,4.8625,4.8625,4.8583,4.8583,4.8583,4.8809,4.9404,5.0143,5.0924,5.1282,5.1671,5.159,5.1478,5.1601,6.0203,6.0203,6.0203,6.0525,6.1144,6.173,6.1319,6.036,6.0177,5.955,5.8688,5.8505,5.8505,5.8505,5.8505,5.8505,5.8505,5.8505,5.8505,5.8505,5.8505,5.8505,5.8505,5.8505,5.8706,5.8985,5.8933,5.8959,5.9011,5.8889,5.8758,5.8531,5.8505,5.8505,5.8505,5.8505,5.8505,5.8505,5.8505,5.8505,5.8505,5.8682,5.8841,5.9175,5.9534,5.9807,5.9349,5.8837,5.796,5.694,5.6557,5.6208,5.5564,5.4624,5.3768,5.3212,5.2413,5.1899,5.1627,5.1538,5.1415,5.1459,5.164,5.1851,5.1763,5.1433,5.0999,5.0023,4.9466,4.8572,4.7581,4.6974,4.625,4.5354,4.4898,4.4865,4.5217,4.489,4.4747,4.4721,4.4734,4.4843,4.514,4.4863,4.4732,4.4885,4.5538,4.6047,4.666,4.7148,4.7823,4.8631,4.9055,4.9117,4.8994,4.8932,4.9363,4.9866,4.9848,4.9645,4.9435,4.8994,4.8748,4.8748,4.8655,4.8686,4.8994,4.9281,4.9723,5.0339,5.0667,5.0944,5.1016,5.1355,5.1385,6.0203,6.0203,6.0203,6.0595,6.1222,6.1659,6.1215,6.0334,6.0117,5.9472,5.8662,5.8505,5.8505,5.8505,5.8505,5.8505,5.8505,5.8505,5.8505,5.8505,5.8505,5.8505,5.8505,5.8505,5.8688,5.8915,5.9246,5.9246,5.9228,5.9429,5.9142,5.881,5.8679,5.8531,5.8531,5.8505,5.8505,5.8505,5.8505,5.8505,5.8576,5.8823,5.907,5.9281,5.9927,5.9676,5.8902,5.8334,5.7922,5.7168,5.6807,5.6095,5.5328,5.4843,5.434,5.3608,5.2961,5.2354,5.1816,5.1577,5.1307,5.1268,5.18,5.2167,5.1942,5.1799,5.1392,5.0701,4.9724,4.8843,4.7636,4.6518,4.5754,4.5097,4.4776,4.4721,4.4721,4.4721,4.4721,4.4721,4.4721,4.487,4.5045,4.5114,4.5035,4.4811,4.5574,4.6413,4.7176,4.8062,4.8784,4.957,4.9774,4.9805,4.9589,4.9343,4.9928,5.046,5.0286,5.0131,5.0151,4.9743,4.922,4.9025,4.9363,4.9363,4.9271,4.9528,4.9815,5.0123,5.0708,5.0851,5.0974,5.1559,5.1805,6.0203,6.0203,6.0203,6.0823,6.1652,6.145,6.0901,6.0177,5.9769,5.9176,5.8627,5.8505,5.8523,5.8505,5.854,5.8505,5.8505,5.8505,5.8505,5.8505,5.8505,5.8505,5.8531,5.8557,5.9001,5.9472,5.9482,5.9795,6.0248,6.0039,5.9751,5.9246,5.9089,5.8959,5.8531,5.8505,5.8505,5.8505,5.8505,5.8505,5.8594,5.8938,5.9246,5.9561,6.0256,6.0229,5.964,5.9211,5.8321,5.7092,5.6251,5.5606,5.502,5.4782,5.4511,5.4073,5.3504,5.2903,5.2365,5.196,5.1784,5.1439,5.1448,5.1814,5.2447,5.1988,5.1934,5.1759,5.1135,4.964,4.8039,4.732,4.6364,4.5442,4.4895,4.4747,4.4721,4.4721,4.4721,4.4721,4.4695,4.4735,4.479,4.4856,4.4833,4.4863,4.5676,4.6665,4.7767,4.8913,4.9707,5.0479,5.0482,5.0482,5.0451,5.0297,5.0697,5.1076,5.0911,5.0909,5.0894,5.0665,5.0202,5.0142,5.0308,5.0174,4.9825,5.004,5.0389,5.0585,5.0739,5.0882,5.119,5.1744,5.2164,6.0308,5.9882,6.0386,6.1006,6.1495,6.1222,6.0734,6.0151,5.9612,5.9063,5.8637,5.8682,5.8682,5.854,5.87,5.87,5.8523,5.8505,5.8679,5.8784,5.8706,5.8792,5.9184,5.9045,5.9281,5.9803,6.0161,6.0483,6.0569,6.0621,6.0195,5.9447,5.9395,5.9037,5.8583,5.8505,5.8505,5.8505,5.8505,5.8505,5.8576,5.9052,5.9675,6.0065,6.0566,6.0528,5.9897,5.918,5.8057,5.6737,5.5739,5.5123,5.4835,5.4807,5.4784,5.4573,5.3818,5.3164,5.259,5.1761,5.1149,5.0972,5.0883,5.126,5.1659,5.1515,5.1705,5.1922,5.135,5.0179,4.8636,4.8027,4.7095,4.5796,4.5236,4.5022,4.4799,4.4721,4.4721,4.4721,4.4721,4.4721,4.4721,4.4721,4.4898,4.5048,4.6717,4.7737,4.8737,4.9816,5.0627,5.119,5.1166,5.119,5.1251,5.1313,5.1528,5.173,5.1679,5.1807,5.1924,5.1636,5.1263,5.1091,5.0828,5.0667,5.042,5.0697,5.0799,5.079,5.0882,5.1036,5.1394,5.201,5.2318,6.0457,5.9743,6.0718,6.1092,6.1092,6.0969,6.0595,6.0039,5.949,5.8968,5.8725,5.8947,5.8876,5.8735,5.8929,5.8859,5.8594,5.8531,5.8732,5.9194,5.8915,5.9176,5.9647,5.9743,5.9691,5.9665,6.0483,6.0804,6.083,6.0857,6.064,5.9743,5.9534,5.9176,5.8662,5.8505,5.8505,5.8505,5.8505,5.8576,5.8717,5.9263,5.9909,6.0549,6.0721,6.0531,5.9934,5.9126,5.7919,5.6348,5.537,5.481,5.4596,5.48,5.5072,5.502,5.4236,5.3609,5.2947,5.1876,5.1039,5.0457,5.0717,5.0914,5.1146,5.1394,5.1678,5.1786,5.1594,5.0864,4.9334,4.8729,4.7553,4.6183,4.5623,4.5269,4.4956,4.4773,4.4721,4.4721,4.4721,4.4721,4.4721,4.4734,4.4979,4.5542,4.7241,4.8729,4.9686,5.0615,5.1345,5.1843,5.1842,5.1856,5.1929,5.1898,5.2144,5.2072,5.2127,5.2174,5.2305,5.1653,5.1114,5.1275,5.11,5.1019,5.1061,5.1254,5.1265,5.1085,5.1313,5.1744,5.2082,5.2348,5.2471,6.0517,6.083,6.1013,6.1092,6.1013,6.0569,6.0065,5.9482,5.8959,5.8805,5.9008,5.907,5.9105,5.9,5.9035,5.8876,5.8594,5.8531,5.8836,5.9351,5.9246,5.9482,5.99,6.0405,6.0457,6.0334,6.083,6.1293,6.1573,6.173,6.1084,6.0274,6.0039,5.9568,5.8766,5.8505,5.8505,5.8505,5.8505,5.8629,5.8912,5.9368,5.9979,6.0669,6.0755,6.052,6.0156,5.9579,5.848,5.6672,5.5969,5.498,5.4177,5.419,5.455,5.4837,5.4707,5.4131,5.3674,5.3208,5.2616,5.2345,5.2179,5.194,5.1826,5.1961,5.2112,5.2383,5.2543,5.1998,4.94,4.9062,4.8138,4.6738,4.5544,4.5073,4.5191,4.4982,4.4721,4.4721,4.4721,4.4721,4.4721,4.4844,4.5234,4.5914,4.7318,4.8882,5.0066,5.101,5.1888,5.2278,5.2522,5.2533,5.2564,5.2502,5.2511,5.2266,5.2161,5.1892,5.1766,5.1116,5.0835,5.1307,5.1645,5.1756,5.184,5.1868,5.1938,5.1915,5.2214,5.2502,5.2533,5.2533,5.2595,6.083,6.1118,6.1443,6.1398,6.1013,6.0465,5.9908,5.9405,5.8997,5.8912,5.9158,5.9456,5.9421,5.9228,5.9316,5.9052,5.8629,5.8505,5.8975,5.9594,5.956,5.9997,6.0475,6.1058,6.1136,6.1189,6.145,6.1678,6.1984,6.1984,6.1319,6.0483,6.0203,5.9629,5.8766,5.8505,5.8505,5.8505,5.8523,5.8594,5.8859,5.9289,6.0013,6.0532,6.0601,6.0411,6.0143,5.9613,5.8769,5.7487,5.6427,5.5394,5.4524,5.3949,5.4053,5.4429,5.4419,5.4314,5.4125,5.3715,5.3165,5.2726,5.2954,5.2516,5.1868,5.1759,5.2233,5.2395,5.2694,5.2173,4.9852,4.9607,4.8428,4.6563,4.5466,4.5217,4.5113,4.4864,4.4799,4.4747,4.4747,4.4747,4.4721,4.4979,4.5435,4.6374,4.7536,4.8915,5.0395,5.1344,5.2257,5.2473,5.2687,5.2687,5.2718,5.2718,5.2718,5.2484,5.2223,5.1953,5.1727,5.1309,5.1379,5.1778,5.2067,5.2212,5.2344,5.234,5.2538,5.2631,5.2535,5.2493,5.2622,5.2687,5.2608,6.1092,6.1144,6.1607,6.1416,6.0744,6.023,5.9717,5.9266,5.9122,5.9123,5.9281,5.9735,5.9718,5.9377,5.936,5.9219,5.8679,5.8792,5.9498,6.0125,6.0065,6.058,6.1286,6.1599,6.1424,6.1502,6.1861,6.201,6.201,6.201,6.1364,6.0744,6.0412,5.9811,5.8967,5.8784,5.8679,5.8505,5.8505,5.8514,5.8701,5.9306,5.9916,6.0475,6.0296,6.0143,5.9857,5.9438,5.8771,5.7806,5.6707,5.5569,5.4863,5.3844,5.3452,5.3739,5.3609,5.3913,5.4246,5.4186,5.3867,5.365,5.3905,5.3137,5.2043,5.1863,5.1804,5.1942,5.2175,5.1818,5.0108,4.9849,4.8685,4.6997,4.5963,4.5505,4.5322,4.5113,4.4904,4.4852,4.4825,4.4825,4.4825,4.4938,4.5368,4.6764,4.7968,4.9362,5.0716,5.157,5.2329,5.2552,5.2687,5.2687,5.2718,5.2718,5.2718,5.2619,5.2337,5.2044,5.1953,5.1803,5.1953,5.2029,5.2158,5.2295,5.2529,5.2642,5.2608,5.2563,5.2495,5.2507,5.2608,5.2439,5.2204,6.1092,6.1092,6.117,6.0588,5.9691,5.9534,5.915,5.8733,5.8982,5.9263,5.9456,5.9675,5.9736,5.9616,5.949,5.9398,5.9421,5.9681,6.0177,6.0752,6.0778,6.0901,6.1301,6.1756,6.1555,6.1581,6.1835,6.1984,6.201,6.201,6.1626,6.1006,6.07,6.0378,5.915,5.9037,5.9011,5.8583,5.8523,5.8587,5.8829,5.959,5.9822,5.9825,5.9874,5.9865,5.9394,5.907,5.8631,5.7826,5.664,5.5438,5.4383,5.3217,5.272,5.2955,5.3537,5.4472,5.4961,5.494,5.481,5.4862,5.5467,5.4886,5.344,5.1939,5.162,5.22,5.2044,5.1183,4.9902,4.9558,4.8849,4.7729,4.6355,4.6159,4.595,4.5623,4.5388,4.5283,4.5362,4.5153,4.5022,4.5124,4.5422,4.6932,4.8408,4.9691,5.0993,5.1807,5.2386,5.2608,5.2718,5.2718,5.2718,5.2718,5.2718,5.2718,5.2394,5.2132,5.2067,5.1998,5.1987,5.2067,5.2227,5.234,5.2507,5.2552,5.2529,5.2424,5.2334,5.2409,5.2574,5.2238,5.1779,6.0595,6.0595,6.0595,6.0143,5.9447,5.9395,5.9063,5.8725,5.9123,5.9333,5.9501,6.0188,6.0385,6.019,5.9994,5.9874,5.9908,6.0125,6.0525,6.0995,6.1144,6.1293,6.1607,6.1861,6.1782,6.1756,6.1835,6.1984,6.201,6.1906,6.1555,6.0771,6.0569,5.9942,5.9255,5.8941,5.8758,5.8628,5.8709,5.8973,5.926,5.9601,5.9845,5.9766,5.9645,5.9412,5.9105,5.8491,5.8368,5.7834,5.7033,5.5883,5.4863,5.3922,5.3269,5.2537,5.2903,5.3614,5.4394,5.4962,5.5125,5.5291,5.5724,5.5664,5.408,5.2359,5.1371,5.1879,5.1201,5.0256,4.937,4.9074,4.8294,4.7426,4.6682,4.6525,4.6409,4.6304,4.6055,4.5976,4.5858,4.5701,4.5467,4.5318,4.5634,4.6783,4.7923,4.8931,5.049,5.1918,5.2352,5.2653,5.2718,5.2718,5.2718,5.2718,5.2718,5.265,5.2303,5.212,5.2136,5.2113,5.2063,5.212,5.2249,5.2363,5.2439,5.2541,5.2605,5.2379,5.2122,5.2291,5.2398,5.172,5.15,5.9785,5.9785,5.9942,5.9673,5.9212,5.9275,5.9075,5.8779,5.9456,5.9561,5.9545,6.0278,6.0678,6.066,6.048,6.0439,6.0439,6.0569,6.0883,6.1196,6.1372,6.1599,6.1853,6.201,6.201,6.201,6.1958,6.201,6.201,6.1932,6.1547,6.0692,6.0927,6.0256,5.9516,5.9333,5.9289,5.8846,5.8981,5.907,5.9182,5.9367,5.9488,5.9462,5.9315,5.9061,5.8833,5.821,5.7983,5.7913,5.7085,5.5935,5.5072,5.421,5.353,5.2877,5.2825,5.3047,5.3888,5.4531,5.4794,5.5061,5.536,5.573,5.488,5.2724,5.133,5.1918,5.0986,4.9899,4.891,4.8705,4.8353,4.7657,4.6891,4.6761,4.6682,4.6682,4.6552,4.633,4.629,4.6447,4.6161,4.5693,4.598,4.6791,4.756,4.8387,4.9897,5.1692,5.2158,5.2427,5.2642,5.2653,5.2718,5.2718,5.2718,5.2658,5.2341,5.2261,5.2394,5.2257,5.2074,5.217,5.2322,5.2192,5.2148,5.2409,5.2624,5.2236,5.1963,5.2171,5.206,5.1482,5.1708,5.8609,5.8662,5.9246,5.9124,5.8619,5.8947,5.9088,5.907,5.9813,5.9936,5.9748,5.9943,6.0281,6.041,6.0886,6.104,6.104,6.1626,6.1756,6.1835,6.1939,6.1932,6.201,6.201,6.201,6.201,6.201,6.201,6.201,6.201,6.1913,6.1861,6.1469,6.1319,6.0778,6.0177,5.983,5.9344,5.9175,5.885,5.8805,5.8858,5.8973,5.8708,5.8832,5.8929,5.8567,5.8026,5.7739,5.7826,5.685,5.5866,5.5141,5.4341,5.3671,5.3217,5.2851,5.3073,5.3718,5.4396,5.4881,5.5129,5.5273,5.5438,5.5191,5.3848,5.2832,5.2046,5.1075,4.9951,4.9086,4.8597,4.8533,4.8007,4.744,4.7295,4.7269,4.7269,4.7086,4.6775,4.6789,4.705,4.7302,4.6928,4.6677,4.7395,4.8245,4.9051,4.9849,5.1279,5.1727,5.209,5.2473,5.2608,5.2706,5.2718,5.2779,5.2835,5.2711,5.2714,5.2839,5.2578,5.2227,5.2297,5.2443,5.2127,5.1926,5.2382,5.2507,5.1953,5.1725,5.1722,5.2538,5.2874,5.323,5.8732,5.9037,5.8915,5.8706,5.8514,5.8929,5.9132,5.9211,5.9892,6.0452,6.0669,6.0686,6.0873,6.1252,6.1469,6.1652,6.1678,6.1853,6.1984,6.201,6.201,6.201,6.201,6.201,6.201,6.201,6.201,6.201,6.201,6.201,6.201,6.1932,6.1704,6.1066,6.0674,6.0423,5.9892,5.959,5.9218,5.8938,5.892,5.8903,5.8982,5.885,5.8578,5.87,5.8462,5.7983,5.7773,5.7486,5.6841,5.604,5.5282,5.4628,5.4079,5.3609,5.3243,5.335,5.3688,5.4323,5.4904,5.5211,5.5014,5.4698,5.5017,5.3822,5.2812,5.1988,5.1286,5.0278,4.9206,4.896,4.8814,4.8344,4.8068,4.7948,4.7844,4.787,4.7792,4.7533,4.7628,4.7841,4.812,4.8297,4.8056,4.8042,4.8871,4.9625,5.015,5.0946,5.1479,5.1787,5.2139,5.2663,5.2796,5.2818,5.286,5.2977,5.3059,5.3311,5.3411,5.2844,5.2575,5.2612,5.2444,5.2085,5.2029,5.2443,5.2377,5.1898,5.141,5.1034,5.2204,5.3879,5.4534,5.8758,5.9063,5.8679,5.8576,5.8717,5.907,5.9342,5.9535,6.021,6.0712,6.1199,6.0994,6.1058,6.1443,6.1887,6.1809,6.1756,6.1861,6.1984,6.201,6.201,6.201,6.201,6.201,6.201,6.201,6.201,6.201,6.201,6.201,6.201,6.1809,6.1424,6.0961,6.0841,6.014,5.9765,5.959,5.9271,5.8991,5.8947,5.8701,5.8789,5.8736,5.8481,5.8419,5.8305,5.8017,5.7747,5.7433,5.6945,5.6275,5.5674,5.5125,5.4628,5.421,5.3854,5.3792,5.4171,5.4285,5.4781,5.4896,5.4633,5.4223,5.3896,5.3599,5.2889,5.181,5.135,5.0854,4.9782,4.986,4.9819,4.9505,4.9008,4.8826,4.859,4.8512,4.8448,4.8344,4.8434,4.8529,4.9548,4.9858,4.9767,4.9661,5.0183,5.0092,4.9227,5.0196,5.1495,5.1681,5.1839,5.2402,5.2915,5.3058,5.3242,5.3464,5.3599,5.3999,5.3976,5.3344,5.2726,5.2543,5.2301,5.1996,5.1762,5.1626,5.175,5.1877,5.1844,5.2128,5.3134,5.4797,5.5305,5.8523,5.8505,5.8523,5.8753,5.9096,5.9412,5.977,6.0084,6.0681,6.0918,6.0839,6.0498,6.0439,6.0771,6.1678,6.1756,6.1555,6.1809,6.201,6.201,6.201,6.201,6.201,6.201,6.201,6.201,6.201,6.201,6.201,6.201,6.201,6.1906,6.1529,6.1267,6.1768,6.1111,6.0549,6.0103,5.9411,5.8911,5.856,5.8175,5.8201,5.8289,5.8096,5.8061,5.8148,5.807,5.7852,5.7564,5.685,5.6458,5.6432,5.5282,5.5046,5.5578,5.4742,5.4863,5.5638,5.4802,5.4625,5.457,5.4383,5.4096,5.3651,5.3364,5.3024,5.2014,5.1962,5.1701,5.1309,5.0995,5.0734,5.042,4.9871,4.9479,4.9232,4.9285,4.9259,4.9202,4.9027,4.9156,5.0575,5.1469,5.1465,5.1533,5.174,5.0981,4.9589,5.0074,5.1673,5.1554,5.1607,5.1929,5.2517,5.3261,5.3603,5.3837,5.4175,5.4566,5.4373,5.3642,5.3102,5.2592,5.2082,5.1689,5.1061,5.049,5.1291,5.2291,5.357,5.4204,5.4982,5.5524,5.5963,5.8429,5.8342,5.8736,5.9025,5.9246,5.9488,5.984,6.0215,6.0542,6.074,6.0811,6.076,6.1084,6.1469,6.1652,6.1861,6.1756,6.1782,6.201,6.201,6.201,6.201,6.201,6.201,6.201,6.201,6.201,6.201,6.201,6.201,6.201,6.1906,6.1652,6.1346,6.0807,6.0202,5.9755,5.9552,5.9066,5.8629,5.8444,5.8017,5.7773,5.7991,5.7773,5.7721,5.7965,5.7913,5.7913,5.7721,5.6998,5.6954,5.6928,5.5909,5.6066,5.6441,5.5918,5.6066,5.6405,5.6013,5.5569,5.502,5.4497,5.4236,5.3949,5.3922,5.3269,5.2537,5.2406,5.2067,5.157,5.1073,5.0786,5.0629,5.0211,4.9912,4.9729,5.0058,5.0178,5.0131,4.9991,5.0342,5.1333,5.2291,5.2512,5.2788,5.297,5.2279,5.1021,5.1372,5.243,5.1684,5.1466,5.1664,5.2075,5.2828,5.3596,5.3946,5.4507,5.5161,5.4722,5.4047,5.3246,5.2667,5.198,5.1318,5.0905,5.0782,5.1815,5.2922,5.4038,5.4904,5.5323,5.5863,5.6451,5.8,5.7936,5.8444,5.8921,5.9312,5.9659,6.0007,6.03,6.0429,6.0544,6.0638,6.0923,6.111,6.1416,6.1782,6.1809,6.1756,6.1939,6.201,6.201,6.201,6.201,6.201,6.201,6.201,6.201,6.201,6.201,6.201,6.201,6.188,6.1704,6.1678,6.0927,6.0266,5.9787,5.9657,5.9403,5.8916,5.854,5.827,5.7895,5.7486,5.7538,5.7381,5.7146,5.7416,5.7678,5.7869,5.7669,5.7486,5.7442,5.7242,5.7033,5.6981,5.7007,5.7111,5.6798,5.6301,5.6624,5.6066,5.5465,5.4994,5.4602,5.4324,5.4158,5.3504,5.2903,5.272,5.2406,5.1962,5.1439,5.1413,5.1282,5.0983,5.0684,5.0507,5.0837,5.0795,5.0759,5.0827,5.1319,5.1893,5.2782,5.3433,5.3778,5.4132,5.3224,5.2306,5.2339,5.2502,5.1884,5.1244,5.127,5.171,5.2436,5.3213,5.398,5.4647,5.528,5.5373,5.4739,5.3722,5.2672,5.1902,5.128,5.0987,5.121,5.2103,5.3136,5.4251,5.4981,5.5526,5.612,5.6776,5.7285,5.7354,5.7686,5.844,5.9246,5.9747,6.0157,6.0412,6.0376,6.0286,6.0214,6.0763,6.0901,6.0648,6.1476,6.173,6.1476,6.1835,6.1958,6.1958,6.1861,6.1932,6.1958,6.1913,6.1906,6.1984,6.201,6.201,6.201,6.201,6.173,6.1372,6.1319,6.064,6.0091,5.9769,5.9647,5.9168,5.8784,5.8531,5.8322,5.7608,5.7364,5.7233,5.6919,5.6641,5.6771,5.6954,5.7259,5.7233,5.7137,5.7608,5.7686,5.7373,5.7416,5.7486,5.7617,5.6789,5.6013,5.6519,5.6641,5.6196,5.604,5.5334,5.4707,5.4367,5.3661,5.3086,5.2746,5.272,5.2537,5.2589,5.2616,5.2344,5.2014,5.171,5.1438,5.1373,5.1246,5.1209,5.1241,5.1635,5.2282,5.3106,5.3408,5.3756,5.3964,5.4051,5.3059,5.1957,5.2037,5.1887,5.1307,5.0874,5.134,5.2021,5.2562,5.324,5.4309,5.4975,5.5165,5.4893,5.3528,5.2365,5.1706,5.1142,5.0715,5.1182,5.2236,5.3242,5.3994,5.5381,5.6038,5.6397,5.6959,5.7218,5.7196,5.835,5.8722,5.8494,5.8789,5.9255,5.9781,5.9427,5.9343,5.9683,6.0203,6.0595,6.0909,6.1652,6.1782,6.1835,6.1887,6.1984,6.1906,6.1607,6.173,6.173,6.1678,6.1704,6.1906,6.201,6.201,6.201,6.201,6.1984,6.1756,6.1293,6.0621,6.0117,5.9751,5.9307,5.8941,5.8583,5.8531,5.8366,5.7739,5.7468,5.705,5.6719,5.6441,5.6284,5.6562,5.6824,5.6902,5.6902,5.7242,5.773,5.7617,5.7617,5.766,5.7617,5.7259,5.6562,5.6597,5.6798,5.6945,5.7024,5.6501,5.5647,5.4785,5.4079,5.3556,5.2929,5.2772,5.272,5.2772,5.2877,5.2747,5.235,5.1924,5.1736,5.1948,5.1852,5.2036,5.2068,5.2017,5.2678,5.2584,5.2876,5.3304,5.3647,5.3826,5.3675,5.2486,5.2033,5.196,5.1067,5.057,5.0917,5.1567,5.1985,5.2556,5.3614,5.4336,5.4218,5.3736,5.2826,5.2098,5.1486,5.086,5.0256,5.107,5.2141,5.2517,5.3301,5.507,5.6474,5.6574,5.7082,5.674,5.6821,5.7945,5.8211,5.7914,5.7858,5.8195,5.8659,5.8793,5.8964,5.9125,5.9864,6.0517,6.1066,6.145,6.1581,6.1607,6.1835,6.1887,6.1476,6.1222,6.1599,6.1626,6.1476,6.1555,6.1809,6.201,6.201,6.201,6.201,6.1984,6.1932,6.1398,6.0804,6.023,5.9691,5.9116,5.8758,5.8505,5.8505,5.8314,5.7991,5.7521,5.7137,5.685,5.6258,5.5944,5.6232,5.6223,5.6405,5.6458,5.6745,5.7207,5.7312,5.7093,5.7093,5.7155,5.6719,5.6127,5.6249,5.6719,5.7155,5.7364,5.7076,5.6632,5.5909,5.5072,5.4314,5.3452,5.2798,5.2762,5.2736,5.2825,5.2903,5.2402,5.1909,5.2144,5.2473,5.2713,5.2956,5.2889,5.2716,5.2622,5.2382,5.2186,5.238,5.2686,5.3012,5.3093,5.2642,5.2502,5.2589,5.1279,5.021,5.0718,5.1247,5.1683,5.2211,5.2966,5.3444,5.329,5.3134,5.2673,5.2035,5.1359,5.0999,5.0905,5.115,5.1892,5.2366,5.3163,5.4815,5.5956,5.6064,5.6791,5.6099,5.6191,5.6866,5.7363,5.7445,5.7091,5.7032,5.7363,5.8226,5.8631,5.854,5.949,6.0125,6.0465,6.0744,6.0927,6.111,6.139,6.1346,6.1013,6.0797,6.1077,6.145,6.1398,6.1372,6.1756,6.201,6.201,6.201,6.1984,6.1958,6.1913,6.1267,6.0621,6.0013,5.9482,5.8959,5.8627,5.8505,5.8505,5.8374,5.807,5.7695,5.7486,5.6789,5.597,5.5814,5.5605,5.536,5.57,5.5987,5.6258,5.6519,5.6859,5.6562,5.6353,5.6536,5.617,5.5735,5.57,5.6144,5.6536,5.6771,5.7102,5.6972,5.6641,5.5804,5.5072,5.4262,5.3818,5.3713,5.318,5.2981,5.2788,5.2371,5.2025,5.2033,5.2419,5.2829,5.3017,5.304,5.288,5.2818,5.2596,5.2388,5.2012,5.2047,5.2475,5.2489,5.2462,5.2554,5.2792,5.1781,5.0605,5.0705,5.1209,5.1521,5.2048,5.2675,5.3045,5.3215,5.3003,5.2689,5.2085,5.1527,5.1868,5.1957,5.1929,5.2024,5.2765,5.3641,5.4837,5.5407,5.538,5.6648,5.6099,5.6148,5.6606,5.7086,5.7325,5.6356,5.5978,5.6072,5.6461,5.691,5.7294,5.7991,5.8671,5.9255,5.9743,6.0013,6.0405,6.0692,6.0543,6.0326,6.0117,6.0561,6.1032,6.0752,6.1058,6.1704,6.201,6.1932,6.1932,6.1906,6.1704,6.1293,6.0726,6.0169,5.9691,5.9116,5.8706,5.8505,5.8505,5.8505,5.8427,5.8348,5.8157,5.7678,5.6928,5.631,5.6075,5.5814,5.5517,5.5438,5.5752,5.5944,5.6101,5.6545,5.6441,5.6049,5.6023,5.5674,5.5412,5.5308,5.5647,5.6144,5.6536,5.7102,5.7259,5.6981,5.6536,5.5857,5.5308,5.4968,5.4524,5.3792,5.3128,5.2794,5.2329,5.2124,5.1934,5.2384,5.2845,5.2953,5.2998,5.2964,5.2902,5.2784,5.2601,5.2486,5.2448,5.2536,5.2394,5.2305,5.2106,5.2211,5.208,5.1377,5.1298,5.1343,5.1768,5.1961,5.2475,5.2809,5.3132,5.2913,5.2654,5.2193,5.1853,5.2124,5.2178,5.1941,5.2222,5.301,5.328,5.4114,5.4346,5.4341,5.6163,5.5984,5.6115,5.6328,5.6515,5.6471,5.5719,5.5355,5.5401,5.5496,5.5726,5.6153,5.6919,5.7625,5.8157,5.875,5.9063,5.9524,6.0047,6.0039,5.9822,5.9638,6.0039,6.0151,6.0151,6.0439,6.105,6.1495,6.1599,6.1607,6.1529,6.1267,6.07,6.0125,5.9699,5.9317,5.8836,5.8505,5.8505,5.8505,5.8505,5.8505,5.8453,5.8418,5.7895,5.7294,5.6676,5.6362,5.6101,5.5735,5.57,5.6066,5.604,5.6101,5.6205,5.6179,5.5918,5.5683,5.5412,5.5203,5.5151,5.5334,5.583,5.6144,5.6641,5.7538,5.7312,5.7285,5.6684,5.6249,5.5909,5.5438,5.4785,5.4027,5.352,5.2548,5.1868,5.1934,5.2229,5.2584,5.2757,5.2773,5.2757,5.2662,5.2478,5.235,5.2304,5.2357,5.2357,5.224,5.2195,5.1979,5.1833,5.1838,5.2021,5.2057,5.203,5.2158,5.2319,5.2398,5.2904,5.332,5.2961,5.2573,5.2464,5.2356,5.226,5.2233,5.2166,5.2464,5.3169,5.311,5.307,5.3251,5.3664,5.5134,5.5951,5.6205,5.6172,5.5938,5.5581,5.5249,5.5115,5.5099,5.5099,5.5125,5.5265,5.617,5.6893,5.7495,5.7913,5.8131,5.8427,5.8845,5.9098,5.9063,5.9037,5.9307,5.9516,5.9665,6.0031,6.0378,6.0778,6.0935,6.0987,6.0935,6.0692,6.0117,5.9717,5.9369,5.9142,5.8836,5.8505,5.8505,5.8505,5.8505,5.8505,5.8505,5.847,5.8087,5.7538,5.6963,5.6728,5.6493,5.6179,5.5996,5.6249,5.6275,5.6275,5.6232,5.6066,5.5909,5.5631,5.536,5.5125,5.5099,5.536,5.5674,5.584,5.6405,5.7285,5.759,5.7538,5.7355,5.6928,5.6693,5.6223,5.5595,5.4821,5.4079,5.2925,5.1852,5.2013,5.2127,5.2317,5.2538,5.2538,5.2523,5.2415,5.2229,5.2105,5.2059,5.2043,5.2043,5.2048,5.202,5.194,5.1922,5.1962,5.2206,5.2478,5.2573,5.2519,5.2546,5.2696,5.3197,5.3495,5.3224,5.313,5.3212,5.3061,5.2844,5.2763,5.2736,5.3103,5.3456,5.3293,5.3185,5.3402,5.3779,5.4186,5.6524,5.6791,5.6524,5.6119,5.5617,5.5275,5.5099,5.5099,5.5099,5.5099,5.5151,5.5239,5.5726,5.6249,5.6301,5.6624,5.7303,5.7721,5.7512,5.732,5.7965,5.8392,5.8836,5.9246,5.9717,6.0065,6.0282,6.0316,6.0386,6.036,6.0117,5.956,5.9508,5.9142,5.8706,5.8505,5.8505,5.8505,5.8505,5.8505,5.8505,5.8505,5.8505,5.8235,5.7887,5.7625,5.7486,5.7433,5.6771,5.6275,5.617,5.6458,5.6562,5.6615,5.6458,5.617,5.5883,5.5578,5.5438,5.5282,5.5491,5.5621,5.5866,5.6284,5.6945,5.725,5.725,5.7233,5.7007,5.7146,5.6754,5.597,5.5213,5.455,5.3573,5.267,5.2318,5.2197,5.2139,5.2211,5.2204,5.2194,5.2183,5.1981,5.181,5.1778,5.1778,5.1794,5.1941,5.194,5.1996,5.2117,5.2223,5.2173,5.2329,5.2715,5.2763,5.279,5.2913,5.3266,5.351,5.3549,5.3537,5.351,5.3565,5.3456,5.3402,5.3347,5.3537,5.3782,5.3619,5.3537,5.3754,5.3951,5.4336]},{"header":{"parameterUnit":"m.s-1","parameterCategory":1,"la1":31.0,"la2":29.5877,"lo1":-88.7671,"lo2":-86.6584,"dy":0.0162,"dx":0.0185,"nx":115,"ny":88,"refTime":"2023-03-14T18:00:00:Z","depth":0,"parameterNumber":3,"parameterNumberName":"V-component_of_WINDS"},"data":[0.0,0.0,0.0,0.0,0.0,0.0,0.0,0.0,0.0,0.0,0.0,0.0,0.0,0.0,0.0,0.0,0.0,0.0,0.0,0.0,0.0,0.0,0.0,0.0,0.0,0.0,0.0,0.0,0.0,0.0,0.0,0.0,0.0,0.0,0.0,0.0,0.0,0.0,0.0,0.0,0.0,0.0,0.0,0.0,0.0,0.0,0.0,0.0,0.0,0.0,0.0,0.0,0.0,0.0,0.0,0.0,0.0,0.0,0.0,0.0,0.0,0.0,0.0,0.0,0.0,0.0,0.0,0.0,0.0,0.0,0.0,0.0,0.0,0.0,0.0,0.0,0.0,0.0,0.0,0.0,0.0,0.0,0.0,0.0,0.0,0.0,0.0,0.0,0.0,0.0,0.0,0.0,0.0,0.0,0.0,0.0,0.0,0.0,0.0,0.0,0.0,0.0,0.0,0.0,0.0,0.0,0.0,0.0,0.0,0.0,0.0,0.0,0.0,0.0,0.0,0.0,0.0,0.0,0.0,0.0,0.0,0.0,0.0,0.0,0.0,0.0,0.0,0.0,0.0,0.0,0.0,0.0,0.0,0.0,0.0,0.0,0.0,0.0,0.0,0.0,0.0,0.0,0.0,0.0,0.0,0.0,0.0,0.0,0.0,0.0,0.0,0.0,0.0,0.0,0.0,0.0,0.0,0.0,0.0,0.0,0.0,0.0,0.0,0.0,0.0,0.0,0.0,0.0,0.0,0.0,0.0,0.0,0.0,0.0,0.0,0.0,0.0,0.0,0.0,0.0,0.0,0.0,0.0,0.0,0.0,0.0,0.0,0.0,0.0,0.0,0.0,0.0,0.0,0.0,0.0,0.0,0.0,0.0,0.0,0.0,0.0,0.0,0.0,0.0,0.0,0.0,0.0,0.0,0.0,0.0,0.0,0.0,0.0,0.0,0.0,0.0,0.0,0.0,0.0,0.0,0.0,0.0,0.0,0.0,0.0,0.0,0.0,0.0,0.0,0.0,0.0,0.0,0.0,0.0,0.0,0.0,0.0,0.0,0.0,0.0,0.0,0.0,0.0,0.0,0.0,0.0,0.0,0.0,0.0,0.0,0.0,0.0,0.0,0.0,0.0,0.0,0.0,0.0,0.0,0.0,0.0,0.0,0.0,0.0,0.0,0.0,0.0,0.0,0.0,0.0,0.0,0.0,0.0,0.0,0.0,0.0,0.0,0.0,0.0,0.0,0.0,0.0,0.0,0.0,0.0,0.0,0.0,0.0,0.0,0.0,0.0,0.0,0.0,0.0,0.0,0.0,0.0,0.0,0.0,0.0,0.0,0.0,0.0,0.0,0.0,0.0,0.0,0.0,0.0,0.0,0.0,0.0,0.0,0.0,0.0,0.0,0.0,0.0,0.0,0.0,0.0,0.0,0.0,0.0,0.0,0.0,0.0,0.0,0.0,0.0,0.0,0.0,0.0,0.0,0.0,0.0,0.0,0.0,0.0,0.0,0.0,0.0,0.0,0.0,0.0,0.0,0.0,0.0,0.0,0.0,0.0,0.0,0.0,0.0,0.0,0.0,0.0,0.0,0.0,0.0,0.0,0.0,0.0,0.0,0.0,0.0,0.0,0.0,0.0,0.0,0.0,0.0,0.0,0.0,0.0,0.0,0.0,0.0,0.0,0.0,0.0,0.0,0.0,0.0,0.0,0.0,0.0,0.0,0.0,0.0,0.0,0.0,0.0,0.0,0.0,0.0,0.0,0.0,0.0,0.0,0.0,0.0,0.0,0.0,0.0,0.0,0.0,0.0,0.0,0.0,0.0,0.0,0.0,0.0,0.0,0.0,0.0,0.0,0.0,0.0,0.0,0.0,0.0,0.0,0.0,0.0,0.0,0.0,0.0,0.0,0.0,0.0,0.0,0.0,0.0,0.0,0.0,0.0,0.0,0.0,0.0,0.0,0.0,0.0,0.0,0.0,0.0,0.0,0.0,0.0,0.0,0.0,0.0,0.0,0.0,0.0,0.0,0.0,0.0,0.0,0.0,0.0,0.0,0.0,0.0,0.0,0.0,0.0,0.0,0.0,0.0,0.0,0.0,0.0,0.0,0.0,0.0,0.0,0.0,0.0,0.0,0.0,0.0,0.0,0.0,0.0,0.0,0.0,0.0,0.0,0.0,0.0,0.0,0.0,0.0,0.0,0.0,0.0,0.0,0.0,0.0,0.0,0.0,0.0,0.0,0.0,0.0,0.0,0.0,0.0,0.0,0.0,0.0,0.0,0.0,0.0,0.0,0.0,0.0,0.0,0.0,0.0,0.0,0.0,0.0,0.0,0.0,0.0,0.0,0.0,0.0,0.0,0.0,0.0,0.0,0.0,0.0,0.0,0.0,0.0,0.0,0.0,0.0,0.0,0.0,0.0,0.0,0.0,0.0,0.0,0.0,0.0,0.0,0.0,0.0,0.0,0.0,0.0,0.0,0.0,0.0,0.0,0.0,0.0,0.0,0.0,0.0,0.0,0.0,0.0,0.0,0.0,0.0,0.0,0.0,0.0,0.0,0.0,0.0,0.0,0.0,0.0,0.0,0.0,0.0,0.0,0.0,0.0,0.0,0.0,0.0,0.0,0.0,0.0,0.0,0.0,0.0,0.0,0.0,0.0,0.0,0.0,0.0,0.0,0.0,0.0,0.0,0.0,0.0,0.0,0.0,0.0,0.0,0.0,0.0,0.0,0.0,0.0,0.0,0.0,0.0,0.0,0.0,0.0,0.0,0.0,0.0,0.0,0.0,0.0,0.0,0.0,0.0,0.0,0.0,0.0,0.0,0.0,0.0,0.0,0.0,0.0,0.0,0.0,0.0,0.0,0.0,0.0,0.0,0.0,0.0,0.0,0.0,0.0,0.0,0.0,0.0,0.0,0.0,0.0,0.0,0.0,0.0,0.0,0.0,0.0,0.0,0.0,0.0,0.0,0.0,0.0,0.0,0.0,0.0,0.0,0.0,0.0,0.0,0.0,0.0,0.0,0.0,0.0,0.0,0.0,0.0,0.0,0.0,0.0,0.0,0.0,0.0,0.0,0.0,0.0,0.0,0.0,0.0,0.0,0.0,0.0,0.0,0.0,0.0,0.0,0.0,0.0,0.0,0.0,0.0,0.0,0.0,0.0,0.0,0.0,0.0,0.0,0.0,0.0,0.0,0.0,0.0,0.0,0.0,0.0,0.0,0.0,0.0,0.0,0.0,0.0,0.0,0.0,0.0,0.0,0.0,0.0,0.0,0.0,0.0,0.0,0.0,0.0,0.0,0.0,0.0,0.0,0.0,0.0,0.0,0.0,0.0,0.0,0.0,0.0,0.0,0.0,0.0,0.0,0.0,0.0,0.0,0.0,0.0,0.0,0.0,0.0,0.0,0.0,0.0,0.0,0.0,0.0,0.0,0.0,0.0,0.0,0.0,0.0,0.0,0.0,0.0,0.0,0.0,0.0,0.0,0.0,0.0,0.0,0.0,0.0,0.0,0.0,0.0,0.0,0.0,0.0,0.0,0.0,0.0,0.0,0.0,0.0,0.0,0.0,0.0,0.0,0.0,0.0,0.0,0.0,0.0,0.0,0.0,0.0,0.0,0.0,0.0,0.0,0.0,0.0,0.0,0.0,0.0,0.0,0.0,0.0,0.0,0.0,0.0,0.0,0.0,0.0,0.0,0.0,0.0,0.0,0.0,0.0,0.0,0.0,0.0,0.0,0.0,0.0,0.0,0.0,0.0,0.0,0.0,0.0,0.0,0.0,0.0,0.0,0.0,0.0,0.0,0.0,0.0,0.0,0.0,0.0,0.0,0.0,0.0,0.0,0.0,0.0,0.0,0.0,0.0,0.0,0.0,0.0,0.0,0.0,0.0,0.0,0.0,0.0,0.0,0.0,0.0,0.0,0.0,0.0,0.0,0.0,0.0,0.0,0.0,0.0,0.0,0.0,0.0,0.0,0.0,0.0,0.0,0.0,0.0,0.0,0.0,0.0,0.0,0.0,0.0,0.0,0.0,0.0,0.0,0.0,0.0,0.0,0.0,0.0,0.0,0.0,0.0,0.0,0.0,0.0,0.0,0.0,0.0,0.0,0.0,0.0,0.0,0.0,0.0,0.0,0.0,0.0,0.0,0.0,0.0,0.0,0.0,0.0,0.0,0.0,0.0,0.0,0.0,0.0,0.0,0.0,0.0,0.0,0.0,0.0,0.0,0.0,0.0,0.0,0.0,0.0,0.0,0.0,0.0,0.0,0.0,0.0,0.9264,0.0,0.0,0.0,0.0,0.0,0.0,0.0,0.0,0.0,0.0,0.0,0.0,0.0,0.0,0.0,0.0,0.0,0.0,0.0,0.0,0.0,0.0,0.0,0.0,0.0,0.0,0.0,0.0,0.0,0.0,0.0,0.0,0.0,0.0,0.0,0.0,0.0,0.0,0.0,0.0,0.0,0.0,0.0,0.0,0.0,0.0,0.0,0.0,0.0,0.0,0.0,0.0,0.0,0.0,0.0,0.0,0.0,0.0,0.0,0.0,0.0,0.0,0.0,0.0,0.0,0.0,0.0,0.0,0.0,0.0,0.0,0.0,0.0,0.0,0.0,0.0,0.0,0.0,0.0,0.0,0.0,0.0,0.0,0.0,0.0,0.0,0.0,0.0,0.0,0.0,0.0,0.0,0.0,0.0,0.0,0.0,0.0,0.0,0.0,0.0,0.0,0.0,0.0,0.0,0.0,0.0,0.0,0.0,0.0,0.0,0.9681,0.9701,0.9118,0.9155,0.9946,0.0,0.0,0.0,0.0,0.0,0.0,0.0,0.0,0.0,0.0,0.0,0.0,0.0,0.0,0.0,0.0,0.0,0.0,0.0,0.0,0.0,0.0,0.0,0.0,0.0,0.0,0.0,0.0,0.0,0.0,0.0,0.0,0.0,0.0,0.0,0.0,0.0,0.0,0.0,0.0,0.0,0.0,0.0,0.0,0.0,0.0,0.0,0.0,0.0,0.0,0.0,0.0,0.0,0.0,0.0,0.0,0.0,0.0,0.0,0.0,0.0,0.0,0.0,0.0,0.0,0.0,0.0,0.0,0.0,0.0,0.0,0.0,0.0,0.0,0.0,0.0,0.0,0.0,0.0,0.0,0.0,0.0,0.0,0.0,0.0,0.0,0.0,0.0,0.0,0.0,0.0,0.0,0.0,0.0,0.0,0.0,0.0,0.0,0.0,0.0,0.0,0.0,0.0,0.0,0.0,0.0,0.0,0.0,0.0,0.0,0.0,0.0,0.9288,0.9545,1.1055,0.0,0.0,0.0,0.0,0.0,0.0,0.0,0.0,0.0,0.0,0.0,0.0,0.0,0.0,0.0,0.0,0.0,0.0,0.0,0.0,0.0,0.0,0.0,0.0,0.0,0.0,0.0,0.0,0.0,0.0,0.0,0.0,0.0,0.0,0.0,0.0,0.0,0.0,0.0,0.0,0.0,0.0,0.0,0.0,0.0,0.0,0.0,0.0,0.0,0.0,0.0,0.0,0.0,0.0,0.0,0.0,0.0,0.0,0.0,0.0,0.0,0.0,0.0,0.0,0.0,0.0,0.0,0.0,0.0,0.0,0.0,0.0,0.0,0.0,0.0,0.0,0.0,0.0,0.0,0.0,0.0,0.0,0.0,0.0,0.0,0.0,0.0,0.0,0.0,0.0,0.0,0.0,0.0,0.0,0.0,0.0,0.0,0.0,0.0,0.0,0.0,0.0,0.0,0.0,0.0,0.0,0.0,0.0,0.0,0.0,1.1032,1.2164,1.1308,0.0,1.3003,0.0,0.0,0.0,0.0,0.0,0.0,0.0,0.0,0.0,0.0,0.0,0.0,0.0,0.0,0.0,0.0,0.0,0.0,0.0,0.0,0.0,0.0,0.0,0.0,0.0,0.0,0.0,0.0,0.0,0.0,0.0,0.0,0.0,0.0,0.0,0.0,0.0,0.0,0.0,0.0,0.0,0.0,0.0,0.0,0.0,0.0,0.0,0.0,0.0,0.0,0.0,0.0,0.0,0.0,0.0,0.0,0.0,0.0,0.0,0.0,0.0,0.0,0.0,0.0,0.0,0.0,0.0,0.0,0.0,0.0,0.0,0.0,0.0,0.0,0.0,0.0,0.0,0.0,0.0,0.0,0.0,0.0,0.0,0.0,0.0,0.0,0.0,0.0,0.0,0.0,0.0,0.0,0.0,0.0,0.0,0.0,0.0,0.0,0.0,0.0,0.0,0.0,0.0,0.0,0.0,0.0,0.0,0.0,0.0,0.0,1.0573,1.1226,1.1883,1.2507,0.0,0.0,0.0,0.0,0.0,0.0,0.0,0.0,0.0,0.0,0.0,0.0,0.0,0.0,0.0,0.0,0.0,0.0,0.0,0.0,0.0,0.0,0.0,0.0,0.0,0.0,0.0,0.0,0.0,0.0,0.0,0.0,0.0,0.0,0.0,0.0,0.0,0.0,0.0,0.0,0.0,0.0,0.0,0.0,0.0,0.0,0.0,0.0,0.0,0.0,0.0,0.0,0.0,0.0,0.0,0.0,0.0,0.0,0.0,0.0,0.0,0.0,0.0,0.0,0.0,0.0,0.0,0.0,0.0,0.0,0.0,0.0,0.0,0.0,0.0,0.0,0.0,0.0,0.0,0.0,0.0,0.0,0.0,0.0,0.0,0.0,0.0,0.0,0.0,0.0,0.0,0.0,0.0,0.0,0.0,0.0,0.0,0.0,0.0,0.0,0.0,0.0,0.0,0.0,0.0,0.0,0.0,0.0,0.0,0.0,1.1564,1.0914,1.1199,1.2409,1.3212,1.3501,0.0,0.0,0.0,0.0,0.0,0.0,0.0,0.0,0.0,0.0,0.0,0.0,0.0,0.0,0.0,0.0,0.0,0.0,0.0,0.0,0.0,0.0,0.0,0.0,0.0,0.0,0.0,0.0,0.0,0.0,0.0,0.0,0.0,0.0,0.0,0.0,0.0,0.0,0.0,0.0,0.0,0.0,0.0,0.0,0.0,0.0,0.0,0.0,0.0,0.0,0.0,0.0,0.0,0.0,0.0,0.0,0.0,0.0,0.0,0.0,0.0,0.0,0.0,0.0,0.0,0.0,0.0,0.0,0.0,0.0,0.0,0.0,0.0,0.0,0.0,0.0,0.0,0.0,0.0,0.0,0.0,0.0,0.0,0.0,0.0,0.0,0.0,0.0,0.0,0.0,0.0,0.0,0.0,0.0,0.0,0.0,0.0,0.0,0.0,0.0,0.0,0.0,0.0,0.0,0.0,0.0,0.0,0.0,1.5436,1.3703,1.2851,1.3006,1.3212,1.3744,0.0,0.0,0.0,0.0,0.0,0.0,0.0,0.0,0.0,0.0,0.0,0.0,0.0,0.0,0.0,0.0,0.0,0.0,0.0,0.0,0.0,0.0,0.0,0.0,0.0,0.0,0.0,0.0,0.0,0.0,0.0,0.0,0.0,0.0,0.0,0.0,0.0,0.0,0.0,0.0,0.0,0.0,0.0,0.0,0.0,0.0,0.0,0.0,0.0,0.0,0.0,0.0,0.0,0.0,0.0,0.0,0.0,0.0,0.0,0.0,0.0,0.0,0.0,0.0,0.0,0.0,0.0,0.0,0.0,0.0,0.0,0.0,0.0,0.0,0.0,0.0,0.0,0.0,0.0,0.0,0.0,0.0,0.0,0.0,0.0,0.0,0.0,0.0,0.0,0.0,0.0,0.0,0.0,0.0,0.0,0.0,0.0,0.0,0.0,0.0,0.0,0.0,0.0,0.0,0.0,0.0,0.0,0.0,0.0,1.4238,1.3557,1.2994,1.2655,1.3717,1.4571,0.0,0.0,0.0,0.0,0.0,0.0,0.0,0.0,0.0,0.0,0.0,0.0,0.0,0.0,0.0,0.0,0.0,0.0,0.0,0.0,0.0,0.0,0.0,0.0,0.0,0.0,0.0,0.0,0.0,0.0,0.0,0.0,0.0,0.0,0.0,0.0,0.0,0.0,0.0,0.0,0.0,0.0,0.0,0.0,0.0,0.0,0.0,0.0,0.0,0.0,0.0,0.0,0.0,0.0,0.0,0.0,0.0,0.0,0.0,0.0,0.0,0.0,0.0,0.0,0.0,0.0,0.0,0.0,0.0,0.0,0.0,0.0,0.0,0.0,0.0,0.0,0.0,0.0,0.0,0.0,0.0,0.0,0.0,0.0,0.0,0.0,0.0,0.0,0.0,0.0,0.0,0.0,0.0,0.0,0.0,0.0,0.0,0.0,0.0,0.0,0.0,0.0,0.0,0.0,0.0,0.0,0.0,0.0,0.0,1.407,0.0,1.3692,1.329,1.4334,1.5151,0.0,0.0,0.0,0.0,0.0,0.0,0.0,0.0,0.0,0.0,0.0,0.0,0.0,0.0,0.0,0.0,0.0,0.0,0.0,0.0,0.0,0.0,0.0,0.0,0.0,0.0,0.0,0.0,0.0,0.0,0.0,0.0,0.0,0.0,0.0,0.0,0.0,0.0,0.0,0.0,0.0,0.0,0.0,0.0,0.0,0.0,0.0,0.0,0.0,0.0,0.0,0.0,0.0,0.0,0.0,0.0,0.0,0.0,0.0,0.0,0.0,0.0,0.0,0.0,0.0,0.0,0.0,0.0,0.0,0.0,0.0,0.0,0.0,0.0,0.0,0.0,0.0,0.0,0.0,0.0,0.0,0.0,0.0,0.0,0.0,0.0,0.0,0.0,0.0,0.0,0.0,0.0,0.0,0.0,0.0,0.0,0.0,0.0,0.0,0.0,0.0,0.0,0.0,0.0,0.0,0.0,0.0,0.0,1.5263,1.5306,1.5218,1.5178,1.5208,1.5142,1.5505,0.0,0.0,0.0,0.0,0.0,0.0,0.0,0.0,0.0,0.0,0.0,0.0,0.0,0.0,0.0,0.0,0.0,0.0,0.0,0.0,0.0,0.0,0.0,0.0,0.0,0.0,0.0,0.0,0.0,0.0,0.0,0.0,0.0,0.0,0.0,0.0,0.0,0.0,0.0,0.0,0.0,0.0,0.0,0.0,0.0,0.0,0.0,0.0,0.0,0.0,0.0,0.0,0.0,0.0,0.0,0.0,0.0,0.0,0.0,0.0,0.0,0.0,0.0,0.0,0.0,0.0,0.0,0.0,0.0,0.0,0.0,0.0,0.0,0.0,0.0,0.0,0.0,0.0,0.0,0.0,0.0,0.0,0.0,0.0,0.0,0.0,0.0,0.0,0.0,0.0,0.0,0.0,0.0,0.0,0.0,0.0,0.0,0.0,0.0,0.0,0.0,0.0,0.0,0.0,0.0,0.0,0.0,0.0,0.0,1.5684,1.59,1.6314,1.6888,1.683,1.7474,0.0,0.0,0.0,0.0,0.0,0.0,0.0,0.0,0.0,0.0,0.0,0.0,0.0,0.0,0.0,0.0,0.0,0.0,0.0,0.0,0.0,0.0,0.0,0.0,0.0,0.0,0.0,0.0,0.0,0.0,0.0,0.0,0.0,0.0,0.0,0.0,0.0,0.0,0.0,0.0,0.0,0.0,0.0,0.0,0.0,0.0,0.0,0.0,0.0,0.0,0.0,0.0,0.0,0.0,0.0,0.0,0.0,0.0,0.0,0.0,0.0,0.0,0.0,0.0,0.0,0.0,0.0,0.0,0.0,0.0,0.0,0.0,0.0,0.0,0.0,0.0,0.0,0.0,0.0,0.0,0.0,0.0,0.0,0.0,0.0,0.0,0.0,0.0,0.0,0.0,0.0,0.0,0.0,0.0,0.0,0.0,0.0,0.0,0.0,0.0,0.0,0.0,0.0,0.0,0.0,0.0,0.0,0.0,0.0,1.9634,1.8813,1.8503,1.8788,1.913,1.9441,1.9757,0.0,0.0,0.0,0.0,0.0,0.0,0.0,0.0,0.0,0.0,0.0,0.0,0.0,0.0,0.0,0.0,0.0,0.0,0.0,0.0,0.0,0.0,0.0,0.0,0.0,0.0,0.0,0.0,0.0,0.0,0.0,0.0,0.0,0.0,0.0,0.0,0.0,0.0,0.0,0.0,0.0,0.0,0.0,0.0,0.0,0.0,0.0,0.0,0.0,0.0,0.0,0.0,0.0,0.0,0.0,0.0,0.0,0.0,0.0,0.0,0.0,0.0,0.0,0.0,0.0,0.0,0.0,0.0,0.0,0.0,0.0,0.0,0.0,0.0,0.0,0.0,0.0,0.0,0.0,0.0,0.0,0.0,0.0,0.0,0.0,0.0,0.0,0.0,0.0,0.0,0.0,0.0,0.0,0.0,0.0,0.0,0.0,0.0,0.0,0.0,0.0,0.0,0.0,0.0,0.0,0.0,0.0,0.0,2.6456,2.3993,2.2269,2.1216,2.2037,2.1578,0.0,0.0,0.0,0.0,0.0,0.0,0.0,0.0,0.0,0.0,0.0,0.0,0.0,0.0,0.0,0.0,0.0,0.0,0.0,0.0,0.0,0.0,0.0,0.0,0.0,0.0,0.0,0.0,0.0,0.0,0.0,0.0,0.0,0.0,0.0,0.0,0.0,0.0,0.0,0.0,0.0,0.0,0.0,0.0,0.0,0.0,0.0,0.0,0.0,0.0,0.0,0.0,0.0,0.0,0.0,0.0,0.0,0.0,0.0,0.0,0.0,0.0,0.0,0.0,0.0,0.0,0.0,0.0,0.0,0.0,0.0,0.0,0.0,0.0,0.0,0.0,0.0,0.0,0.0,0.0,0.0,0.0,0.0,0.0,0.0,0.0,0.0,0.0,0.0,0.0,0.0,0.0,0.0,0.0,0.0,0.0,0.0,0.0,0.0,0.0,0.0,0.0,0.0,0.0,0.0,0.0,0.0,0.0,0.0,3.1103,3.3466,3.2321,2.7456,2.6568,2.5448,0.0,0.0,0.0,0.0,0.0,0.0,0.0,0.0,0.0,0.0,0.0,0.0,0.0,0.0,0.0,0.0,0.0,0.0,0.0,0.0,0.0,0.0,0.0,0.0,0.0,0.0,0.0,0.0,0.0,0.0,0.0,0.0,0.0,0.0,0.0,0.0,0.0,0.0,0.0,0.0,0.0,0.0,0.0,0.0,0.0,0.0,0.0,0.0,0.0,0.0,0.0,0.0,0.0,0.0,0.0,0.0,0.0,0.0,0.0,0.0,0.0,0.0,0.0,0.0,0.0,0.0,0.0,0.0,0.0,0.0,0.0,0.0,0.0,0.0,0.0,0.0,0.0,0.0,0.0,0.0,0.0,0.0,0.0,0.0,0.0,0.0,0.0,0.0,0.0,0.0,0.0,0.0,0.0,0.0,0.0,0.0,0.0,0.0,0.0,0.0,0.0,0.0,0.0,0.0,0.0,0.0,0.0,0.0,3.1945,3.5327,3.9814,4.0365,3.6622,3.328,2.9895,0.0,0.0,0.0,0.0,0.0,0.0,0.0,0.0,0.0,0.0,0.0,0.0,0.0,0.0,0.0,0.0,0.0,0.0,0.0,0.0,0.0,0.0,0.0,0.0,0.0,0.0,0.0,0.0,0.0,0.0,0.0,0.0,0.0,0.0,0.0,0.0,0.0,0.0,0.0,0.0,0.0,0.0,0.0,0.0,0.0,0.0,0.0,0.0,0.0,0.0,0.0,0.0,0.0,0.0,0.0,0.0,0.0,0.0,0.0,0.0,0.0,0.0,0.0,0.0,0.0,0.0,0.0,0.0,0.0,0.0,0.0,0.0,0.0,0.0,0.0,0.0,0.0,0.0,0.0,0.0,0.0,0.0,0.0,0.0,0.0,0.0,0.0,0.0,0.0,0.0,0.0,0.0,0.0,0.0,0.0,0.0,0.0,0.0,0.0,0.0,0.0,0.0,0.0,0.0,0.0,0.0,0.0,0.0,3.6066,3.9026,4.4092,4.6592,4.6225,4.0349,3.4367,0.0,0.0,0.0,0.0,0.0,0.0,0.0,0.0,0.0,0.0,0.0,0.0,0.0,0.0,0.0,0.0,0.0,0.0,0.0,0.0,0.0,0.0,0.0,0.0,0.0,0.0,0.0,0.0,0.0,0.0,0.0,0.0,0.0,0.0,0.0,0.0,0.0,0.0,0.0,0.0,0.0,0.0,0.0,0.0,0.0,0.0,0.0,0.0,0.0,0.0,0.0,0.0,0.0,0.0,0.0,0.0,0.0,0.0,0.0,0.0,0.0,0.0,0.0,0.0,0.0,0.0,0.0,0.0,0.0,0.0,0.0,0.0,0.0,0.0,0.0,0.0,0.0,0.0,0.0,0.0,0.0,0.0,0.0,0.0,0.0,0.0,0.0,0.0,0.0,0.0,0.0,0.0,0.0,0.0,0.0,0.0,0.0,0.0,0.0,0.0,0.0,0.0,0.0,0.0,0.0,0.0,0.0,0.0,3.8918,4.2143,4.7878,5.0046,4.8262,4.1782,3.6641,0.0,0.0,0.0,0.0,0.0,0.0,0.0,0.0,0.0,0.0,0.0,0.0,0.0,0.0,0.0,0.0,0.0,0.0,0.0,0.0,0.0,0.0,0.0,0.0,0.0,0.0,0.0,0.0,0.0,0.0,0.0,0.0,0.0,0.0,0.0,0.0,0.0,0.0,0.0,0.0,0.0,0.0,0.0,0.0,0.0,0.0,0.0,0.0,1.8104,0.0,0.0,0.0,0.0,0.0,0.0,0.0,0.0,0.0,0.0,0.0,0.0,0.0,0.0,0.0,0.0,0.0,0.0,0.0,0.0,0.0,0.0,0.0,0.0,0.0,0.0,0.0,0.0,0.0,0.0,0.0,0.0,0.0,0.0,0.0,0.0,0.0,0.0,0.0,0.0,0.0,0.0,0.0,0.0,0.0,0.0,0.0,0.0,0.0,0.0,0.0,0.0,0.0,0.0,0.0,0.0,0.0,0.0,0.0,4.1196,4.5176,5.0188,5.2238,5.0849,4.4899,3.9816,0.0,0.0,0.0,0.0,0.0,0.0,0.0,0.0,0.0,0.0,0.0,0.0,0.0,0.0,0.0,0.0,0.0,0.0,0.0,0.0,0.0,0.0,0.0,0.0,0.0,0.0,0.0,0.0,0.0,0.0,0.0,0.0,0.0,0.0,0.0,0.0,0.0,0.0,0.0,0.0,0.0,0.0,0.0,0.0,0.0,0.0,0.0,0.0,0.0,0.0,0.0,0.0,0.0,0.0,0.0,0.0,0.0,0.0,0.0,0.0,0.0,0.0,0.0,0.0,0.0,0.0,0.0,0.0,0.0,0.0,0.0,0.0,0.0,0.0,0.0,0.0,0.0,0.0,0.0,0.0,0.0,0.0,0.0,0.0,0.0,0.0,0.0,0.0,0.0,0.0,0.0,0.0,0.0,0.0,0.0,0.0,0.0,0.0,0.0,0.0,0.0,0.0,0.0,0.0,0.0,0.0,0.0,3.7998,4.3296,4.8242,5.2012,5.3807,5.3429,4.8014,4.2891,0.0,0.0,0.0,0.0,0.0,0.0,0.0,0.0,0.0,0.0,0.0,0.0,0.0,0.0,0.0,0.0,0.0,0.0,0.0,0.0,0.0,0.0,0.0,0.0,0.0,0.0,0.0,0.0,0.0,0.0,0.0,0.0,0.0,0.0,0.0,0.0,0.0,0.0,0.0,1.5749,1.7716,0.0,0.0,0.0,0.0,0.0,0.0,0.0,0.0,1.9161,0.0,0.0,0.0,0.0,0.0,0.0,0.0,0.0,0.0,0.0,0.0,0.0,0.0,0.0,0.0,0.0,0.0,0.0,0.0,0.0,0.0,0.0,0.0,0.0,0.0,0.0,0.0,0.0,0.0,0.0,0.0,0.0,0.0,0.0,0.0,0.0,0.0,0.0,0.0,0.0,0.0,0.0,0.0,0.0,0.0,0.0,0.0,0.0,0.0,0.0,0.0,0.0,0.0,0.0,0.0,0.0,3.6664,4.046,4.5424,5.1712,5.4524,5.5155,5.3458,4.8449,4.4102,4.0492,0.0,0.0,0.0,0.0,0.0,0.0,0.0,0.0,0.0,0.0,0.0,0.0,0.0,0.0,0.0,0.0,0.0,0.0,0.0,0.0,0.0,0.0,0.0,0.0,0.0,0.0,0.0,0.0,0.0,0.0,0.0,0.0,0.0,0.0,0.0,0.0,0.0,0.0,0.0,1.9803,2.0684,0.0,0.0,0.0,0.0,0.0,0.0,0.0,0.0,2.1053,0.0,0.0,0.0,0.0,0.0,0.0,0.0,0.0,0.0,0.0,0.0,0.0,0.0,0.0,0.0,0.0,0.0,0.0,0.0,0.0,0.0,0.0,0.0,0.0,0.0,0.0,0.0,0.0,0.0,0.0,0.0,0.0,0.0,0.0,0.0,0.0,0.0,0.0,0.0,0.0,0.0,0.0,0.0,0.0,0.0,0.0,0.0,0.0,0.0,0.0,0.0,0.0,0.0,0.0,0.0,3.888,4.3192,4.7818,5.2936,5.4928,5.5287,5.3952,4.8101,4.3874,0.0,0.0,0.0,0.0,0.0,0.0,0.0,0.0,0.0,0.0,0.0,0.0,0.0,0.0,0.0,0.0,0.0,0.0,0.0,0.0,0.0,0.0,0.0,0.0,0.0,0.0,0.0,0.0,0.0,0.0,0.0,0.0,0.0,0.0,0.0,0.0,0.0,0.0,0.0,0.0,2.1867,2.2497,2.2961,0.0,0.0,0.0,0.0,0.0,0.0,2.2273,2.204,0.0,0.0,0.0,0.0,0.0,0.0,0.0,0.0,0.0,0.0,0.0,0.0,0.0,0.0,0.0,0.0,0.0,0.0,0.0,0.0,0.0,0.0,0.0,0.0,0.0,0.0,0.0,0.0,0.0,0.0,0.0,0.0,0.0,0.0,0.0,0.0,0.0,0.0,0.0,0.0,0.0,0.0,0.0,0.0,0.0,0.0,0.0,0.0,0.0,0.0,0.0,0.0,0.0,0.0,0.0,4.0544,4.5404,4.988,5.3883,5.5097,5.5316,5.4561,4.7608,4.3264,0.0,0.0,0.0,0.0,0.0,0.0,0.0,0.0,0.0,0.0,0.0,0.0,0.0,0.0,0.0,0.0,0.0,0.0,0.0,0.0,0.0,0.0,0.0,0.0,0.0,0.0,0.0,0.0,0.0,0.0,0.0,0.0,0.0,0.0,0.0,0.0,0.0,0.0,0.0,0.0,0.0,2.4518,2.5298,2.4379,0.0,0.0,0.0,0.0,2.3725,2.4296,0.0,0.0,0.0,0.0,0.0,0.0,0.0,0.0,0.0,0.0,0.0,0.0,0.0,0.0,0.0,0.0,0.0,0.0,0.0,0.0,0.0,0.0,0.0,0.0,0.0,0.0,0.0,0.0,0.0,0.0,0.0,0.0,0.0,0.0,0.0,0.0,0.0,0.0,0.0,0.0,0.0,0.0,0.0,0.0,0.0,0.0,0.0,0.0,0.0,0.0,0.0,0.0,0.0,0.0,0.0,0.0,4.1458,4.6099,5.0901,5.5768,5.6186,5.5954,5.5213,4.7375,4.2799,0.0,0.0,0.0,0.0,0.0,0.0,0.0,0.0,0.0,0.0,0.0,0.0,0.0,0.0,0.0,0.0,0.0,0.0,0.0,0.0,0.0,0.0,0.0,0.0,0.0,0.0,0.0,0.0,0.0,0.0,0.0,0.0,0.0,0.0,0.0,0.0,0.0,0.0,0.0,0.0,0.0,2.6697,2.6543,2.6754,2.6066,0.0,0.0,0.0,2.6494,2.9891,0.0,0.0,0.0,0.0,0.0,0.0,0.0,0.0,0.0,0.0,0.0,0.0,0.0,0.0,0.0,0.0,0.0,0.0,0.0,0.0,0.0,0.0,0.0,0.0,0.0,0.0,0.0,0.0,0.0,0.0,0.0,0.0,0.0,0.0,0.0,0.0,0.0,0.0,0.0,0.0,0.0,0.0,0.0,0.0,0.0,0.0,0.0,0.0,0.0,0.0,0.0,0.0,0.0,0.0,0.0,3.7472,4.2288,4.8606,5.3344,5.626,5.6012,5.5693,5.5387,4.665,4.1976,0.0,0.0,0.0,0.0,0.0,0.0,0.0,0.0,0.0,0.0,0.0,0.0,0.0,0.0,0.0,0.0,0.0,0.0,0.0,0.0,0.0,0.0,0.0,0.0,0.0,0.0,0.0,0.0,0.0,0.0,0.0,0.0,0.0,0.0,0.0,0.0,0.0,0.0,0.0,0.0,0.0,0.0,2.7809,2.8555,0.0,0.0,0.0,2.9381,2.8952,0.0,0.0,0.0,0.0,0.0,0.0,0.0,0.0,0.0,0.0,0.0,0.0,0.0,0.0,0.0,0.0,0.0,0.0,0.0,0.0,0.0,0.0,0.0,0.0,0.0,0.0,0.0,0.0,0.0,0.0,0.0,0.0,0.0,0.0,0.0,0.0,0.0,0.0,0.0,0.0,0.0,0.0,0.0,0.0,0.0,0.0,0.0,0.0,0.0,0.0,0.0,0.0,0.0,0.0,0.0,0.0,0.0,4.2703,5.0459,5.5171,5.6535,5.5809,5.5403,5.5229,4.6737,0.0,0.0,0.0,0.0,0.0,0.0,0.0,0.0,0.0,0.0,0.0,0.0,0.0,0.0,0.0,0.0,0.0,0.0,0.0,0.0,0.0,0.0,0.0,0.0,0.0,0.0,0.0,0.0,0.0,0.0,0.0,0.0,0.0,0.0,0.0,0.0,0.0,0.0,0.0,0.0,0.0,0.0,3.0274,2.9412,3.0816,3.1634,0.0,0.0,3.2008,3.1519,3.3106,3.3075,0.0,0.0,0.0,0.0,0.0,0.0,0.0,0.0,0.0,0.0,0.0,0.0,0.0,0.0,0.0,0.0,0.0,0.0,0.0,0.0,0.0,0.0,0.0,0.0,0.0,0.0,0.0,0.0,0.0,0.0,0.0,0.0,0.0,0.0,0.0,0.0,0.0,0.0,0.0,0.0,0.0,0.0,0.0,0.0,0.0,0.0,0.0,0.0,0.0,0.0,0.0,0.0,0.0,0.0,0.0,4.2839,5.0484,5.5403,5.7129,5.6012,5.5403,5.5258,4.8403,4.3816,0.0,0.0,0.0,0.0,0.0,0.0,0.0,0.0,0.0,0.0,0.0,0.0,0.0,0.0,0.0,0.0,0.0,0.0,0.0,0.0,0.0,0.0,0.0,0.0,0.0,0.0,0.0,0.0,0.0,0.0,0.0,0.0,0.0,0.0,0.0,0.0,0.0,0.0,0.0,0.0,0.0,3.2661,3.1623,3.4078,3.5673,0.0,0.0,3.6138,3.4324,3.7685,3.8185,3.1102,0.0,0.0,0.0,0.0,0.0,0.0,0.0,0.0,0.0,0.0,0.0,0.0,0.0,0.0,0.0,0.0,0.0,0.0,0.0,0.0,0.0,0.0,0.0,0.0,0.0,0.0,0.0,0.0,0.0,0.0,0.0,0.0,0.0,0.0,0.0,0.0,0.0,0.0,0.0,0.0,0.0,0.0,0.0,0.0,0.0,0.0,0.0,0.0,0.0,0.0,0.0,0.0,0.0,4.0664,4.3952,5.1289,5.5794,5.7187,5.6055,5.5403,5.5403,4.8566,4.4019,0.0,0.0,0.0,0.0,0.0,0.0,0.0,0.0,0.0,0.0,0.0,0.0,0.0,0.0,0.0,0.0,0.0,0.0,0.0,0.0,0.0,0.0,0.0,0.0,0.0,0.0,0.0,0.0,2.0472,2.1093,2.0722,0.0,0.0,0.0,0.0,0.0,0.0,0.0,0.0,0.0,0.0,3.3934,3.4523,3.6207,0.0,0.0,3.7344,3.7316,3.6238,3.7007,3.6255,3.1791,2.9257,0.0,0.0,0.0,0.0,0.0,0.0,0.0,0.0,0.0,0.0,0.0,0.0,0.0,0.0,0.0,0.0,0.0,0.0,0.0,0.0,0.0,0.0,0.0,0.0,0.0,0.0,0.0,0.0,0.0,0.0,0.0,0.0,0.0,0.0,0.0,0.0,0.0,0.0,0.0,0.0,0.0,0.0,0.0,0.0,0.0,0.0,0.0,0.0,0.0,0.0,0.0,0.0,4.098,4.4684,5.1763,5.6012,5.7274,5.6055,5.5403,5.5229,4.9507,4.518,0.0,0.0,0.0,0.0,0.0,0.0,0.0,0.0,0.0,0.0,0.0,0.0,0.0,0.0,0.0,0.0,0.0,0.0,0.0,0.0,0.0,0.0,0.0,0.0,0.0,0.0,0.0,0.0,2.2023,2.2428,2.1721,0.0,0.0,0.0,0.0,0.0,0.0,0.0,0.0,0.0,0.0,3.5256,3.6037,3.7204,3.7939,3.777,3.7361,3.6892,3.6542,3.5712,3.4222,3.1647,0.0,0.0,0.0,0.0,0.0,0.0,0.0,0.0,0.0,0.0,0.0,0.0,0.0,0.0,0.0,0.0,0.0,0.0,0.0,0.0,0.0,0.0,0.0,0.0,0.0,0.0,0.0,0.0,0.0,0.0,0.0,0.0,0.0,0.0,0.0,0.0,0.0,0.0,0.0,0.0,0.0,0.0,0.0,0.0,0.0,0.0,0.0,0.0,0.0,0.0,0.0,0.0,0.0,0.0,4.4712,5.1776,5.6012,5.7202,5.6055,5.5403,5.5287,5.1597,4.7805,4.3979,0.0,0.0,0.0,0.0,0.0,0.0,0.0,0.0,0.0,0.0,0.0,0.0,0.0,0.0,0.0,0.0,0.0,0.0,0.0,0.0,0.0,0.0,0.0,0.0,0.0,0.0,2.1185,2.2302,2.3074,0.0,0.0,0.0,0.0,0.0,0.0,0.0,0.0,0.0,0.0,3.4487,3.676,3.5797,3.6988,3.7819,3.7348,3.5941,3.4895,3.4919,3.4402,3.3129,0.0,0.0,0.0,0.0,0.0,0.0,0.0,0.0,0.0,0.0,0.0,0.0,0.0,0.0,0.0,0.0,0.0,0.0,0.0,0.0,0.0,0.0,0.0,0.0,0.0,0.0,0.0,0.0,0.0,0.0,0.0,0.0,0.0,0.0,0.0,0.0,0.0,0.0,0.0,0.0,3.0187,3.0325,0.0,0.0,0.0,0.0,0.0,0.0,0.0,0.0,0.0,0.0,0.0,0.0,4.1792,4.6143,5.2227,5.6012,5.7216,5.6055,5.5403,5.5374,5.1684,4.7312,4.2227,0.0,0.0,0.0,0.0,0.0,0.0,0.0,0.0,0.0,0.0,0.0,0.0,0.0,0.0,0.0,0.0,0.0,0.0,0.0,0.0,0.0,0.0,0.0,0.0,0.0,2.2789,0.0,0.0,0.0,0.0,0.0,0.0,0.0,0.0,0.0,0.0,0.0,2.9749,3.1832,3.4124,3.5845,3.6579,3.7108,3.7795,0.0,0.0,0.0,0.0,0.0,0.0,0.0,0.0,0.0,0.0,0.0,0.0,0.0,0.0,2.7194,2.4424,2.4004,2.406,2.4156,0.0,0.0,0.0,0.0,0.0,0.0,0.0,0.0,0.0,0.0,0.0,0.0,0.0,0.0,0.0,0.0,2.8019,0.0,0.0,0.0,0.0,0.0,0.0,0.0,0.0,3.2167,3.3352,3.3514,3.3695,3.3633,0.0,3.1481,2.9193,0.0,0.0,0.0,0.0,0.0,0.0,0.0,0.0,4.2424,4.654,5.2343,5.6026,5.7173,5.6041,5.5403,5.5316,5.1278,4.7271,4.3554,3.9165,3.59,0.0,0.0,0.0,0.0,0.0,0.0,0.0,0.0,0.0,0.0,0.0,0.0,0.0,0.0,0.0,0.0,0.0,0.0,0.0,0.0,0.0,0.0,0.0,2.4577,0.0,0.0,0.0,0.0,0.0,0.0,0.0,0.0,0.0,2.6574,2.8854,3.1317,3.3687,3.4933,3.5808,3.6314,0.0,0.0,0.0,0.0,0.0,0.0,0.0,3.1985,3.1961,3.1857,3.2183,3.352,3.3695,3.3665,3.3665,0.0,0.0,2.7933,2.7392,2.7547,2.7514,2.8261,2.9018,2.9338,3.0367,3.1393,0.0,0.0,0.0,0.0,0.0,0.0,0.0,0.0,2.9772,2.9775,0.0,0.0,0.0,0.0,0.0,0.0,0.0,0.0,0.0,0.0,3.5931,3.7382,3.728,3.7989,3.7944,3.7189,3.6235,3.5032,3.3497,2.8773,0.0,0.0,0.0,0.0,0.0,0.0,4.267,4.6232,5.2297,5.6055,5.7202,5.6055,5.5345,5.5171,5.0552,4.7921,4.7567,4.2124,3.8928,3.8772,3.4299,0.0,0.0,0.0,0.0,0.0,0.0,0.0,0.0,0.0,0.0,0.0,0.0,0.0,0.0,0.0,0.0,0.0,0.0,0.0,0.0,2.5629,0.0,0.0,0.0,0.0,0.0,0.0,0.0,0.0,0.0,0.0,2.9192,3.0349,3.2452,3.5828,0.0,0.0,0.0,0.0,3.6074,3.326,3.2707,3.2574,3.2163,3.3212,3.4078,3.4126,0.0,0.0,3.7348,3.6927,3.6611,3.6577,3.6585,3.5378,3.1747,3.1137,3.1081,3.0995,3.1887,3.251,3.2616,3.399,3.489,4.0554,0.0,0.0,0.0,0.0,3.4927,3.6788,3.8754,3.7913,3.6916,3.5751,3.3574,0.0,0.0,0.0,0.0,0.0,0.0,3.6145,3.8362,4.095,4.2528,4.3307,4.4335,4.462,4.4154,4.2983,4.171,4.0394,3.8215,3.4584,2.9655,0.0,0.0,0.0,0.0,4.5086,4.9885,5.401,5.649,5.726,5.6055,5.4749,5.344,5.1527,4.9681,4.7863,4.5635,4.3149,4.0345,3.8551,0.0,0.0,0.0,0.0,0.0,0.0,0.0,0.0,0.0,0.0,0.0,0.0,0.0,0.0,0.0,0.0,0.0,0.0,0.0,2.5173,2.6727,2.6687,0.0,0.0,0.0,0.0,0.0,0.0,0.0,0.0,0.0,3.3327,3.3077,3.3172,0.0,0.0,3.4258,3.3789,3.5064,3.6133,3.6386,0.0,0.0,0.0,3.6422,3.5965,3.6736,3.8623,4.0176,4.0575,4.0503,4.0393,4.0369,4.008,3.9299,3.7949,3.6373,3.545,3.5461,3.6782,3.8026,3.8154,3.9571,4.0926,4.9323,4.2623,4.0075,3.9264,3.9832,4.1293,4.2939,4.4516,4.3255,4.2046,4.0782,3.7824,3.5404,3.3545,3.3359,0.0,0.0,0.0,4.0368,4.3208,4.5222,4.6773,4.7879,4.8699,4.8903,4.8551,4.7455,4.6571,4.5889,4.4072,4.1411,3.78,0.0,0.0,4.0094,4.3952,4.776,5.1547,5.4778,5.6694,5.7274,5.6041,5.4735,5.3397,5.221,5.0875,4.9349,4.7956,4.607,4.3683,4.1786,3.9295,0.0,0.0,0.0,0.0,0.0,0.0,0.0,0.0,0.0,0.0,0.0,2.566,0.0,0.0,0.0,0.0,2.5649,2.5789,2.7032,2.7658,0.0,0.0,0.0,0.0,0.0,0.0,0.0,2.6849,3.0579,3.3837,3.5675,3.5665,3.5833,3.6734,3.6422,3.5954,3.5557,0.0,3.795,3.8273,3.8214,3.8479,3.9441,3.9056,3.896,4.0008,4.1042,4.1899,4.2236,4.2308,4.2308,4.226,4.1899,4.1475,4.1394,4.0248,3.9252,3.8925,4.0499,4.1807,4.1677,4.3313,4.4812,5.7585,5.5097,4.9144,4.6523,4.6438,4.7522,4.8243,4.839,4.7036,4.5965,4.5133,4.2078,4.0212,3.9394,3.8934,0.0,0.0,4.2575,4.4928,4.739,4.9077,5.0433,5.1487,5.1784,5.1718,5.1397,5.0564,5.02,5.0193,4.7598,4.7122,4.8701,4.4763,4.3184,4.4287,4.7838,5.0411,5.1862,5.4793,5.6564,5.7129,5.5997,5.5084,5.4403,5.2588,5.1559,5.1456,4.9146,4.7805,4.7532,4.4139,4.1828,4.0876,0.0,0.0,0.0,0.0,0.0,0.0,0.0,0.0,0.0,0.0,0.0,0.0,0.0,0.0,0.0,2.7901,0.0,2.9306,2.8492,0.0,0.0,0.0,2.6856,2.7034,2.9248,3.0741,3.0741,0.0,0.0,0.0,0.0,3.9699,4.1378,4.0835,3.995,3.9106,4.0212,4.073,3.9331,3.9619,3.998,4.0316,4.122,4.2269,4.3096,4.3174,4.2837,4.2813,4.2708,4.2717,4.2669,4.2284,4.2067,4.2636,4.2525,4.2501,4.1475,4.2961,4.422,4.3778,4.5173,4.6471,6.3072,6.2347,5.9889,5.6464,5.2799,5.4411,5.5662,5.6337,5.4693,5.2846,5.0704,4.6878,4.4308,4.2891,4.3189,4.4652,4.7081,4.8488,5.0433,5.2757,5.4143,5.5151,5.5836,5.6606,5.6627,5.5881,5.585,5.5267,5.4179,5.3206,5.2125,5.0979,5.0125,4.9181,4.8139,4.9149,5.1075,5.3778,5.5026,5.5693,5.5852,5.5548,5.488,5.3749,5.2356,5.1369,5.09,4.9378,4.7828,4.6429,4.5879,4.4211,4.1073,3.8482,0.0,0.0,0.0,0.0,0.0,0.0,0.0,0.0,0.0,2.7299,2.5878,0.0,2.6765,0.0,2.9475,3.0607,2.9976,2.9933,0.0,0.0,2.8746,2.9001,2.8655,3.1071,3.2781,3.2793,3.5366,3.777,3.9248,4.0489,4.219,4.4541,4.1641,3.9579,4.0661,4.1362,4.1706,4.1403,4.2249,4.3171,4.309,4.3459,4.3763,4.406,4.3673,4.3337,4.3337,4.2678,4.2188,4.2164,4.174,4.162,4.2116,4.2515,4.2862,4.3,4.4355,4.5373,4.4869,4.611,4.7257,6.5402,6.5315,6.4373,6.2163,5.9371,5.9843,6.0419,6.0797,5.8326,5.6295,5.459,5.0909,4.8615,4.7555,4.8443,4.9995,5.2055,5.3068,5.4509,5.6265,5.7265,5.7757,5.7783,5.848,5.8317,5.7437,5.7384,5.7104,5.6547,5.6232,5.5652,5.4888,5.5192,5.4547,5.2924,5.1634,5.2004,5.401,5.4938,5.5664,5.6215,5.5693,5.4662,5.3136,5.1483,4.9795,4.8053,4.7264,4.6124,4.4595,4.4882,4.3831,4.103,3.8453,3.5869,0.0,0.0,0.0,0.0,0.0,0.0,0.0,0.0,0.0,0.0,0.0,2.8664,0.0,0.0,0.0,3.0901,3.1201,3.1253,3.0767,3.1362,3.1821,3.1956,3.4276,3.586,3.5847,3.8302,4.0355,4.1369,4.2881,4.4413,4.5995,4.3827,4.2457,4.3279,4.3296,4.3009,4.3072,4.3739,4.4204,4.4003,4.394,4.3802,4.337,4.3048,4.2774,4.2519,4.2029,4.1658,4.1634,4.1403,4.1379,4.1899,4.2428,4.3006,4.3826,4.4941,4.5686,4.5541,4.6543,4.7497,6.6096,6.5951,6.5373,6.5099,6.4925,6.3821,6.3341,6.3128,6.0066,5.8268,5.7266,5.44,5.2844,5.2501,5.3709,5.4924,5.6028,5.6836,5.7737,5.8697,5.9451,5.948,5.8943,5.9086,5.8747,5.7994,5.7542,5.7606,5.8143,5.7847,5.7985,5.855,5.8871,5.8348,5.6897,5.4284,5.3194,5.3632,5.488,5.5954,5.6738,5.5548,5.3965,5.2004,4.9944,4.7436,4.456,4.4152,4.3517,4.2441,4.2531,4.2134,4.0961,3.7511,3.5369,0.0,3.1766,0.0,0.0,0.0,0.0,0.0,0.0,0.0,0.0,3.0596,3.1081,3.1102,3.2198,3.2718,3.226,3.2706,3.3321,3.409,3.4342,3.4823,3.5941,3.7792,3.9121,3.9395,4.1924,4.3518,4.3535,4.5196,4.644,4.6698,4.6214,4.5889,4.623,4.5128,4.418,4.4316,4.4316,4.4156,4.3802,4.3586,4.3289,4.2534,4.2317,4.1947,4.162,4.1442,4.1331,4.1331,4.1355,4.1523,4.2077,4.2597,4.3207,4.4115,4.5061,4.5782,4.6038,4.6776,4.7449,6.7202,6.6651,6.5996,6.5444,6.4983,6.4751,6.4619,6.4574,6.3386,6.1352,5.8737,5.7041,5.6287,5.6295,5.7086,5.7828,5.8682,6.0299,6.0911,6.07,6.1832,6.2325,6.2136,6.1424,6.1131,6.1123,6.0119,5.9751,6.0057,5.9543,5.8578,5.7312,5.7554,5.6781,0.0,0.0,0.0,0.0,5.5577,5.5591,5.4242,5.2994,5.1166,4.8793,4.6772,0.0,4.3356,4.1808,4.0842,4.062,4.0631,0.0,0.0,0.0,0.0,0.0,0.0,0.0,0.0,0.0,0.0,0.0,3.3351,3.2613,3.0681,3.0972,3.1995,3.3589,3.4522,3.4979,3.4883,3.5352,3.5556,3.5352,3.6085,3.7012,3.8118,3.9358,4.0772,4.2672,4.3768,4.4946,4.6213,4.7241,4.8068,4.8661,4.7464,4.6709,4.7508,4.5652,4.4362,4.4316,4.4316,4.4252,4.4156,4.3763,4.3634,4.3643,4.3135,4.2645,4.2428,4.2067,4.1827,4.1803,4.1851,4.2125,4.3,4.3313,4.3505,4.418,4.4805,4.5517,4.6375,4.7048,4.7497,6.7957,0.0,6.668,6.6215,0.0,6.5606,6.5444,6.5354,6.397,6.1957,5.9483,5.889,5.8644,5.8751,5.9736,6.0345,6.0729,6.2021,6.2412,6.218,6.279,6.2906,6.2587,6.176,6.1464,6.1549,6.081,6.076,6.1317,6.1199,6.0743,5.9969,6.0103,5.951,5.829,5.8261,5.7477,5.591,5.6215,5.6215,5.5852,5.43,5.2239,4.9744,0.0,0.0,0.0,0.0,0.0,0.0,0.0,0.0,0.0,0.0,0.0,3.779,3.6483,3.577,3.5828,3.5957,3.6071,3.621,3.6472,3.5692,3.347,3.3899,3.4701,3.5718,3.6395,3.6879,3.7167,3.7648,3.7998,3.7998,3.8455,3.9311,4.069,4.1822,4.3159,4.482,4.5842,4.673,4.758,4.8491,4.8604,4.8184,4.7611,4.6858,4.624,4.5144,4.4331,4.4316,4.4316,4.4204,4.3979,4.3979,4.373,4.3586,4.3313,4.2967,4.2477,4.2188,4.1923,4.1668,4.1596,4.1947,4.2871,4.2943,4.3129,4.43,4.4685,4.5069,4.6086,4.6711,4.7112,6.845,6.7857,6.7306,6.7015,6.6841,6.6183,6.5834,6.5625,0.0,0.0,0.0,6.071,6.0728,6.0706,6.1893,6.2383,6.2341,6.308,6.3386,6.3254,6.3386,6.3154,6.2585,6.1791,6.1539,6.1656,6.1175,6.1418,6.2317,6.2593,6.2832,6.3065,6.3125,6.2819,6.2283,6.1658,6.0293,5.8232,5.7216,5.71,5.7739,5.5997,5.3791,5.1166,4.8803,4.6137,4.3203,4.1979,4.1305,4.12,4.1343,4.1163,4.0552,3.9699,3.8997,3.8475,3.7717,3.7806,3.8943,3.9055,3.9163,3.9355,3.9451,3.871,3.6872,3.7268,3.7722,3.7891,3.83,3.8781,3.932,3.9753,4.0162,4.0499,4.0547,4.1225,4.3,4.3911,4.4978,4.6741,4.764,4.8292,4.8767,4.9298,4.9085,4.7468,4.7405,4.6976,4.4924,4.4393,4.4316,4.4316,4.4196,4.4003,4.3811,4.3754,4.3754,4.3313,4.3385,4.3168,4.251,4.2173,4.1956,4.1692,4.1427,4.1803,4.2549,4.2525,4.275,4.4379,4.4436,4.446,4.5373,4.6038,4.6399,6.845,6.7887,6.7799,6.7422,6.6841,6.617,6.5589,6.5112,6.4833,6.4192,6.344,6.3441,6.3176,6.2716,6.3422,6.3442,6.3051,6.4199,6.4415,0.0,6.4473,6.4693,6.4545,6.33,6.3198,6.3881,6.2574,6.239,6.321,6.3136,6.3049,6.3109,6.3125,6.3067,6.2906,6.2312,6.1774,6.1396,5.919,5.7289,5.5838,5.4474,5.2268,4.9267,4.831,4.6772,4.4683,4.3957,4.3279,4.2728,4.2731,4.279,4.2851,4.161,4.1258,4.1954,4.0496,4.0106,4.1369,4.0672,4.0585,4.149,4.1971,4.1355,3.9314,3.9211,3.9657,4.0489,4.0609,4.0984,4.149,4.1548,4.1442,4.1182,4.1105,4.1945,4.412,4.4198,4.542,4.8828,4.8607,4.9035,5.0588,5.0008,4.9272,4.9,4.7497,4.5924,4.4739,4.4316,4.4316,4.4228,4.3907,4.3811,4.3811,4.3433,4.3361,4.4003,4.373,4.349,4.3216,4.2886,4.2573,4.2539,4.2067,4.2091,4.2645,4.2741,4.2789,4.3256,4.3433,4.385,4.4436,4.4941,4.5421,6.8973,6.8405,6.8392,6.8218,6.7899,6.726,6.6402,6.5502,6.5473,6.5125,6.4532,6.4181,6.3832,6.3616,6.3891,6.3861,6.3645,6.459,6.4851,6.4574,6.4851,6.49,6.465,6.3741,6.3609,6.4155,6.3294,6.3259,6.398,6.4083,6.4141,6.4112,6.3777,6.3587,6.3529,6.2964,6.2631,6.2602,6.0482,5.89,5.8029,5.6752,5.5055,5.2923,5.1962,5.054,4.8595,4.7608,4.6951,4.6632,4.5671,4.5324,4.5733,4.3986,4.3174,4.3622,4.2344,4.1789,4.2395,4.1971,4.2043,4.2735,4.3039,4.2798,4.1822,4.1211,4.11,4.1572,4.1394,4.1427,4.1932,4.1981,4.2123,4.2528,4.2807,4.3944,4.5961,4.6259,4.7258,4.9831,4.9966,5.021,5.162,5.0464,4.9253,4.8865,4.6768,4.4945,4.4345,4.3826,4.3505,4.3457,4.328,4.3096,4.3081,4.2967,4.3111,4.3778,4.3907,4.3787,4.3562,4.3126,4.2732,4.2404,4.1947,4.1827,4.226,4.2116,4.2188,4.2765,4.2934,4.3256,4.3496,4.3697,4.4187,6.9513,6.9014,6.8869,6.8707,6.855,6.8102,6.7144,6.5922,6.5893,6.556,6.4967,6.4458,6.421,6.421,6.421,6.421,6.4268,6.4764,6.5012,6.5012,6.5012,6.4852,6.4583,6.4012,6.3897,6.4142,6.3884,6.4025,6.457,6.4884,6.5012,6.4954,6.4458,6.421,6.4225,6.3632,6.3312,6.3196,6.1557,6.0555,6.0409,5.9451,5.8232,5.6651,5.5649,5.43,5.253,5.1501,5.0933,5.0705,4.8991,4.8147,4.8303,4.5896,4.4472,4.4402,4.3206,4.2564,4.2789,4.303,4.3304,4.3619,4.3682,4.3634,4.3466,4.2928,4.239,4.2164,4.1692,4.1596,4.2135,4.2496,4.2914,4.3794,4.4493,4.5667,4.7673,4.7975,4.8625,5.0268,5.0451,5.0481,5.1092,5.0368,4.8999,4.7625,4.5598,4.4216,4.4027,4.328,4.2621,4.2308,4.226,4.2236,4.1971,4.2067,4.239,4.2904,4.337,4.3442,4.3265,4.2991,4.2789,4.2452,4.1981,4.1803,4.1923,4.173,4.1755,4.2275,4.2452,4.2669,4.2862,4.2886,4.3207,6.9762,6.9629,6.9043,6.8479,6.8032,6.7945,6.7173,6.6009,6.5893,6.556,6.4996,6.4925,6.4896,6.4925,6.4896,6.4896,6.4896,6.4983,6.5012,6.5012,6.5012,6.4996,6.49,6.457,6.457,6.482,6.4541,6.4544,6.4916,6.498,6.5012,6.5012,6.4954,6.488,6.4822,6.4254,6.392,6.3891,6.2616,6.1673,6.1135,6.099,5.9742,5.7274,5.7129,5.6432,5.5026,5.4952,5.459,5.3988,5.2156,5.0839,4.9852,4.6597,4.4679,4.4752,4.2716,4.174,4.2801,4.3658,4.4194,4.4204,4.4235,4.4003,4.3586,4.3835,4.3658,4.2882,4.2256,4.2164,4.271,4.359,4.4215,4.4587,4.5497,4.6594,4.7784,4.7595,4.801,4.9855,4.9286,4.902,5.0528,4.9486,4.7804,4.637,4.4739,4.3491,4.3322,4.2558,4.1682,4.0946,4.0657,4.1018,4.1514,4.1153,4.1114,4.1451,4.1884,4.2365,4.2669,4.2837,4.2837,4.2606,4.2847,4.2443,4.2019,4.1908,4.1827,4.1827,4.2019,4.2236,4.2621,4.2693,4.2991,6.9205,6.9205,6.8927,6.8666,6.8434,6.8421,6.7696,6.6535,6.646,6.5925,6.507,6.5012,6.5012,6.5012,6.5012,6.5012,6.5012,6.5012,6.5012,6.5012,6.5012,6.49,6.4708,6.4772,6.4772,6.4724,6.4756,6.4868,6.498,6.5012,6.5012,6.5012,6.5012,6.5012,6.4983,6.4735,6.4574,6.4545,6.3674,6.3094,6.273,6.1759,6.0526,5.9219,5.9016,5.8232,5.6752,5.652,5.6041,5.4962,5.2435,5.0911,5.0794,4.6967,4.4893,4.5228,4.4625,4.4699,4.5847,4.564,4.5434,4.5434,4.4708,4.4075,4.3538,4.3457,4.3357,4.3291,4.2807,4.2839,4.3669,4.4278,4.4964,4.6029,4.7188,4.8053,4.8518,4.8774,4.9246,4.9863,4.9565,4.9593,5.0305,4.8963,4.6737,4.4779,4.3418,4.29,4.2248,4.1259,4.0619,4.0306,3.9633,3.9479,4.0321,4.0282,4.0321,4.0946,4.1369,4.1706,4.2116,4.2308,4.2332,4.2245,4.2501,4.2371,4.161,4.214,4.238,4.2116,4.1875,4.2091,4.2284,4.2067,4.2101,6.9217,6.9072,6.8898,6.8794,6.8794,6.8794,6.8056,6.6986,6.6899,6.6173,6.507,6.5012,6.5012,6.5012,6.5012,6.5012,6.5012,6.5012,6.5012,6.5012,6.5012,6.4868,6.4705,6.4884,6.4868,6.4708,6.4884,6.5012,6.5012,6.5012,6.5012,6.5012,6.5012,6.5012,6.5012,6.5012,6.5012,6.4938,6.4342,6.3991,6.3774,6.2513,6.1309,6.0555,6.0293,5.9451,5.7942,5.7681,5.7116,5.6049,5.272,5.0966,5.1044,4.7607,4.5745,4.6075,4.6512,4.7048,4.7841,4.6841,4.621,4.6105,4.5031,4.4142,4.3817,4.3581,4.3693,4.4064,4.3757,4.3917,4.4359,4.4874,4.569,4.6974,4.8082,4.874,4.8781,4.9202,4.9385,4.9481,4.9299,4.9608,4.9692,4.8146,4.5853,4.397,4.269,4.1938,4.1053,4.0138,3.9547,3.985,3.8829,3.854,3.9176,3.92,3.9647,4.0008,4.0297,4.0619,4.1244,4.1394,4.1851,4.1884,4.2188,4.2154,4.1538,4.1947,4.2452,4.2477,4.2284,4.1981,4.2053,4.1586,4.1538,7.0279,6.9658,6.9043,6.8794,6.8794,6.8794,6.8085,6.6957,6.6899,6.6202,6.5128,6.5012,6.5012,6.5012,6.5012,6.5012,6.5012,6.5012,6.5012,6.5012,6.5012,6.5012,6.4996,6.5012,6.4996,6.4948,6.498,6.5012,6.5012,6.5012,6.5012,6.5012,6.5012,6.5012,6.5012,6.5012,6.5012,6.4938,6.4342,6.4036,6.3949,6.3341,6.2354,6.1309,6.0555,5.9945,5.9219,5.8581,5.8074,5.77,5.4101,5.1853,5.1164,4.8878,4.747,4.7476,4.7858,4.7943,4.7588,4.6949,4.6446,4.6195,4.5342,4.4424,4.4567,4.4834,4.511,4.5308,4.5204,4.5062,4.4985,4.5714,4.6368,4.6735,4.7623,4.8251,4.8208,4.8555,4.8221,4.8331,4.8456,4.8484,4.831,4.6758,4.5457,4.3998,4.2149,4.0485,4.0222,3.9441,3.897,3.8815,3.8479,3.8203,3.8658,3.8623,3.8324,3.8661,3.9272,3.9197,3.9657,4.0176,4.0898,4.1427,4.1499,4.1451,4.1283,4.1355,4.1682,4.1875,4.2067,4.1981,4.1812,4.1514,4.1442,6.9362,6.913,6.8898,6.8794,6.8794,6.8794,6.8318,6.7526,6.7074,6.6389,6.5589,6.517,6.5012,6.5012,6.5012,6.5012,6.5012,6.5012,6.5012,6.5012,6.5012,6.5012,6.5012,6.5012,6.5012,6.5012,6.5012,6.5012,6.5012,6.5012,6.5012,6.5012,6.5012,6.5012,6.5012,6.5012,6.5012,6.4938,6.4342,6.4225,6.4487,6.3632,6.3022,6.2933,6.1977,6.0932,5.9916,5.9655,5.9189,5.8449,5.5367,5.3666,5.3325,5.1038,4.9778,5.017,5.0395,5.0579,5.0606,4.9776,4.9015,4.8515,4.7449,4.6355,4.5885,4.5874,4.6029,4.602,4.6036,4.6154,4.6733,4.6936,4.734,4.8273,4.9199,4.9504,4.9229,4.9459,4.9647,4.9126,4.8911,4.8606,4.7442,4.6055,4.4542,4.3101,4.1183,3.98,3.8991,3.8492,3.831,3.8262,3.8155,3.8072,3.8228,3.8166,3.8083,3.831,3.8623,3.873,3.9032,3.9489,4.0176,4.0186,4.0379,4.0643,4.0499,4.1114,4.1355,4.1548,4.174,4.186,4.1548,4.1418,4.1379,6.8794,6.8794,6.8794,6.8794,6.8794,6.8794,6.8434,6.7857,6.719,6.6535,6.588,6.5257,6.5012,6.5012,6.5012,6.5012,6.5012,6.5012,6.5012,6.5012,6.5012,6.5012,6.5012,6.5012,6.5012,6.5012,6.5012,6.5012,6.5012,6.5012,6.5012,6.5012,6.5012,6.5012,6.5012,6.5012,6.5012,6.4925,6.4561,6.4574,6.4838,6.417,6.3777,6.3832,6.3152,6.2061,6.0709,6.0246,5.9677,5.8596,5.6172,5.4631,5.4245,5.2669,5.1927,5.2595,5.2569,5.2694,5.2855,5.1665,5.06,5.0312,4.8942,4.7712,4.7043,4.6941,4.696,4.695,4.6961,4.7337,4.778,4.7749,4.7983,4.9042,4.9912,5.0194,4.9691,5.0168,5.0029,4.9379,4.9174,4.8522,4.7159,4.5413,4.3718,4.2039,4.0274,3.879,3.8185,3.8,3.8,3.8,3.8011,3.8,3.8059,3.8035,3.7987,3.8203,3.83,3.8359,3.8455,3.8925,3.9152,3.908,3.9211,3.9547,4.0066,4.0739,4.11,4.1331,4.1716,4.1971,4.1692,4.1451,4.1355,6.8765,6.8753,6.8782,6.8736,6.8707,6.8765,6.8479,6.7857,6.7206,6.6535,6.588,6.5257,6.5012,6.5012,6.5012,6.5012,6.5012,6.5012,6.5012,6.5012,6.5012,6.5012,6.5012,6.5012,6.5012,6.5012,6.5012,6.5012,6.5012,6.5012,6.5012,6.5012,6.5012,6.5012,6.5012,6.5012,6.5012,6.4983,6.4925,6.4954,6.5012,6.4867,6.459,6.4123,6.3888,6.3094,6.1645,6.0495,5.9606,5.8712,5.6495,5.4576,5.4027,5.3574,5.3822,5.4308,5.4262,5.4134,5.3866,5.2086,5.1233,5.1064,4.9482,4.855,4.8339,4.8246,4.8188,4.8022,4.7999,4.8098,4.8058,4.8035,4.8165,4.8557,4.9303,4.9802,4.9817,4.9865,4.9652,4.9084,4.897,4.8325,4.6808,4.5139,4.3396,4.1897,3.998,3.8554,3.8357,3.8291,3.8106,3.8,3.8,3.8,3.8,3.8,3.8,3.8024,3.8059,3.8083,3.8131,3.842,3.8612,3.8575,3.8479,3.8791,3.9128,3.9826,4.0763,4.1114,4.1572,4.1923,4.1755,4.149,4.1235,6.8189,6.8189,6.8189,6.816,6.8247,6.8608,6.8463,6.7857,6.719,6.6535,6.588,6.5257,6.5012,6.5012,6.5012,6.5012,6.5012,6.5012,6.5012,6.5012,6.5012,6.5012,6.5012,6.5012,6.5012,6.5012,6.5012,6.5012,6.5012,6.5012,6.5012,6.5012,6.5012,6.5012,6.5012,6.5012,6.5012,6.5012,6.5012,6.5012,6.5012,6.5012,6.488,6.4661,6.4049,6.3257,6.2571,6.155,6.0503,5.9447,5.8259,5.6953,5.5763,5.5325,5.5325,5.5548,5.5651,5.5453,5.5054,5.4332,5.3332,5.2729,5.1891,5.11,5.0182,4.9988,4.9593,4.8897,4.8713,4.8614,4.8208,4.8108,4.8295,4.8747,4.9556,4.9889,4.964,4.9555,4.9325,4.9029,4.9058,4.8742,4.7792,4.5969,4.4334,4.3383,4.1475,3.9904,3.926,3.8909,3.8713,3.8188,3.8119,3.8,3.8,3.8,3.8,3.8,3.8,3.8,3.8,3.8024,3.8155,3.8179,3.8059,3.8155,3.8468,3.9152,4.0162,4.0802,4.1139,4.1379,4.1586,4.1466,4.1187,6.8032,6.8218,6.8003,6.8061,6.8247,6.8666,6.8463,6.7857,6.719,6.6506,6.588,6.5257,6.5012,6.5012,6.5012,6.5012,6.5012,6.5012,6.5012,6.5012,6.5012,6.5012,6.5012,6.5012,6.5012,6.5012,6.5012,6.5012,6.5012,6.5012,6.5012,6.5012,6.5012,6.5012,6.5012,6.5012,6.5012,6.5012,6.5012,6.5012,6.5012,6.5012,6.5012,6.4906,6.4255,6.3619,6.3,6.1903,6.0825,5.9892,5.9077,5.7958,5.6714,5.6396,5.6275,5.6178,5.618,5.6093,5.5978,5.5337,5.491,5.413,5.3652,5.2752,5.1588,5.1224,5.0607,4.9316,4.9007,4.8754,4.8262,4.8194,4.8446,4.8847,4.9668,5.0052,4.9807,4.98,4.9606,4.9433,4.9355,4.9055,4.8107,4.6879,4.5219,4.4309,4.2396,4.0695,3.98,3.9183,3.8648,3.8225,3.8066,3.8,3.8,3.8,3.8,3.8,3.8,3.8,3.8,3.8,3.8059,3.8083,3.8011,3.8011,3.83,3.9056,3.9946,4.0306,4.0754,4.1139,4.1418,4.1355,4.1114,6.816,6.8608,6.809,6.8148,6.8637,6.8753,6.8421,6.777,6.7161,6.6476,6.5793,6.5228,6.5012,6.5012,6.5012,6.5012,6.5012,6.5012,6.5012,6.5012,6.5012,6.5012,6.5012,6.5012,6.507,6.5112,6.5041,6.507,6.5141,6.5041,6.5012,6.5012,6.5012,6.5012,6.5012,6.5012,6.5012,6.5012,6.5012,6.5012,6.5012,6.5012,6.498,6.4948,6.4554,6.3957,6.3018,6.1649,6.0539,5.9911,5.8842,5.7967,5.7204,5.6968,5.6775,5.6537,5.6192,5.6405,5.6448,5.579,5.505,5.5195,5.4403,5.3262,5.2249,5.1885,5.1225,4.9709,4.9359,4.8938,4.8468,4.8383,4.8645,4.8933,4.9515,5.0024,5.0581,5.0569,5.0142,4.9777,4.9656,4.9336,4.8322,4.7244,4.598,4.4546,4.2708,4.1438,4.0209,3.9645,3.8462,3.8093,3.8,3.8,3.8,3.8,3.8048,3.83,3.8252,3.8155,3.8035,3.8,3.8,3.8,3.8,3.8,3.8228,3.8912,3.9547,4.0066,4.0499,4.0984,4.1042,4.0922,4.086,6.7248,6.7347,6.7219,6.7538,6.816,6.8608,6.8189,6.7219,6.7015,6.629,6.5373,6.5099,6.5012,6.5012,6.5012,6.5012,6.5012,6.5012,6.5012,6.5012,6.5012,6.5012,6.5012,6.5012,6.5228,6.5502,6.5228,6.5228,6.5589,6.5228,6.5041,6.5012,6.5012,6.5012,6.5012,6.5012,6.5012,6.5012,6.5012,6.5012,6.5012,6.4996,6.4884,6.4612,6.4305,6.3834,6.3192,6.182,6.0259,5.8883,5.8531,5.8331,5.8185,5.7686,5.738,5.7384,5.7123,5.6974,5.7047,5.6731,5.6217,5.555,5.5097,5.4474,5.3332,5.2728,5.204,5.114,5.0691,4.9891,4.9048,4.8816,4.8874,4.8945,4.9445,4.9977,5.0428,5.0245,4.9896,4.9751,4.9722,4.9423,4.8915,4.8289,4.7522,4.6557,4.5032,4.3341,4.1771,4.0401,3.9403,3.8351,3.8024,3.8,3.8,3.8,3.8155,3.8551,3.8575,3.8431,3.8252,3.8011,3.8011,3.8,3.8,3.8,3.8155,3.8599,3.9176,3.9764,4.0066,4.0393,4.0306,4.0196,4.0292,6.6899,6.6899,6.6899,6.7293,6.7945,6.8521,6.8102,6.7074,6.687,6.6173,6.5215,6.5012,6.5012,6.5012,6.5012,6.5012,6.5012,6.5012,6.5012,6.5012,6.5012,6.5012,6.5012,6.5012,6.5199,6.5473,6.5415,6.5444,6.5502,6.5402,6.5257,6.5041,6.5012,6.5012,6.5012,6.5012,6.5012,6.5012,6.5012,6.5012,6.5012,6.4852,6.4708,6.4402,6.4017,6.3334,6.2098,6.1128,6.002,5.8996,5.8823,5.894,5.8905,5.8609,5.8389,5.8422,5.7987,5.7608,5.7275,5.6988,5.6202,5.5364,5.5196,5.4729,5.3895,5.329,5.284,5.1828,5.128,5.0297,4.9299,4.8962,4.9058,4.9252,4.951,4.9855,5.0274,4.9938,4.9751,4.9722,4.971,4.9612,4.9342,4.896,4.855,4.7714,4.5887,4.437,4.292,4.1621,4.0239,3.9009,3.8348,3.8396,3.83,3.8252,3.8588,3.896,3.9363,3.9115,3.8623,3.83,3.8107,3.8107,3.8035,3.8059,3.83,3.8503,3.8826,3.9307,3.9585,3.9801,3.9836,4.01,4.0124,6.6899,6.6899,6.6899,6.7335,6.8032,6.8479,6.7986,6.7044,6.6767,6.6086,6.5186,6.5012,6.5012,6.5012,6.5012,6.5012,6.5012,6.5012,6.5012,6.5012,6.5012,6.5012,6.5012,6.5012,6.5215,6.5431,6.5764,6.5764,6.578,6.5967,6.5648,6.5315,6.517,6.5041,6.5041,6.5012,6.5012,6.5012,6.5012,6.5012,6.4948,6.4724,6.4499,6.4305,6.3704,6.2543,6.1228,6.0473,6.0111,5.9264,5.9503,5.9371,5.9234,5.9524,5.9562,5.9277,5.8755,5.8145,5.7421,5.6688,5.5717,5.5008,5.4884,5.4643,5.3993,5.3698,5.3276,5.2531,5.1519,5.0633,4.9572,4.9181,4.9307,4.954,4.962,4.9722,4.9722,4.9722,4.9722,4.9722,4.9722,4.9588,4.9428,4.926,4.9067,4.8583,4.6783,4.5115,4.3514,4.1941,4.0551,3.921,3.8888,3.8912,3.8743,3.8551,3.9008,3.9468,4.0067,4.001,3.9293,3.8864,3.8455,3.8324,3.8588,3.8588,3.8516,3.8695,3.8898,3.9138,3.9595,3.9729,3.9826,4.0282,4.0475,6.6899,6.6899,6.6899,6.7551,6.8434,6.8247,6.7638,6.687,6.6344,6.5722,6.5112,6.5012,6.4996,6.5012,6.498,6.5012,6.5012,6.5012,6.5012,6.5012,6.5012,6.5012,6.5041,6.507,6.5564,6.6086,6.6025,6.6373,6.6912,6.668,6.636,6.5764,6.5589,6.5444,6.5041,6.5012,6.5012,6.5012,6.5012,6.5012,6.4932,6.4673,6.4338,6.4046,6.3393,6.2608,6.1928,6.1852,6.119,5.9933,5.9277,5.9241,5.952,5.9686,5.9881,5.9857,5.9422,5.8755,5.803,5.7079,5.6234,5.5222,5.4572,5.4333,5.4429,5.3894,5.3838,5.3627,5.2981,5.1601,5.0429,5.0303,5.0074,4.9754,4.967,4.9751,4.9722,4.9722,4.9722,4.9722,4.9693,4.9656,4.9608,4.96,4.9357,4.9013,4.7609,4.5807,4.4083,4.2332,4.0907,3.9571,3.9441,3.9441,3.9417,3.9296,3.9609,3.995,4.0474,4.079,4.0054,3.9651,3.9355,3.9241,3.9283,3.92,3.8949,3.9118,3.9369,3.9499,3.9619,3.9753,3.9994,4.0427,4.0778,6.7015,6.6506,6.7103,6.7754,6.826,6.8032,6.7526,6.6841,6.617,6.556,6.5051,6.4852,6.4852,6.498,6.4836,6.4836,6.4996,6.5012,6.517,6.5286,6.5199,6.5331,6.5767,6.5577,6.5838,6.6418,6.6779,6.7173,6.7306,6.7364,6.6854,6.5951,6.5893,6.5531,6.5099,6.5012,6.5012,6.5012,6.5012,6.5012,6.4948,6.4515,6.3993,6.3573,6.3096,6.2645,6.2059,6.1989,6.1279,6.0215,5.9545,5.9371,5.9744,6.014,6.0478,6.051,5.9771,5.9045,5.8248,5.6891,5.5545,5.475,5.4031,5.3781,5.367,5.3374,5.3571,5.3796,5.3262,5.2275,5.1532,5.1194,5.078,5.0224,5.0047,5.0029,4.9809,4.9722,4.9722,4.9722,4.9722,4.9722,4.9722,4.9722,4.951,4.9108,4.7359,4.5599,4.4586,4.29,4.1387,4.031,4.0088,3.9994,4.0042,4.009,4.0258,4.0507,4.0763,4.0979,4.0704,4.0501,4.0344,4.0119,3.9823,3.9585,3.9393,3.9609,3.9733,3.9681,3.9753,3.9874,4.0176,4.0657,4.0898,6.7144,6.6315,6.7434,6.7887,6.7887,6.7787,6.7335,6.668,6.607,6.5383,6.4971,6.4612,6.4676,6.4804,6.4628,6.4692,6.4932,6.5041,6.5228,6.5706,6.5431,6.5722,6.6244,6.6315,6.6257,6.6228,6.7173,6.7567,6.7596,6.7625,6.7347,6.6315,6.6083,6.5722,6.5186,6.5012,6.5012,6.5012,6.5012,6.4948,6.482,6.4321,6.372,6.3112,6.2947,6.275,6.2403,6.2203,6.157,6.0526,6.026,5.9978,5.9909,6.0463,6.1164,6.1106,6.0235,5.9539,5.861,5.6892,5.5274,5.4109,5.365,5.3302,5.3079,5.322,5.3543,5.3655,5.3515,5.3133,5.2645,5.2141,5.1527,5.0928,5.0697,5.0332,4.9983,4.978,4.9722,4.9722,4.9722,4.9722,4.9722,4.971,4.9436,4.8918,4.7113,4.5515,4.4468,4.3349,4.1741,4.087,4.0618,4.0537,4.0571,4.0547,4.0739,4.0958,4.114,4.127,4.1419,4.1734,4.153,4.0581,4.0171,4.0085,4.0095,4.0292,4.0278,4.0002,4.009,4.0427,4.0691,4.0922,4.1018,6.7248,6.7596,6.7799,6.7887,6.7799,6.7306,6.6709,6.6025,6.5444,6.4952,6.4608,6.4499,6.4467,6.4563,6.4531,6.4676,6.4932,6.5041,6.5344,6.588,6.5764,6.6025,6.6489,6.7086,6.7144,6.7044,6.7596,6.8073,6.8347,6.8521,6.7841,6.6941,6.668,6.6157,6.5302,6.5012,6.5012,6.5012,6.5012,6.49,6.4644,6.4224,6.3655,6.2997,6.2914,6.2978,6.3218,6.3334,6.2918,6.161,6.1617,6.0827,5.9972,6.0119,6.0584,6.0903,6.0758,6.0119,5.948,5.8003,5.6795,5.598,5.4955,5.405,5.3726,5.3866,5.3993,5.4274,5.4499,5.4318,5.2744,5.2526,5.2104,5.1427,5.061,5.0141,5.0245,5.0013,4.9722,4.9722,4.9722,4.9722,4.9722,4.9559,4.9203,4.8515,4.7035,4.5409,4.41,4.3064,4.1878,4.1328,4.1081,4.1066,4.109,4.1042,4.1095,4.1342,4.1537,4.1811,4.2153,4.2939,4.2727,4.1478,4.1057,4.1169,4.1189,4.1027,4.0876,4.0652,4.084,4.1042,4.1066,4.1066,4.1114,6.7596,6.7916,6.8201,6.8189,6.7799,6.719,6.6535,6.5831,6.5094,6.4644,6.4418,6.4143,6.4176,6.4354,6.4273,6.4515,6.49,6.5012,6.5535,6.6186,6.6112,6.656,6.7128,6.7812,6.7899,6.7957,6.8247,6.8463,6.8765,6.8765,6.8102,6.7173,6.6899,6.6261,6.5302,6.5012,6.5012,6.5012,6.4996,6.4932,6.4692,6.4244,6.3622,6.3129,6.3063,6.3244,6.3446,6.3997,6.3715,6.2771,6.2257,6.1453,6.0555,5.9916,6.0032,6.0482,6.0438,6.0322,5.9915,5.8491,5.7138,5.648,5.562,5.4471,5.374,5.3627,5.4147,5.4316,5.4625,5.453,5.3284,5.3139,5.2475,5.1374,5.0523,5.0274,5.0158,4.9909,4.9809,4.9751,4.9751,4.9751,4.9722,4.9436,4.8964,4.8021,4.6816,4.5316,4.3783,4.2726,4.173,4.1459,4.1187,4.1187,4.1211,4.1211,4.1211,4.1445,4.1773,4.2047,4.2263,4.2768,4.2684,4.1952,4.1905,4.1787,4.1496,4.1123,4.1186,4.1258,4.1253,4.1243,4.1206,4.1187,4.1287,6.7887,6.7945,6.8421,6.8172,6.7463,6.6928,6.6286,6.5641,6.4875,6.4451,6.4305,6.3883,6.39,6.4269,6.4497,6.4733,6.517,6.5331,6.6115,6.6812,6.6709,6.7244,6.8027,6.8376,6.8218,6.8305,6.8666,6.8794,6.8794,6.8794,6.8114,6.7463,6.7132,6.6464,6.5489,6.5286,6.517,6.5012,6.5012,6.4951,6.4519,6.4122,6.3553,6.2967,6.3193,6.3446,6.3769,6.416,6.4137,6.3431,6.2635,6.1716,6.0932,5.98,5.9364,5.9684,5.9539,5.9843,5.9753,5.8908,5.7765,5.7219,5.6495,5.5175,5.3951,5.3853,5.3909,5.3993,5.4473,5.4545,5.3793,5.3661,5.2928,5.1825,5.1075,5.0593,5.039,5.0158,4.9925,4.9867,4.9838,4.9838,4.9838,4.9473,4.9026,4.7587,4.6373,4.4886,4.3411,4.2393,4.1578,4.1359,4.1187,4.1187,4.1211,4.1211,4.1211,4.1273,4.1631,4.1934,4.2047,4.2231,4.2047,4.2015,4.1791,4.1621,4.1387,4.1244,4.1287,4.1344,4.143,4.1416,4.1287,4.1502,4.1735,6.7887,6.7887,6.7974,6.7289,6.6257,6.6083,6.5693,6.5122,6.4685,6.4321,6.4143,6.3993,6.3989,6.4421,6.5279,6.5679,6.5922,6.6319,6.687,6.7509,6.7538,6.7638,6.8119,6.855,6.8363,6.8392,6.8637,6.8765,6.8794,6.8794,6.8405,6.7754,6.7451,6.7057,6.5693,6.5531,6.5502,6.5099,6.4996,6.4464,6.3606,6.3484,6.3212,6.2939,6.3163,6.3708,6.4147,6.4393,6.4265,6.3941,6.2802,6.1571,6.0366,5.9103,5.8552,5.8813,5.9393,6.0233,6.021,5.9434,5.8648,5.8225,5.7973,5.6961,5.5642,5.4375,5.4248,5.4828,5.5083,5.4767,5.3984,5.3876,5.3573,5.269,5.151,5.1265,5.1033,5.0697,5.0436,5.032,5.0407,5.0174,5.0029,4.9568,4.8976,4.7421,4.5913,4.4522,4.3145,4.2164,4.1506,4.1287,4.1211,4.1211,4.1211,4.1211,4.1211,4.1211,4.1559,4.1887,4.1905,4.199,4.2004,4.1905,4.1706,4.1563,4.1416,4.1359,4.1387,4.1583,4.1885,4.1665,4.133,4.1692,4.2446,6.7335,6.7335,6.7335,6.6796,6.5951,6.5893,6.556,6.4971,6.4451,6.4257,6.4262,6.4262,6.4613,6.5327,6.6193,6.646,6.6535,6.6812,6.7293,6.7816,6.7945,6.8073,6.8421,6.8666,6.8579,6.855,6.8637,6.8765,6.8794,6.8678,6.8363,6.7492,6.7306,6.6609,6.5809,6.546,6.5257,6.5006,6.4775,6.4323,6.3792,6.3635,6.3513,6.3049,6.3647,6.4131,6.4361,6.4287,6.4399,6.4196,6.3341,6.2064,6.0932,5.9887,5.9161,5.8348,5.8755,5.9218,5.9459,5.936,5.9049,5.884,5.8753,5.8434,5.7082,5.5538,5.4698,5.5239,5.4697,5.4189,5.3731,5.3526,5.3022,5.2384,5.1846,5.1672,5.1514,5.1398,5.1149,5.1062,5.0958,5.0784,5.0469,4.9973,4.9259,4.7841,4.6532,4.5355,4.3673,4.2089,4.1549,4.123,4.1211,4.1211,4.1211,4.1211,4.1211,4.1297,4.1673,4.1901,4.182,4.1848,4.1972,4.1901,4.1678,4.1535,4.1502,4.1373,4.1354,4.1828,4.2396,4.225,4.2242,4.3374,4.3816,6.6435,6.6435,6.6609,6.6273,6.5689,6.558,6.5287,6.4817,6.4143,6.4046,6.438,6.4605,6.5354,6.638,6.6913,6.7161,6.7161,6.7306,6.7654,6.8003,6.816,6.8376,6.862,6.8794,6.8794,6.8794,6.8736,6.8794,6.8794,6.8707,6.8318,6.7405,6.7667,6.6957,6.6099,6.5896,6.5883,6.5283,6.4791,6.4287,6.3918,6.4013,6.3793,6.3765,6.4061,6.456,6.4557,6.4225,6.4326,6.4284,6.3399,6.2122,6.1164,6.0206,5.9451,5.8726,5.8668,5.8625,5.8969,5.9121,5.8984,5.8949,5.9043,5.9178,5.8691,5.6695,5.5377,5.595,5.5217,5.4306,5.3464,5.3386,5.3232,5.2755,5.2078,5.1933,5.1846,5.1846,5.1701,5.1427,5.141,5.1585,5.1211,5.0581,4.9578,4.8216,4.7069,4.5993,4.4291,4.2305,4.1791,4.1516,4.1244,4.123,4.1211,4.1211,4.1211,4.135,4.1751,4.185,4.1746,4.1918,4.2145,4.1964,4.1899,4.2619,4.3227,4.2228,4.1393,4.2442,4.3265,4.3198,4.3515,4.4556,4.4653,6.5128,6.5186,6.5764,6.5664,6.5067,6.4718,6.4589,6.4499,6.3757,6.3749,6.4352,6.5023,6.6038,6.6871,6.7546,6.7828,6.7828,6.8405,6.855,6.8637,6.8753,6.8707,6.8794,6.8794,6.8794,6.8794,6.8794,6.8794,6.8794,6.8794,6.8724,6.8666,6.823,6.8102,6.7538,6.687,6.6447,6.5728,6.4932,6.4224,6.3999,6.4057,6.4111,6.3824,6.4134,6.4628,6.4903,6.4339,6.402,6.4152,6.3138,6.2079,6.1207,6.0351,5.964,5.9103,5.8697,5.8654,5.8912,5.9298,5.9435,5.9313,5.9338,5.9612,5.9575,5.8476,5.7499,5.6736,5.5983,5.5052,5.4307,5.3854,5.3754,5.3229,5.2688,5.2555,5.2526,5.2526,5.2323,5.192,5.1907,5.2198,5.1706,5.0989,4.9728,4.8335,4.6311,4.5169,4.4345,4.2743,4.2263,4.1877,4.1459,4.1287,4.1225,4.1211,4.1259,4.1442,4.1788,4.172,4.1562,4.1892,4.2885,4.28,4.2991,4.3982,4.452,4.3373,4.2852,4.3642,4.4275,4.4936,4.4403,4.449,4.4247,6.5228,6.5531,6.5431,6.5199,6.4951,6.4628,6.4495,6.437,6.3737,6.4122,6.5202,6.6409,6.7347,6.7953,6.823,6.8434,6.8463,6.862,6.8765,6.8794,6.8794,6.8794,6.8794,6.8794,6.8794,6.8794,6.8794,6.8794,6.8794,6.8794,6.8794,6.8707,6.8492,6.7857,6.7422,6.707,6.6444,6.5927,6.5051,6.4355,6.4265,6.4281,6.4368,6.4224,6.4525,6.4836,6.4893,6.4326,6.4094,6.3774,6.3094,6.2238,6.1396,6.0671,6.0061,5.9539,5.9132,5.9088,5.9203,5.9576,5.9786,6.0088,6.0004,5.9922,6.0106,5.9188,5.8205,5.7423,5.6741,5.5809,5.4619,5.4316,5.4184,5.3661,5.3384,5.3281,5.3165,5.3194,5.3107,5.2762,5.2781,5.2958,5.2227,5.1369,4.9927,4.8411,4.6276,4.4536,4.4004,4.3201,4.2625,4.2312,4.194,4.147,4.1365,4.1336,4.1345,4.1577,4.1852,4.191,4.2035,4.3488,4.4238,4.4073,4.4152,4.5053,4.5178,4.4274,4.4291,4.509,4.629,4.7512,4.6517,4.4811,4.4136,6.5257,6.556,6.517,6.4948,6.482,6.4499,6.4302,6.4123,6.3866,6.4574,6.6096,6.7185,6.7812,6.8201,6.8695,6.8608,6.855,6.8666,6.8765,6.8794,6.8794,6.8794,6.8794,6.8794,6.8794,6.8794,6.8794,6.8794,6.8794,6.8794,6.8794,6.8608,6.8218,6.7741,6.7534,6.6536,6.6085,6.5927,6.5109,6.4624,6.4612,6.4413,6.4544,6.4487,6.4665,6.4774,6.4719,6.44,6.4065,6.3716,6.321,6.2499,6.1832,6.1222,6.0671,6.0206,5.9844,5.9742,6.0031,5.9928,6.0111,6.027,6.0245,6.0089,5.9858,5.9495,5.861,5.7478,5.6999,5.6448,5.5258,5.5345,5.5329,5.4981,5.4429,5.4226,5.3965,5.3878,5.3778,5.3661,5.3527,5.3018,5.1364,5.0241,4.8613,4.7204,4.5608,4.4659,4.5034,4.407,4.2851,4.2626,4.2496,4.1987,4.1528,4.1663,4.1808,4.1841,4.2112,4.2426,4.2958,4.4415,4.5507,4.5599,4.5817,4.6281,4.6658,4.6868,4.6672,4.6531,4.7324,4.7766,4.688,4.5171,4.4611,6.4996,6.5012,6.4996,6.4788,6.4422,6.4131,6.3851,6.3663,6.412,6.5077,6.6322,6.6896,6.7161,6.7492,6.8463,6.855,6.8363,6.8608,6.8794,6.8794,6.8794,6.8794,6.8794,6.8794,6.8794,6.8794,6.8794,6.8794,6.8794,6.8794,6.8794,6.8678,6.8334,6.8044,6.8487,6.7131,6.6586,6.6569,6.5192,6.4856,6.4752,6.4363,6.4392,6.4523,6.4381,6.4413,6.4545,6.4458,6.4181,6.3861,6.3138,6.2703,6.2674,6.1396,6.1135,6.176,6.0831,6.0932,6.1759,6.083,6.0568,6.0407,6.0366,6.0046,5.9553,5.9234,5.8856,5.7768,5.771,5.7419,5.6984,5.6636,5.6345,5.5997,5.5387,5.4952,5.4648,5.4706,5.4677,5.4465,5.3621,5.2598,5.063,4.8816,4.7159,4.5743,4.4557,4.4537,4.539,4.4914,4.3551,4.3813,4.381,4.355,4.3147,4.2413,4.2234,4.2252,4.2517,4.2968,4.3712,4.4911,4.5908,4.6786,4.7411,4.7781,4.8961,5.0051,4.8833,4.7472,4.6799,4.6783,4.611,4.5517,4.479,6.4607,6.4053,6.4487,6.4063,6.3325,6.3793,6.3786,6.3593,6.4358,6.535,6.64,6.7186,6.7841,6.823,6.8434,6.8666,6.855,6.8579,6.8794,6.8794,6.8794,6.8794,6.8794,6.8794,6.8794,6.8794,6.8794,6.8794,6.8794,6.8794,6.8794,6.8678,6.8434,6.8131,6.7459,6.6532,6.6147,6.6067,6.5348,6.49,6.4909,6.44,6.4094,6.4371,6.4094,6.4036,6.4342,6.4284,6.4284,6.4036,6.3268,6.3254,6.3225,6.2093,6.2267,6.2718,6.2137,6.2267,6.2645,6.2209,6.1716,6.1106,6.0526,6.0235,5.9916,5.9887,5.9161,5.8348,5.8203,5.7826,5.7274,5.6723,5.6403,5.6229,5.5765,5.5403,5.52,5.5534,5.5637,5.5311,5.4645,5.3252,5.1473,4.9596,4.7751,4.6091,4.5041,4.4948,4.5613,4.5276,4.441,4.5276,4.5583,4.5358,4.4945,4.418,4.3741,4.3806,4.3795,4.3853,4.4709,4.5704,4.7108,4.8392,4.8844,4.9314,5.0243,5.0699,4.9359,4.8229,4.739,4.6506,4.5884,4.5287,4.4552,6.3783,6.326,6.3536,6.3254,6.2673,6.3419,6.3789,6.3996,6.4625,6.5532,6.6611,6.7513,6.787,6.8172,6.8579,6.8608,6.855,6.8753,6.8794,6.8794,6.8794,6.8794,6.8794,6.8794,6.8794,6.8794,6.8794,6.8794,6.8794,6.8794,6.8649,6.8492,6.8463,6.7667,6.6895,6.6328,6.6183,6.5938,6.5325,6.498,6.4751,6.4299,6.3774,6.3832,6.3658,6.3397,6.3732,6.4022,6.427,6.3978,6.3774,6.3761,6.3574,6.3341,6.3283,6.3312,6.3428,6.308,6.2529,6.2921,6.2267,6.16,6.1077,6.0642,6.0366,6.0148,5.9422,5.8755,5.8552,5.8203,5.771,5.7129,5.71,5.6955,5.6436,5.6075,5.5971,5.6305,5.5921,5.5637,5.5044,5.3725,5.2348,5.0666,4.8828,4.7214,4.5725,4.5886,4.6048,4.5774,4.5765,4.664,4.7111,4.6852,4.6483,4.596,4.5599,4.542,4.5475,4.5569,4.5824,4.688,4.8451,4.9875,5.034,5.0807,5.1266,5.1099,4.985,4.869,4.7681,4.6777,4.5823,4.5218,4.4708,6.2584,6.2522,6.2268,6.226,6.2466,6.296,6.3809,6.4748,6.4781,6.5503,6.6837,6.7447,6.7638,6.7393,6.8276,6.8521,6.8276,6.8637,6.8736,6.8736,6.8666,6.8707,6.8736,6.8724,6.8678,6.8765,6.8794,6.8794,6.8794,6.8794,6.8521,6.816,6.8102,6.7347,6.6738,6.6344,6.6244,6.5677,6.5286,6.5041,6.4809,6.398,6.3674,6.3529,6.3181,6.2906,6.3051,6.3254,6.3558,6.3529,6.3457,6.398,6.4067,6.3719,6.3732,6.3774,6.392,6.3036,6.2209,6.2805,6.2906,6.2412,6.2238,6.1454,6.0758,6.038,5.9597,5.8958,5.8581,5.8552,5.8348,5.8406,5.8435,5.7943,5.7294,5.699,5.6815,5.6557,5.5986,5.5489,5.498,5.3909,5.2568,5.1005,5.0461,4.9285,4.8006,4.7376,4.7435,4.7142,4.7345,4.82,4.8476,4.8252,4.7928,4.7825,4.7405,4.7232,4.7733,4.7921,4.806,4.8193,4.959,5.0873,5.1763,5.2156,5.1919,5.1293,5.0388,4.9324,4.8616,4.6909,4.5938,4.5746,4.5358,6.2169,6.1604,6.213,6.1779,6.097,6.1715,6.2887,6.4108,6.3797,6.4514,6.6212,6.6899,6.7335,6.7683,6.8434,6.8579,6.8637,6.8695,6.8765,6.8678,6.8421,6.8521,6.8521,6.8463,6.8492,6.8678,6.8794,6.8794,6.8794,6.8794,6.8765,6.855,6.8073,6.7364,6.6767,6.636,6.5867,6.546,6.5099,6.5041,6.4822,6.4125,6.379,6.3326,6.2993,6.2718,6.2544,6.2819,6.3109,6.3196,6.3196,6.3574,6.408,6.392,6.392,6.3933,6.392,6.3558,6.2819,6.2892,6.308,6.321,6.3297,6.2716,6.1803,6.0845,6.0061,5.948,5.8784,5.861,5.8552,5.861,5.8726,5.8422,5.7728,5.7164,5.7019,5.6878,5.6278,5.568,5.5169,5.4516,5.3111,5.2929,5.236,5.1363,5.0493,4.9729,4.8969,4.8703,4.8788,4.966,4.9965,4.9803,5.0118,5.0125,4.9521,4.9144,4.9669,4.9981,4.9763,5.0055,5.1014,5.1758,5.2421,5.2323,5.1929,5.1294,5.0655,5.066,4.9949,4.7872,4.6269,4.6455,4.6327,6.1281,6.0833,6.1062,6.0808,6.0498,6.1037,6.2168,6.3284,6.3533,6.4384,6.5557,6.6522,6.7248,6.7857,6.8247,6.8392,6.8421,6.8637,6.8695,6.8276,6.8032,6.8376,6.8405,6.8276,6.8363,6.8608,6.8794,6.8794,6.8794,6.8794,6.8765,6.8707,6.8189,6.7567,6.6928,6.6257,6.5619,6.5257,6.5012,6.5012,6.4764,6.4371,6.3848,6.3457,6.3138,6.2515,6.2166,6.2486,6.2441,6.2645,6.2703,6.3022,6.35,6.3616,6.3339,6.3339,6.3442,6.2993,6.237,6.247,6.2993,6.3442,6.3674,6.3355,6.2861,6.2093,6.1164,6.0322,5.9364,5.8639,5.8566,5.8537,5.8668,5.8755,5.7944,5.7179,5.7123,5.7139,5.6652,5.6049,5.552,5.5038,5.464,5.46,5.4247,5.3186,5.2772,5.2666,5.158,5.0586,5.0562,5.0979,5.1307,5.1429,5.1752,5.1724,5.1011,5.0807,5.1767,5.1892,5.1546,5.1874,5.273,5.2922,5.2981,5.284,5.2714,5.1711,5.1077,5.1208,5.1171,4.9573,4.8401,4.8335,4.8024,6.0224,6.0192,5.95,5.989,6.0567,6.0955,6.1596,6.2566,6.3577,6.4477,6.498,6.607,6.6812,6.719,6.7463,6.7667,6.787,6.8143,6.8131,6.7799,6.7522,6.7795,6.8247,6.8189,6.816,6.855,6.8794,6.8794,6.8794,6.8765,6.8736,6.8724,6.8044,6.7364,6.6651,6.6025,6.5444,6.5112,6.5012,6.5012,6.4867,6.4458,6.4007,6.3774,6.3036,6.2195,6.2021,6.1789,6.1483,6.1861,6.218,6.2515,6.2805,6.3183,6.2819,6.2587,6.279,6.2383,6.1934,6.1861,6.2354,6.279,6.3051,6.3384,6.3239,6.2906,6.1977,6.1164,6.0264,5.9771,5.9655,5.9031,5.8842,5.8595,5.7972,5.7337,5.7065,5.6924,5.6436,5.5991,5.5862,5.5421,5.5264,5.5152,5.5296,5.463,5.4488,5.4727,5.4117,5.272,5.2296,5.2333,5.2349,5.2461,5.2364,5.231,5.2058,5.2305,5.3224,5.3132,5.2294,5.3118,5.4412,5.3965,5.3416,5.374,5.3598,5.2642,5.2053,5.225,5.197,5.1108,5.0605,5.0635,4.9569,6.0224,6.0178,5.9748,5.9992,6.0573,6.0732,6.0922,6.1259,6.2226,6.3032,6.3632,6.4371,6.5125,6.5809,6.6315,6.6651,6.7086,6.7405,6.7277,6.6999,6.6767,6.726,6.7783,6.7509,6.7812,6.8492,6.8794,6.8707,6.8707,6.8678,6.8492,6.8073,6.748,6.6825,6.6257,6.5619,6.5199,6.5012,6.5012,6.5012,6.4925,6.4838,6.459,6.4022,6.3225,6.2573,6.2312,6.2021,6.1658,6.1571,6.1919,6.2166,6.2341,6.2834,6.2718,6.2283,6.2254,6.1832,6.1542,6.1425,6.1803,6.2354,6.279,6.3384,6.3558,6.3283,6.279,6.2035,6.1425,6.1048,6.0555,5.9742,5.8972,5.8537,5.7958,5.751,5.705,5.6637,5.6207,5.6106,5.6063,5.5934,5.5777,5.5836,5.6008,5.6008,5.5937,5.5908,5.5666,5.4728,5.3781,5.3625,5.3316,5.329,5.3149,5.3051,5.291,5.3049,5.3749,5.3476,5.3045,5.3757,5.4555,5.4077,5.3754,5.4035,5.4091,5.3669,5.3286,5.3387,5.3338,5.2716,5.3261,5.3489,5.1746,6.0331,6.0209,6.001,6.0209,6.0624,6.084,6.0908,6.1025,6.1466,6.189,6.2399,6.3181,6.3964,6.459,6.5212,6.556,6.6144,6.6725,6.668,6.6402,6.6199,6.668,6.6841,6.6841,6.7161,6.7766,6.826,6.8376,6.8421,6.8334,6.8044,6.7451,6.6812,6.6302,6.5805,6.5344,6.5012,6.5012,6.5012,6.5012,6.5012,6.4954,6.488,6.4299,6.3632,6.2979,6.2631,6.2341,6.1934,6.1861,6.2267,6.2238,6.2341,6.2457,6.2428,6.2137,6.1876,6.1542,6.1309,6.1251,6.1454,6.2006,6.2354,6.2906,6.3832,6.3616,6.3587,6.2919,6.247,6.2093,6.1571,6.0845,6.0003,5.9408,5.8233,5.7321,5.705,5.678,5.6451,5.6236,5.6222,5.6236,5.6165,5.6337,5.6509,5.6551,5.6609,5.6609,5.6451,5.628,5.5467,5.48,5.4417,5.4134,5.3936,5.3908,5.3893,5.4119,5.4259,5.4367,5.4288,5.4366,5.447,5.4358,5.4246,5.4176,5.4147,5.4049,5.4358,5.449,5.4548,5.4478,5.5173,5.548,5.3797,6.0627,6.0339,6.0369,6.048,6.0756,6.1058,6.1178,6.1193,6.1193,6.1222,6.1411,6.2383,6.3152,6.3819,6.4284,6.4561,6.4925,6.5389,6.5635,6.556,6.5531,6.5867,6.6099,6.6228,6.6634,6.7057,6.7538,6.7712,6.777,6.7712,6.7405,6.6767,6.6286,6.5864,6.5648,6.5344,6.5012,6.5012,6.5012,6.5012,6.5012,6.5012,6.4938,6.4547,6.3938,6.3299,6.3037,6.2776,6.2428,6.2224,6.247,6.2499,6.2499,6.2486,6.2267,6.2093,6.1818,6.1483,6.1222,6.1193,6.1483,6.1832,6.205,6.2645,6.3587,6.3891,6.3832,6.3629,6.3225,6.2964,6.2441,6.1745,6.0918,6.0061,5.8682,5.7335,5.7137,5.698,5.6752,5.6494,5.6494,5.6509,5.6609,5.678,5.6894,5.6936,5.6951,5.6951,5.6893,5.6707,5.625,5.568,5.5268,5.4984,5.467,5.447,5.4414,5.4442,5.4569,5.5117,5.5426,5.5145,5.5018,5.5102,5.4976,5.4752,5.4667,5.4639,5.499,5.5355,5.5187,5.5074,5.5299,5.5478,5.508,6.1215,6.0967,6.1215,6.111,6.0828,6.1087,6.1193,6.1193,6.1193,6.1193,6.1251,6.1382,6.189,6.247,6.2529,6.2921,6.3676,6.4141,6.3909,6.3661,6.4342,6.4851,6.5344,6.5764,6.6286,6.6709,6.6986,6.7061,6.7103,6.7074,6.6767,6.6112,6.6054,6.5648,6.5199,6.5012,6.5012,6.5012,6.5012,6.5012,6.5012,6.5012,6.5012,6.4677,6.4254,6.3964,6.3774,6.3716,6.3051,6.2499,6.2383,6.2703,6.2819,6.2877,6.2703,6.2383,6.2064,6.176,6.1571,6.1396,6.1629,6.1774,6.2079,6.2544,6.321,6.3513,6.3513,6.3529,6.3312,6.3502,6.3067,6.2195,6.1353,6.0584,5.9466,5.8176,5.744,5.7339,5.7181,5.7009,5.6909,5.6866,5.6823,5.7007,5.7163,5.7191,5.7191,5.7177,5.7308,5.715,5.6993,5.6565,5.6094,5.5552,5.5083,5.4767,5.4667,5.4695,5.4793,5.5159,5.5412,5.5482,5.544,5.5412,5.5468,5.5355,5.5299,5.5243,5.544,5.5693,5.5524,5.544,5.5664,5.5746,5.5535]}]]